[[{"header":{"parameterUnit":"m.s-1","parameterCategory":1,"la1":30.6,"la2":28.766,"lo1":-90.7593,"lo2":-88.6598,"dy":0.0162,"dx":0.0183,"nx":116,"ny":114,"refTime":"2023-05-28T06:00:00:Z","depth":0,"parameterNumber":2,"parameterNumberName":"U-component_of_WINDS"},"data":[0.0,0.0,0.0,0.0,0.0,0.0,0.0,0.0,0.0,0.0,0.0,0.0,0.0,0.0,0.0,0.0,0.0,0.0,0.0,0.0,0.0,0.0,0.0,0.0,0.0,0.0,0.0,0.0,0.0,0.0,0.0,0.0,0.0,0.0,0.0,0.0,0.0,0.0,0.0,0.0,0.0,0.0,0.0,0.0,0.0,0.0,0.0,0.0,0.0,0.0,0.0,0.0,0.0,0.0,0.0,0.0,0.0,0.0,0.0,0.0,0.0,0.0,0.0,0.0,0.0,0.0,0.0,0.0,0.0,0.0,0.0,0.0,0.0,0.0,0.0,0.0,0.0,0.0,0.0,0.0,0.0,0.0,0.0,0.0,0.0,0.0,0.0,0.0,0.0,0.0,0.0,0.0,0.0,0.0,0.0,0.0,0.0,0.0,0.0,0.0,0.0,0.0,0.0,0.0,0.0,0.0,0.0,0.0,0.0,0.0,0.0,0.0,0.0,0.0,0.0,0.0,0.0,0.0,0.0,0.0,0.0,0.0,0.0,0.0,0.0,0.0,0.0,0.0,0.0,0.0,0.0,0.0,0.0,0.0,0.0,0.0,0.0,0.0,0.0,0.0,0.0,0.0,0.0,0.0,0.0,0.0,0.0,0.0,0.0,0.0,0.0,0.0,0.0,0.0,0.0,0.0,0.0,0.0,0.0,0.0,0.0,0.0,0.0,0.0,0.0,0.0,0.0,0.0,0.0,0.0,0.0,0.0,0.0,0.0,0.0,0.0,0.0,0.0,0.0,0.0,0.0,0.0,0.0,0.0,0.0,0.0,0.0,0.0,0.0,0.0,0.0,0.0,0.0,0.0,0.0,0.0,0.0,0.0,0.0,0.0,0.0,0.0,0.0,0.0,0.0,0.0,0.0,0.0,0.0,0.0,0.0,0.0,0.0,0.0,0.0,0.0,0.0,0.0,0.0,0.0,0.0,0.0,0.0,0.0,0.0,0.0,0.0,0.0,0.0,0.0,0.0,0.0,0.0,0.0,0.0,0.0,0.0,0.0,0.0,0.0,0.0,0.0,0.0,0.0,0.0,0.0,0.0,0.0,0.0,0.0,0.0,0.0,0.0,0.0,0.0,0.0,0.0,0.0,0.0,0.0,0.0,0.0,0.0,0.0,0.0,0.0,0.0,0.0,0.0,0.0,0.0,0.0,0.0,0.0,0.0,0.0,0.0,0.0,0.0,0.0,0.0,0.0,0.0,0.0,0.0,0.0,0.0,0.0,0.0,0.0,0.0,0.0,0.0,0.0,0.0,0.0,0.0,0.0,0.0,0.0,0.0,0.0,0.0,0.0,0.0,0.0,0.0,0.0,0.0,0.0,0.0,0.0,0.0,0.0,0.0,0.0,0.0,0.0,0.0,0.0,0.0,0.0,0.0,0.0,0.0,0.0,0.0,0.0,0.0,0.0,0.0,0.0,0.0,0.0,0.0,0.0,0.0,0.0,0.0,0.0,0.0,0.0,0.0,0.0,0.0,0.0,0.0,0.0,0.0,0.0,0.0,0.0,0.0,0.0,0.0,0.0,0.0,0.0,0.0,0.0,0.0,0.0,0.0,0.0,0.0,0.0,0.0,0.0,0.0,0.0,0.0,0.0,0.0,0.0,0.0,0.0,0.0,0.0,0.0,0.0,0.0,0.0,0.0,0.0,0.0,0.0,0.0,0.0,0.0,0.0,0.0,0.0,0.0,0.0,0.0,0.0,0.0,0.0,0.0,0.0,0.0,0.0,0.0,0.0,0.0,0.0,0.0,0.0,0.0,0.0,0.0,0.0,0.0,0.0,0.0,0.0,0.0,0.0,0.0,0.0,0.0,0.0,0.0,0.0,0.0,0.0,0.0,0.0,0.0,0.0,0.0,0.0,0.0,0.0,0.0,0.0,0.0,0.0,0.0,0.0,0.0,0.0,0.0,0.0,0.0,0.0,0.0,0.0,0.0,0.0,0.0,0.0,0.0,0.0,0.0,0.0,0.0,0.0,0.0,0.0,0.0,0.0,0.0,0.0,0.0,0.0,0.0,0.0,0.0,0.0,0.0,0.0,0.0,0.0,0.0,0.0,0.0,0.0,0.0,0.0,0.0,0.0,0.0,0.0,0.0,0.0,0.0,0.0,0.0,0.0,0.0,0.0,0.0,0.0,0.0,0.0,0.0,0.0,0.0,0.0,0.0,0.0,0.0,0.0,0.0,0.0,0.0,0.0,0.0,0.0,0.0,0.0,0.0,0.0,0.0,0.0,0.0,0.0,0.0,0.0,0.0,0.0,0.0,0.0,0.0,0.0,0.0,0.0,0.0,0.0,0.0,0.0,0.0,0.0,0.0,0.0,0.0,0.0,0.0,0.0,0.0,0.0,0.0,0.0,0.0,0.0,0.0,0.0,0.0,0.0,0.0,0.0,0.0,0.0,0.0,0.0,0.0,0.0,0.0,0.0,0.0,0.0,0.0,0.0,0.0,0.0,0.0,0.0,0.0,0.0,0.0,0.0,0.0,0.0,0.0,0.0,0.0,0.0,0.0,0.0,0.0,0.0,0.0,0.0,0.0,0.0,0.0,0.0,0.0,0.0,0.0,0.0,0.0,0.0,0.0,0.0,0.0,0.0,0.0,0.0,0.0,0.0,0.0,0.0,0.0,0.0,0.0,0.0,0.0,0.0,0.0,0.0,0.0,0.0,0.0,0.0,0.0,0.0,0.0,0.0,0.0,0.0,0.0,0.0,0.0,0.0,0.0,0.0,0.0,0.0,0.0,0.0,0.0,0.0,0.0,0.0,0.0,0.0,0.0,0.0,0.0,0.0,0.0,0.0,0.0,0.0,0.0,0.0,0.0,0.0,0.0,0.0,0.0,0.0,0.0,0.0,0.0,0.0,0.0,0.0,0.0,0.0,0.0,0.0,0.0,0.0,0.0,0.0,0.0,0.0,0.0,0.0,0.0,0.0,0.0,0.0,0.0,0.0,0.0,0.0,0.0,0.0,0.0,0.0,0.0,0.0,0.0,0.0,0.0,0.0,0.0,0.0,0.0,0.0,0.0,0.0,0.0,0.0,0.0,0.0,0.0,0.0,0.0,0.0,0.0,0.0,0.0,0.0,0.0,0.0,0.0,0.0,0.0,0.0,0.0,0.0,0.0,0.0,0.0,0.0,0.0,0.0,0.0,0.0,0.0,0.0,0.0,0.0,0.0,0.0,0.0,0.0,0.0,0.0,0.0,0.0,0.0,0.0,0.0,0.0,0.0,0.0,0.0,0.0,0.0,0.0,0.0,0.0,0.0,0.0,0.0,0.0,0.0,0.0,0.0,0.0,0.0,0.0,0.0,0.0,0.0,0.0,0.0,0.0,0.0,0.0,0.0,0.0,0.0,0.0,0.0,0.0,0.0,0.0,0.0,0.0,0.0,0.0,0.0,0.0,0.0,0.0,0.0,0.0,0.0,0.0,0.0,0.0,0.0,0.0,0.0,0.0,0.0,0.0,0.0,0.0,0.0,0.0,0.0,0.0,0.0,0.0,0.0,0.0,0.0,0.0,0.0,0.0,0.0,0.0,0.0,0.0,0.0,0.0,0.0,0.0,0.0,0.0,0.0,0.0,0.0,0.0,0.0,0.0,0.0,0.0,0.0,0.0,0.0,0.0,0.0,0.0,0.0,0.0,0.0,0.0,0.0,0.0,0.0,0.0,0.0,0.0,0.0,0.0,0.0,0.0,0.0,0.0,0.0,0.0,0.0,0.0,0.0,0.0,0.0,0.0,0.0,0.0,0.0,0.0,0.0,0.0,0.0,0.0,0.0,0.0,0.0,0.0,0.0,0.0,0.0,0.0,0.0,0.0,0.0,0.0,0.0,0.0,0.0,0.0,0.0,0.0,0.0,0.0,0.0,0.0,0.0,0.0,0.0,0.0,0.0,0.0,0.0,0.0,0.0,0.0,0.0,0.0,0.0,0.0,0.0,0.0,0.0,0.0,0.0,0.0,0.0,0.0,0.0,0.0,0.0,0.0,0.0,0.0,0.0,0.0,0.0,0.0,0.0,0.0,0.0,0.0,0.0,0.0,0.0,0.0,0.0,0.0,0.0,0.0,0.0,0.0,0.0,0.0,0.0,0.0,0.0,0.0,0.0,0.0,0.0,0.0,0.0,0.0,0.0,0.0,0.0,0.0,0.0,0.0,0.0,0.0,0.0,0.0,0.0,0.0,0.0,0.0,0.0,0.0,0.0,0.0,0.0,0.0,0.0,0.0,0.0,0.0,0.0,0.0,0.0,0.0,0.0,0.0,0.0,0.0,0.0,0.0,0.0,0.0,0.0,0.0,0.0,0.0,0.0,0.0,0.0,0.0,0.0,0.0,0.0,0.0,0.0,0.0,0.0,0.0,0.0,0.0,0.0,0.0,0.0,0.0,0.0,0.0,0.0,0.0,0.0,0.0,0.0,0.0,0.0,0.0,0.0,0.0,0.0,0.0,0.0,0.0,0.0,0.0,0.0,0.0,0.0,0.0,0.0,0.0,0.0,0.0,0.0,0.0,0.0,0.0,0.0,0.0,0.0,0.0,0.0,0.0,0.0,0.0,0.0,0.0,0.0,0.0,0.0,0.0,0.0,0.0,0.0,0.0,0.0,0.0,0.0,0.0,0.0,0.0,0.0,0.0,0.0,0.0,0.0,0.0,0.0,0.0,0.0,0.0,0.0,0.0,0.0,0.0,0.0,0.0,0.0,0.0,0.0,0.0,0.0,0.0,0.0,0.0,0.0,0.0,0.0,0.0,0.0,0.0,0.0,0.0,0.0,0.0,0.0,0.0,0.0,0.0,0.0,0.0,0.0,0.0,0.0,0.0,0.0,0.0,0.0,0.0,0.0,0.0,0.0,0.0,0.0,0.0,0.0,0.0,0.0,0.0,0.0,0.0,0.0,0.0,0.0,0.0,0.0,0.0,0.0,0.0,0.0,0.0,0.0,0.0,0.0,0.0,0.0,0.0,0.0,0.0,0.0,0.0,0.0,0.0,0.0,0.0,0.0,0.0,0.0,0.0,0.0,0.0,0.0,0.0,0.0,0.0,0.0,0.0,0.0,0.0,0.0,0.0,0.0,0.0,0.0,0.0,0.0,0.0,0.0,0.0,0.0,0.0,0.0,0.0,0.0,0.0,0.0,0.0,0.0,0.0,0.0,0.0,0.0,0.0,0.0,0.0,0.0,0.0,0.0,0.0,0.0,0.0,0.0,0.0,0.0,0.0,0.0,0.0,0.0,0.0,0.0,0.0,0.0,0.0,0.0,0.0,0.0,0.0,0.0,0.0,0.0,0.0,0.0,0.0,0.0,0.0,0.0,0.0,0.0,0.0,0.0,0.0,0.0,0.0,0.0,0.0,0.0,0.0,0.0,0.0,0.0,0.0,0.0,0.0,0.0,0.0,0.0,0.0,0.0,0.0,0.0,0.0,0.0,0.0,0.0,0.0,0.0,0.0,0.0,0.0,0.0,0.0,0.0,0.0,0.0,0.0,0.0,0.0,0.0,0.0,0.0,0.0,0.0,0.0,0.0,0.0,0.0,0.0,0.0,0.0,0.0,0.0,0.0,0.0,0.0,0.0,0.0,0.0,0.0,0.0,0.0,0.0,0.0,0.0,0.0,0.0,0.0,0.0,0.0,0.0,0.0,0.0,0.0,0.0,0.0,0.0,0.0,0.0,0.0,0.0,0.0,0.0,0.0,0.0,0.0,0.0,0.0,0.0,0.0,0.0,0.0,0.0,0.0,0.0,0.0,0.0,0.0,0.0,0.0,0.0,0.0,0.0,0.0,0.0,0.0,0.0,0.0,0.0,0.0,0.0,0.0,0.0,0.0,0.0,0.0,0.0,0.0,0.0,0.0,0.0,0.0,0.0,0.0,0.0,0.0,0.0,0.0,0.0,0.0,0.0,0.0,0.0,0.0,0.0,0.0,0.0,0.0,0.0,0.0,0.0,0.0,0.0,0.0,0.0,0.0,0.0,0.0,0.0,0.0,0.0,0.0,0.0,0.0,0.0,0.0,0.0,0.0,0.0,0.0,0.0,0.0,0.0,0.0,0.0,0.0,0.0,-3.669,0.0,0.0,0.0,0.0,0.0,0.0,0.0,0.0,0.0,0.0,0.0,0.0,0.0,0.0,0.0,0.0,0.0,0.0,0.0,0.0,0.0,0.0,0.0,0.0,0.0,0.0,0.0,0.0,0.0,0.0,0.0,0.0,0.0,0.0,0.0,0.0,0.0,0.0,0.0,-1.7832,-2.3547,-2.9193,-2.1893,-1.8467,-1.8466,0.0,0.0,0.0,0.0,0.0,0.0,0.0,0.0,0.0,0.0,0.0,0.0,0.0,0.0,0.0,0.0,0.0,0.0,0.0,0.0,0.0,0.0,0.0,0.0,0.0,0.0,0.0,0.0,0.0,0.0,0.0,0.0,0.0,0.0,0.0,0.0,0.0,0.0,0.0,0.0,0.0,0.0,0.0,0.0,0.0,0.0,0.0,0.0,0.0,0.0,0.0,0.0,0.0,0.0,0.0,0.0,0.0,0.0,0.0,0.0,0.0,0.0,0.0,0.0,0.0,0.0,0.0,0.0,0.0,0.0,0.0,-3.8997,0.0,0.0,0.0,0.0,0.0,0.0,0.0,0.0,0.0,0.0,0.0,0.0,0.0,0.0,0.0,0.0,0.0,0.0,0.0,0.0,0.0,0.0,0.0,1.3033,0.9308,0.6315,0.3748,0.191,0.0,0.0,0.0,0.0,0.0,0.0,0.0,-1.1976,-1.6149,-1.7932,-2.5245,-2.9411,-3.0505,-3.0152,-2.9116,-2.7474,-2.5993,0.0,0.0,0.0,0.0,0.0,0.0,0.0,0.0,0.0,0.0,0.0,0.0,0.0,0.0,0.0,0.0,0.0,0.0,0.0,0.0,0.0,0.0,0.0,0.0,0.0,0.0,0.0,0.0,0.0,0.0,0.0,0.0,0.0,0.0,0.0,0.0,0.0,0.0,0.0,0.0,0.0,0.0,0.0,0.0,0.0,0.0,0.0,0.0,0.0,0.0,0.0,0.0,0.0,0.0,0.0,0.0,0.0,0.0,0.0,0.0,0.0,0.0,0.0,-4.1758,-4.1836,-4.1152,-4.1944,-4.2381,-4.249,-4.1749,-4.1834,-4.2415,-4.148,0.0,0.0,0.0,0.0,0.0,0.0,0.0,0.0,0.0,0.0,0.0,0.0,0.0,0.0,0.0,0.0,0.0,0.0,0.0,0.0,0.0,0.7654,0.3238,-0.2012,-0.3325,-0.3555,-0.2825,0.0,0.0,0.0,0.0,0.0,-2.0608,-2.2774,-2.4591,-2.6062,-2.8812,-3.0304,-3.0581,-3.0182,-2.9785,-2.9326,-2.8577,-2.7647,-2.6588,0.0,0.0,0.0,0.0,0.0,0.0,0.0,0.0,0.0,0.0,0.0,0.0,0.0,0.0,0.0,0.0,0.0,0.0,0.0,0.0,0.0,0.0,0.0,0.0,0.0,0.0,0.0,0.0,0.0,0.0,0.0,0.0,0.0,0.0,0.0,0.0,0.0,0.0,0.0,0.0,0.0,-3.6558,-3.8099,0.0,0.0,0.0,0.0,0.0,0.0,0.0,0.0,0.0,0.0,0.0,0.0,0.0,-3.9508,-4.0315,-4.12,-4.1643,-4.1662,-4.322,-4.3544,-4.281,-4.3618,-4.4071,-4.4187,-4.4048,0.0,-4.3182,-4.2232,0.0,0.0,0.0,0.0,0.0,0.0,0.0,0.0,0.0,0.0,0.0,0.0,0.0,0.0,0.0,0.0,0.0,0.0,0.0,0.0,0.0,-0.2663,-0.7101,-1.1286,-1.3782,-1.4965,-1.4487,-1.4924,0.0,0.0,0.0,-2.1258,-2.4222,-2.5853,-2.7542,-2.9302,-3.0029,-3.0469,-3.058,-3.0194,-2.9886,-2.9664,-2.9301,-2.8549,-2.7531,-2.7352,0.0,0.0,0.0,0.0,0.0,0.0,0.0,0.0,0.0,0.0,0.0,0.0,0.0,0.0,0.0,0.0,0.0,0.0,0.0,0.0,0.0,0.0,0.0,0.0,0.0,0.0,0.0,0.0,0.0,0.0,0.0,0.0,0.0,0.0,0.0,0.0,0.0,0.0,0.0,-3.4619,-3.7032,-3.7319,-3.7217,-3.6568,0.0,0.0,0.0,0.0,0.0,0.0,0.0,0.0,0.0,-4.0642,-4.1181,-4.1816,-4.2624,-4.3489,-4.3843,-4.3656,-4.4403,-4.4576,-4.423,-4.4595,-4.488,-4.5117,-4.5117,-4.4931,-4.4589,-4.383,-4.3308,-4.2894,0.0,0.0,0.0,0.0,-4.0513,-3.9843,0.0,0.0,0.0,0.0,0.0,0.0,0.0,0.0,0.0,0.0,0.0,0.0,-0.598,-1.1486,-1.6069,-1.9983,-2.2786,-2.4216,-2.3907,-2.4247,-2.3923,0.0,-2.4167,-2.4943,-2.485,-2.6715,-2.8645,-3.0601,-3.0468,-3.0465,-3.0594,-3.0144,-2.9845,-2.9683,-2.9323,-2.8672,-2.7897,-2.7893,-2.7118,-2.5895,0.0,0.0,0.0,0.0,0.0,0.0,0.0,0.0,0.0,0.0,0.0,0.0,0.0,0.0,0.0,0.0,0.0,0.0,0.0,0.0,0.0,0.0,0.0,0.0,0.0,0.0,0.0,0.0,0.0,0.0,0.0,0.0,0.0,0.0,0.0,0.0,0.0,-3.6146,-3.7933,-3.7688,-3.8417,-3.8325,0.0,0.0,0.0,0.0,0.0,0.0,-3.9931,-4.0508,-4.1335,-4.2412,-4.3066,-4.3797,-4.4624,-4.4975,-4.5036,-4.4794,-4.4478,-4.4341,-4.4341,-4.4426,-4.4592,-4.4842,-4.4914,-4.4951,-4.4966,-4.4938,-4.4799,-4.4528,-4.3876,-4.2701,-4.1528,-4.2586,-4.214,-4.1198,0.0,0.0,0.0,0.0,0.0,0.0,0.0,0.0,0.0,0.0,0.0,-0.2896,-1.1222,-1.584,-2.0929,-2.7375,-2.7835,-2.7342,-2.6388,-2.5763,-2.4847,-2.3499,-2.4436,-2.5001,-2.4979,-2.6891,-2.8772,-3.0595,-3.0472,-3.0468,-3.0586,-2.9979,-2.9713,-2.966,-2.8815,-2.825,-2.7915,-2.7906,-2.7428,-2.6573,-2.5696,0.0,0.0,0.0,0.0,0.0,0.0,0.0,0.0,0.0,0.0,0.0,0.0,0.0,0.0,0.0,0.0,0.0,0.0,0.0,0.0,0.0,0.0,0.0,0.0,0.0,0.0,0.0,0.0,0.0,0.0,0.0,0.0,0.0,0.0,0.0,0.0,0.0,0.0,-4.1222,-4.228,0.0,0.0,0.0,0.0,-3.991,-4.0241,-4.0796,-4.1643,-4.172,-4.2489,-4.4124,-4.422,-4.4662,-4.5528,-4.4499,-4.3977,-4.3956,-4.2796,-4.2257,-4.2257,-4.2591,-4.2735,-4.2774,-4.3096,-4.322,-4.3355,-4.4908,-4.5079,-4.4328,-4.4275,-4.3737,-4.2887,-4.2148,-4.1805,-4.161,0.0,0.0,0.0,0.0,0.0,0.0,0.0,0.0,0.1206,-0.4149,-0.5565,-0.9421,-1.8297,-2.1409,-2.4041,-2.7026,-2.7523,-2.7249,-2.6235,-2.6039,-2.5371,-2.407,-2.5065,-2.6067,-2.6992,-2.7294,-2.814,-2.9577,-2.9043,-2.8863,-2.8967,-2.8364,-2.8001,-2.7809,-2.7191,-2.6897,-2.6848,-2.7308,-2.7034,-2.6229,-2.5911,-2.5122,0.0,0.0,0.0,0.0,0.0,0.0,0.0,0.0,0.0,0.0,0.0,0.0,0.0,0.0,0.0,0.0,0.0,0.0,0.0,0.0,0.0,0.0,0.0,0.0,0.0,0.0,0.0,0.0,0.0,0.0,0.0,0.0,0.0,0.0,0.0,0.0,0.0,-4.003,-4.1241,0.0,-4.0155,-4.0981,-4.1625,-4.1645,-4.2964,-4.3912,-4.422,-4.4239,-4.4509,-4.5124,-4.4586,-4.4362,-4.4499,-4.3539,-4.2848,-4.2403,-4.1972,-4.1788,-4.1788,-4.2138,-4.2411,-4.262,-4.2961,-4.3104,-4.3126,-4.3503,-4.3618,-4.3547,-4.3515,-4.3015,-4.2283,-4.2547,-4.2157,-4.1495,0.0,0.0,0.0,0.0,0.0,0.0,0.0,0.0,-0.5514,-1.1226,-1.1382,-1.3833,-2.1401,-2.3361,-2.4791,-2.6445,-2.7007,-2.6885,-2.5957,-2.6058,-2.5464,-2.3993,-2.5101,-2.6287,-2.7509,-2.7387,-2.772,-2.8601,-2.8147,-2.7952,-2.7991,-2.7457,-2.7027,-2.668,-2.6146,-2.5795,-2.5634,-2.6216,-2.6269,-2.5961,-2.5615,-2.4917,-2.42,0.0,0.0,0.0,0.0,0.0,0.0,0.0,0.0,0.0,0.0,0.0,0.0,0.0,0.0,0.0,0.0,0.0,0.0,0.0,0.0,0.0,0.0,0.0,0.0,0.0,0.0,0.0,0.0,0.0,0.0,0.0,0.0,0.0,0.0,0.0,-4.0346,-3.9834,-4.144,-4.2073,-4.0739,-4.207,-4.3052,-4.3187,-4.4491,-4.5263,-4.5263,-4.5263,-4.5129,-4.4823,-4.4365,-4.3847,-4.3314,-4.2455,-4.1751,-4.1176,-4.082,-4.0622,-4.0632,-4.0956,-4.1216,-4.1449,-4.178,-4.1762,-4.1494,-4.1263,-4.1148,-4.1246,-4.2462,-4.2588,-4.2093,-4.239,-4.181,-4.0859,0.0,0.0,0.0,0.0,0.0,0.0,0.0,-1.2406,-1.0512,-1.2776,-1.364,-1.5723,-2.007,-2.1321,-2.31,-2.6155,-2.6564,-2.6359,-2.5661,-2.5804,-2.5123,-2.3352,-2.4491,-2.5544,-2.6408,-2.7081,-2.7543,-2.7748,-2.7853,-2.7852,-2.7714,-2.7381,-2.6931,-2.6392,-2.5702,-2.4996,-2.4331,-2.4559,-2.513,-2.575,-2.48,-2.4304,-2.4195,0.0,0.0,0.0,0.0,0.0,0.0,0.0,0.0,0.0,0.0,0.0,0.0,0.0,0.0,0.0,0.0,0.0,0.0,0.0,0.0,0.0,0.0,0.0,0.0,0.0,0.0,0.0,0.0,0.0,0.0,0.0,0.0,0.0,-3.7367,-3.9345,-4.0891,-4.1092,-4.3206,-4.4131,-4.2914,-4.3532,-4.4146,-4.4553,-4.458,-4.458,-4.4542,-4.4542,-4.4171,-4.3284,-4.3548,-4.3171,-4.2057,-4.1246,-4.0679,-4.0337,-3.9232,-3.8707,-3.8707,-3.8971,-3.908,-3.9069,-3.9419,-3.9112,-3.8361,-3.8362,-3.7872,-3.7521,-4.1053,-4.2425,-4.2324,-4.148,-4.0671,-3.9698,0.0,0.0,0.0,0.0,0.0,0.0,0.0,-1.1808,-1.3955,-1.2064,-1.1573,-1.2873,-1.6612,-1.8078,-1.9733,-2.2048,-2.3069,-2.3706,-2.3937,-2.3969,-2.4182,-2.4629,-2.4343,-2.5045,-2.6952,-2.6376,-2.6228,-2.6632,-2.6286,-2.6111,-2.6122,-2.5699,-2.5148,-2.4509,-2.3742,-2.3141,-2.2621,-2.1941,-2.1911,-2.2404,-2.3835,-2.4402,-2.4327,0.0,0.0,0.0,0.0,0.0,0.0,0.0,0.0,0.0,0.0,0.0,0.0,0.0,0.0,0.0,0.0,0.0,0.0,0.0,0.0,0.0,0.0,0.0,0.0,0.0,0.0,0.0,0.0,0.0,0.0,0.0,0.0,-3.7305,-3.8188,-4.0151,-4.1529,-4.1618,-4.2564,-4.3122,-4.2777,-4.349,-4.4046,-4.4146,-4.4447,-4.4322,-4.37,-4.3662,-4.3284,-4.2478,-4.1945,-4.1429,-4.0854,-4.0031,-3.9444,-3.9165,-3.886,-3.8707,-3.8707,-3.8971,-3.8763,-3.8249,-3.8578,-3.8263,-3.7511,-3.7276,-3.7033,-3.6953,-3.8203,-3.869,-3.8669,-3.8403,-3.8037,-3.751,0.0,0.0,0.0,0.0,0.0,0.0,0.0,-0.6996,-0.9366,-0.8706,-0.8412,-0.9365,-1.2168,-1.3326,-1.4778,-1.6969,-1.8506,-1.9792,-2.0849,-2.1945,-2.294,-2.375,-2.3767,-2.4389,-2.5691,-2.5336,-2.5288,-2.5611,-2.5382,-2.5254,-2.5207,-2.4818,-2.415,-2.3253,-2.2427,-2.1672,-2.0949,-2.0139,-1.9792,-1.9936,-2.1553,-2.2787,-2.3707,-2.4341,-2.5357,-2.6556,-2.7012,-2.711,-2.7114,-2.7211,0.0,0.0,0.0,0.0,0.0,0.0,0.0,0.0,0.0,0.0,0.0,0.0,0.0,0.0,0.0,0.0,0.0,0.0,0.0,0.0,0.0,0.0,0.0,0.0,-3.5383,-3.7582,-3.8628,-4.0314,-4.1534,-4.175,-4.1836,-4.192,-4.2132,-4.2664,-4.2908,-4.2791,-4.3297,-4.3276,-4.2417,-4.238,-4.2006,-4.1212,-4.0813,-4.0341,-3.9703,-3.9305,-3.8961,-3.8707,-3.8707,-3.8524,-3.8193,-3.8366,-3.7988,-3.7256,-3.7448,-3.7063,-3.6254,-3.6073,-3.5781,0.0,0.0,0.0,0.0,0.0,-3.6274,-3.5925,0.0,0.0,0.0,0.0,0.0,0.0,0.0,0.0577,-0.0343,-0.3799,-0.462,-0.5549,-0.7215,-0.7736,-0.8935,-1.1296,-1.3309,-1.53,-1.7283,-1.9826,-2.1313,-2.1494,-2.2588,-2.33,-2.3481,-2.4052,-2.4448,-2.4626,-2.4923,-2.4974,-2.4788,-2.4484,-2.3695,-2.2504,-2.1578,-2.0462,-1.9266,-1.8691,-1.8148,-1.7739,-1.8406,-2.0156,-2.2585,-2.421,-2.5382,-2.6335,-2.7207,-2.753,-2.7757,-2.9023,0.0,0.0,0.0,0.0,0.0,0.0,0.0,0.0,0.0,0.0,0.0,0.0,0.0,0.0,0.0,0.0,0.0,0.0,0.0,0.0,0.0,0.0,0.0,0.0,-3.5979,-3.7925,-3.8701,-3.9716,-4.0701,-4.1411,-4.0895,-4.0646,-4.104,-4.1248,-4.127,-4.1049,-4.1721,-4.1809,-4.102,0.0,0.0,0.0,0.0,-3.9645,-3.8707,-3.8952,-3.8952,-3.8707,-3.8615,-3.8193,-3.7507,-3.7404,-3.6909,-3.6156,-3.6156,-3.5661,-3.4844,-3.4844,-3.4394,-3.3825,-3.557,-3.6281,-3.6269,-3.5455,-3.5032,-3.477,0.0,0.0,0.0,0.0,0.0,0.0,0.0,0.8339,0.4277,0.0448,-0.1178,-0.2167,-0.2876,-0.2979,-0.3862,-0.5984,-0.8763,-1.207,-1.5982,-1.7702,-1.8836,-1.9522,-2.0107,-2.0939,-2.2149,-2.261,-2.3111,-2.3671,-2.4473,-2.4841,-2.4794,-2.4194,-2.3308,-2.2142,-2.0837,-1.925,-1.753,-1.649,-1.5484,-1.4616,-1.5137,-1.7697,-2.1225,-2.2072,-2.3336,-2.4721,-2.5512,-2.6403,-2.7328,-2.8184,-2.9126,-3.0021,-3.0509,-3.1325,0.0,0.0,0.0,0.0,0.0,0.0,0.0,0.0,0.0,0.0,0.0,0.0,0.0,0.0,0.0,0.0,0.0,0.0,0.0,-3.4353,-3.5887,-3.7158,-3.7939,-3.7767,-3.8091,-3.9384,-3.9271,-3.9103,-3.9231,-4.0003,-4.051,-4.0456,-4.1003,-4.0983,-4.0175,-4.012,-3.9753,-3.8964,-3.897,-3.8897,-3.8707,-3.8732,-3.8732,-3.8689,0.0,0.0,-3.7489,-3.6817,-3.6064,-3.5247,-3.5247,-3.4798,-3.4027,-3.4027,-3.3568,-3.2871,-3.3254,-3.3784,-3.4242,-3.3456,-3.3526,-3.4009,0.0,0.0,0.0,0.0,0.0,0.0,0.0,1.0699,0.6389,0.2626,0.119,0.0742,0.13,0.2272,0.2027,0.0046,-0.45,-0.9126,-1.3512,-1.5233,-1.6269,-1.6744,-1.7514,-1.8447,-1.9521,-2.0353,-2.1406,-2.274,-2.3762,-2.3975,-2.3446,-2.289,-2.159,-1.9625,-1.8173,-1.6517,-1.4647,-1.3535,-1.2521,-1.171,-1.2508,-1.4335,-1.6835,-1.9265,-2.0751,-2.1739,-2.3201,-2.4456,-2.5591,-2.7018,-2.8408,-2.9756,-3.1154,-3.2239,-3.2795,0.0,0.0,0.0,0.0,0.0,0.0,0.0,0.0,0.0,0.0,0.0,0.0,0.0,0.0,-3.1671,0.0,0.0,-3.3563,-3.4912,-3.5554,-3.6228,-3.7094,-3.6625,-3.6773,-3.8234,-3.7679,-3.7422,-3.8036,-3.8608,-3.8887,-3.8777,-3.9588,-3.9738,-3.8937,-3.9132,-3.9129,-3.8707,-3.8707,-3.8707,-3.8707,-3.8707,-3.8487,-3.8095,-3.7709,-3.7055,-3.6248,-3.5816,-3.5174,-3.4412,-3.4412,-3.4174,-3.3807,-3.3807,-3.333,-3.2533,-3.1981,-3.2099,-3.2596,-3.261,-3.247,-3.2346,0.0,0.0,0.0,0.0,0.0,0.0,0.0,0.9784,0.6317,0.323,0.2519,0.3044,0.4907,0.6894,0.7054,0.4458,-0.1056,-0.6192,-1.04,-1.2433,-1.3498,-1.3527,-1.4698,-1.5576,-1.61,-1.7119,-1.8459,-2.0172,-2.0451,-2.0133,-1.918,-1.8588,-1.7029,-1.4689,-1.3704,-1.2323,-1.072,-0.9657,-0.8811,-0.8216,-0.8827,-0.9547,-1.0604,-1.4099,-1.6774,-1.8877,-2.0772,-2.2009,-2.3076,-2.4883,-2.6847,-2.89,-3.0869,-3.233,-3.2972,-3.1248,-3.1239,0.0,0.0,0.0,0.0,0.0,0.0,0.0,0.0,-2.9685,-2.9724,-3.0963,-3.1789,-3.2413,-3.2894,-3.2944,-3.3328,-3.4691,-3.4792,-3.4971,-3.5689,-3.5355,-3.5488,-3.6744,-3.5938,-3.5699,-3.6818,-3.7077,-3.7158,-3.704,-3.8076,-3.8456,-3.7791,-3.815,-3.8401,-3.8401,-3.825,-3.8186,-3.8187,-3.8028,-3.7631,-3.6985,-3.6838,-3.6051,-3.4739,-3.4576,-3.4101,-3.3331,-3.3276,-3.3258,-3.324,-3.323,-3.2745,-3.1934,-3.113,-3.0767,-3.0808,-3.1616,-3.1419,-3.0776,0.0,0.0,0.0,0.0,0.0,0.0,0.0,0.0,0.3094,0.1626,0.2462,0.4304,0.7376,0.9575,0.8898,0.4101,0.0399,-0.3179,-0.686,-0.9008,-1.0132,-1.0142,-1.1243,-1.1902,-1.1993,-1.2294,-1.2699,-1.3208,-1.0819,-0.9405,-0.8837,-0.7472,-0.6381,-0.5612,-0.6393,-0.6092,-0.489,-0.4177,-0.3513,-0.2831,-0.1734,-0.1696,-0.2464,-0.3273,-0.9494,-1.7796,-1.8452,-1.9206,-2.0059,-2.0599,-2.3817,-2.7629,-2.7559,-2.9399,-3.1246,-2.9562,-2.8688,-2.7798,-2.557,-2.4775,-2.5304,-2.8152,-2.7939,-2.8137,0.0,-3.1781,-3.0639,-3.1367,-3.2056,-3.2397,-3.1848,-3.227,-3.268,-3.2857,-3.2892,-3.2927,-3.3064,-3.2767,-3.2791,-3.3561,-3.3764,-3.413,-3.4835,-3.5341,-3.5875,-3.6471,-3.7044,-3.7374,-3.7285,-3.734,-3.7377,-3.7377,-3.6667,-3.6314,-3.6297,-3.5641,-3.5295,-3.5186,-3.4485,-3.4009,-3.3827,-3.311,-3.2374,-3.1655,-3.1356,-3.122,-3.1202,-3.1203,-3.0724,-2.9953,-3.0252,-2.9518,-2.8382,-2.9183,-2.9876,-3.0376,0.0,0.0,0.0,0.0,0.0,0.0,0.0,0.0,0.0,-0.253,-0.0615,0.2205,0.5795,0.888,0.9404,0.6042,0.2682,-0.0737,-0.4328,-0.5841,-0.6571,-0.6519,-0.6962,-0.6996,-0.6493,-0.6842,-0.7058,-0.7044,-0.524,-0.3724,-0.2511,-0.1318,-0.0067,0.1108,0.0423,0.0509,0.1128,0.1099,0.1277,0.1618,0.2258,0.294,0.3926,0.6597,0.4867,0.01,-0.655,-0.9011,0.0,-0.9123,-1.1541,-1.4793,-1.6345,-1.9527,-2.2679,-2.269,-2.3789,-2.4841,-2.4081,-2.3601,-2.3854,-2.6018,-2.6673,-2.731,-2.9548,-2.9171,-2.8621,-2.9658,-2.9894,-2.9939,-2.9896,-2.9954,-3.0324,0.0,-3.1459,-3.1477,-3.2089,-3.1652,-3.1668,-3.2458,-3.1842,-3.2048,-3.3874,-3.457,-3.5068,-3.5301,-3.6208,-3.6721,-3.6721,-3.7044,-3.6986,-3.6514,-3.6167,-3.5767,-3.535,-3.5066,-3.4674,-3.4204,-3.3842,-3.3455,-3.2983,-3.2195,-3.1462,-3.0752,-3.0614,-3.0277,-2.9893,-3.0355,-3.0067,-2.9303,-2.9269,-2.8824,-2.832,-2.8903,-2.8888,-2.8529,0.0,0.0,0.0,0.0,0.0,0.0,0.0,0.0,0.0,0.0,-0.3571,0.0293,0.5047,0.8105,0.9151,0.7512,0.4594,0.1511,-0.1517,-0.245,-0.2882,-0.2801,-0.2462,-0.1842,-0.1073,-0.0879,-0.0599,-0.0086,0.1905,0.3667,0.5246,0.6311,0.747,0.8587,0.771,0.7344,0.7399,0.6913,0.6683,0.6684,0.6957,0.7735,0.9094,1.2851,1.4391,1.3543,0.565,0.3186,0.3433,0.2126,-0.0086,-0.2939,-0.6456,-1.0784,-1.4832,-1.6235,-1.8685,-2.1055,-2.1368,-2.1538,-2.2018,-2.3694,-2.5004,-2.5896,-2.6332,-2.6101,-2.6044,-2.6819,-2.6834,-2.683,-2.7201,-2.7311,-2.7883,-2.9806,-3.0099,-3.0291,-3.133,-3.111,-3.1029,-3.171,-3.0613,-3.0623,-3.2695,-3.3509,-3.4099,-3.4559,-3.54,-3.5982,-3.618,-3.6364,-3.6189,-3.5597,-3.5186,-3.4728,-3.4202,-3.398,-3.3606,-3.3002,-3.2815,-3.2492,-3.2109,-3.1164,-3.0467,-2.9917,-2.9607,-2.9145,-2.8631,-2.9242,-2.9119,-2.8564,-2.8163,-2.7987,-2.8021,-2.8337,-2.7875,-2.712,0.0,0.0,0.0,0.0,0.0,0.0,0.0,0.0,0.0,0.0,0.0,0.0,0.0,0.821,0.8351,0.7651,0.5601,0.3664,0.2138,0.1366,0.0927,0.0927,0.2255,0.3276,0.3894,0.5698,0.7182,0.8218,1.2487,1.5167,1.6347,1.7618,1.8127,1.7892,1.5792,1.4536,1.4006,1.3656,1.328,1.2993,1.3726,1.3615,1.3104,1.3971,1.4718,1.5318,1.5624,1.6303,1.6203,1.1029,0.7301,0.4035,-0.0882,-0.577,-1.0072,-1.1957,-1.3993,-1.5912,-1.7064,-1.7969,-1.9308,-2.2051,-2.3178,-2.3682,-2.4015,-2.386,-2.3419,-2.276,-2.3139,-2.363,-2.3626,-2.4589,-2.5871,-2.7734,-2.853,-2.9359,-3.0483,-3.0764,-3.0769,-3.0665,-3.0129,-3.0138,0.0,-3.1772,-3.2828,-3.4464,-3.461,-3.4958,-3.5594,-3.4972,-3.459,-3.4566,-3.3186,-3.2419,-3.2364,-3.1674,-3.1314,-3.128,-3.0527,-3.0583,-3.1201,-2.9747,-2.904,-2.8972,-2.7878,-2.7385,-2.7367,-2.7384,-2.7368,-2.7334,-2.6894,-2.6742,-2.6759,-2.6759,-2.6742,-2.6725,0.0,0.0,0.0,0.0,0.0,0.0,0.0,0.0,0.0,0.0,0.0,0.0,0.0,0.0,0.0,0.0,0.7878,0.6791,0.5774,0.5002,0.4839,0.5324,0.6228,0.7461,0.8969,1.0749,1.2544,1.4389,1.7573,1.9715,2.0808,2.1959,2.233,2.199,2.0511,1.9302,1.8362,1.776,1.7506,1.7487,1.6952,1.7178,1.7855,1.7688,1.8007,1.8672,0.0,1.8887,1.7639,1.7083,1.5197,1.2364,0.8144,0.3133,-0.2337,-0.8174,-1.1214,-1.2924,-1.4075,-1.5464,-1.7072,-1.9068,-1.9694,-1.9943,-2.0373,-2.0089,-1.9752,-1.9282,-1.9172,-1.9311,-1.9683,-2.169,-2.404,-2.6294,-2.8464,-3.0246,-3.1276,-3.1459,-3.1709,-3.2261,-3.1638,0.0,0.0,0.0,0.0,-3.3208,-3.3686,-3.4037,-3.4252,-3.4072,-3.3881,-3.3818,-3.2889,-3.2347,-3.2309,-3.1556,-3.119,-3.119,-3.0942,-3.0449,-2.9702,-2.9221,-2.8441,-2.747,-2.708,-2.6911,-2.6911,-2.6911,-2.6911,-2.6911,-2.6759,-2.6691,-2.6691,-2.6691,-2.6691,-2.664,0.0,0.0,0.0,0.0,0.0,0.0,0.0,0.0,0.0,0.0,0.0,0.0,0.0,0.0,0.0,0.0,0.0,0.9249,0.9003,0.8548,0.849,0.8938,1.0189,1.1553,1.3078,1.5061,1.6957,1.8728,2.0911,2.2583,2.3795,2.4677,2.4978,2.4752,2.3898,2.3004,2.2049,2.139,2.1103,2.0974,2.0144,2.0311,2.102,2.0744,2.1003,0.0,2.2031,2.107,1.9725,2.0837,1.9213,1.6121,1.2527,0.6303,-0.0761,-0.6395,-0.9123,-1.058,-1.1671,-1.2962,-1.438,-1.5924,-1.635,-1.6415,-1.6382,-1.6094,-1.5854,-1.5673,-1.5599,-1.5948,-1.689,-1.9629,-2.2339,-2.4503,-2.7316,-2.9714,-3.1092,-3.0979,-3.1278,-3.2939,-3.2082,-3.2044,0.0,0.0,0.0,-3.2886,-3.3341,-3.3577,-3.3598,-3.3102,-3.2854,-3.2793,-3.2052,-3.1613,-3.1613,-3.1331,-3.105,-3.0825,-3.083,-3.0165,-2.9011,-2.8691,-2.8031,-2.708,-2.6639,-2.6434,-2.6434,-2.6227,-2.6144,-2.6147,-2.6147,-2.6031,-2.5815,-2.5815,-2.5664,-2.5497,0.0,0.0,0.0,0.0,0.0,0.0,0.0,0.0,0.0,0.0,0.0,0.0,0.0,0.0,0.0,0.0,0.0,0.0,1.1728,1.1833,1.1842,1.1881,1.4072,1.5575,1.616,1.8641,2.04,2.1416,2.2747,2.4151,2.5549,2.6115,2.6387,2.6405,2.6124,2.5658,2.5043,2.4587,2.4111,2.3736,2.3406,2.3106,2.2881,2.3134,2.3519,2.3912,2.3636,2.3164,2.2578,2.2201,1.9101,1.4879,1.1728,0.3733,-0.477,-0.6412,-0.765,-0.8726,-0.9732,-1.0417,-1.1284,-1.2693,-1.3193,-1.3069,-1.2302,-1.1933,-1.1752,-1.1922,-1.2457,-1.339,-1.5054,-1.8072,-2.0797,-2.2456,-2.5347,-2.8067,-3.0207,-2.9565,-2.9905,0.0,0.0,0.0,0.0,0.0,0.0,-3.3361,0.0,-3.3458,-3.3475,-3.2171,-3.1482,-3.1491,-3.0697,-3.0269,-3.0285,-3.083,-3.0746,-2.9995,-3.0015,-2.9621,-2.8856,-2.8066,-2.7691,-2.7589,-2.6452,-2.5959,-2.5905,-2.5422,-2.5191,-2.5151,-2.5167,-2.4749,-2.4153,-2.417,-2.3744,-2.3537,0.0,0.0,0.0,0.0,0.0,0.0,0.0,0.0,0.0,0.0,0.0,0.0,0.0,0.0,0.0,0.0,0.0,0.0,1.4398,1.4841,1.5223,1.5545,1.6784,1.789,1.8812,2.0589,2.1928,2.2782,2.424,2.5342,2.6119,2.7004,2.7133,2.6646,2.7166,2.6898,2.6075,2.6431,2.6821,2.7127,2.6048,2.5932,2.6303,2.5554,2.5359,2.5429,2.472,2.3321,2.1516,1.9594,1.3368,0.5848,0.2568,-0.1675,-0.5571,-0.6199,-0.6851,-0.7326,-0.7121,-0.7892,-0.8688,-0.8684,-0.8635,-0.8431,-0.7468,-0.78,-0.8218,-0.7973,-0.874,-1.0116,-1.2135,-1.582,-1.958,-2.2566,-2.638,0.0,-3.1743,-3.1775,0.0,-3.2616,0.0,-3.2036,-3.2093,-3.2725,0.0,0.0,-3.239,-3.2551,-3.2079,-3.1226,-3.1014,-3.156,-3.0331,-2.9956,-3.0421,-3.006,-2.9507,-2.8825,-2.8844,-2.8197,-2.6989,-2.6768,-2.6365,-2.5859,-2.554,-2.5384,-2.5384,-2.5275,-2.4922,-2.4429,-2.4447,-2.4056,-2.3439,-2.3462,-2.3349,-2.3291,0.0,0.0,0.0,0.0,0.0,0.0,0.0,0.0,0.0,0.0,0.0,0.0,0.0,0.0,0.0,0.0,0.0,0.0,0.0,1.7183,1.7504,1.7712,1.8924,1.992,2.0568,2.2495,2.3581,2.3749,2.5527,2.6593,2.6924,2.7592,2.7892,2.7923,2.7995,2.7903,2.769,2.7969,2.8313,0.0,0.0,2.755,2.7742,2.7272,2.7232,2.7213,2.5628,2.1463,1.6186,1.2794,0.7244,0.1049,-0.2977,-0.5213,-0.628,-0.5799,-0.5848,-0.5911,-0.4908,-0.4989,-0.5196,-0.4706,-0.437,-0.4068,-0.3944,-0.4335,-0.4919,-0.5625,-0.6539,-0.784,-0.9795,-1.429,-1.8353,-2.0149,0.0,0.0,-3.0353,-3.0571,-3.1142,0.0,-3.2246,0.0,-3.215,-3.237,-3.2103,0.0,-3.1959,-3.2105,-3.112,-3.0447,-3.0036,-2.9852,-2.9046,-2.8951,-2.9588,-2.8877,-2.8474,-2.8407,-2.7753,-2.7057,-2.6286,-2.5651,-2.5163,-2.4735,0.0,-2.397,-2.3954,-2.374,-2.346,-2.3117,-2.3095,-2.2683,-2.2087,-2.2108,-2.1921,-2.1666,0.0,0.0,0.0,0.0,0.0,0.0,0.0,0.0,0.0,0.0,0.0,0.0,0.0,0.0,0.0,0.0,0.0,0.0,0.0,0.0,1.9112,1.917,2.0671,2.1597,2.1839,2.4078,2.4967,2.4388,2.6469,2.7498,2.7561,2.7854,2.8401,2.9124,2.849,2.85,2.8996,2.9043,2.8976,2.8848,2.875,2.8509,2.8203,0.0,2.8908,2.8777,2.559,1.8455,0.9731,0.4984,0.1649,-0.1253,-0.56,-0.687,-0.6531,-0.5154,-0.477,-0.4422,-0.2904,-0.2158,-0.1559,-0.0967,-0.0454,-0.0153,-0.0819,-0.1189,-0.1921,-0.3864,-0.4883,-0.5949,-0.786,-1.2636,-1.6369,-1.6784,0.0,-2.6012,-2.746,-2.7818,-2.899,-3.1889,-3.1502,-3.1268,-3.1954,-3.1688,-3.1184,-3.0369,-3.1319,-3.1471,-3.0398,-2.9635,-2.8644,-2.735,-2.7284,-2.7494,-2.801,-2.7458,-2.7434,-2.7889,-2.6667,-2.5973,-2.5774,-2.4563,-2.3964,-2.3802,-2.2738,-2.2308,-2.2262,-2.1862,-2.165,-2.156,-2.156,-2.1156,-2.0572,-2.0572,-2.0198,-1.969,0.0,0.0,0.0,0.0,0.0,0.0,0.0,0.0,0.0,0.0,1.4953,1.8184,0.0,0.0,0.0,0.0,0.0,0.0,0.0,0.0,0.0,2.1085,2.1922,2.2613,2.3169,2.4301,2.4865,2.4886,2.6136,2.6771,2.6809,2.7621,2.7733,2.7304,2.7924,2.7868,2.7414,2.8827,2.9306,2.9186,2.9697,2.9803,2.9652,2.983,0.0,0.0,2.1961,1.536,0.8985,0.3162,-0.0634,-0.3192,-0.4769,-0.5269,-0.5157,-0.4389,-0.3652,-0.2757,-0.0967,-0.042,0.0212,0.2452,0.2627,0.2331,0.3039,0.1934,0.0504,-0.0477,-0.1611,-0.3209,-0.5907,-0.8566,-1.1684,-1.5548,-1.836,-2.164,-2.5958,-2.6593,-2.7512,0.0,-3.0126,-2.9767,-2.8991,-2.944,0.0,0.0,-2.8447,-2.9122,-2.9479,-2.7914,-2.6681,-2.5989,-2.5918,-2.5982,-2.6089,-2.5967,-2.5682,-2.5261,-2.4979,-2.4329,-2.334,-2.3051,-2.267,-2.2134,-2.1896,0.0,-2.1838,-2.1734,-2.138,-2.0887,-2.0887,-2.0468,-1.9869,-1.9869,-1.9794,-1.969,0.0,0.0,0.0,0.0,0.0,0.0,0.0,-0.2319,0.0182,0.4503,0.9421,1.4908,2.1208,2.2357,0.0,0.0,0.0,0.0,0.0,0.0,0.0,0.0,0.0,0.0,2.3737,2.4841,2.5286,2.501,0.0,2.7073,2.666,2.7113,2.7398,2.7532,2.7537,2.7539,2.7636,2.8474,2.872,2.8637,2.9382,2.9634,2.9634,0.0,0.0,0.0,0.0,1.4859,0.975,0.4713,0.171,-0.0409,-0.3398,-0.3748,-0.2875,-0.212,-0.1332,-0.0201,0.1563,0.2734,0.383,0.5688,0.5795,0.5365,0.4913,0.3455,0.1776,0.0383,-0.0827,-0.2203,-0.4151,-0.6929,-0.9891,-1.2807,-1.6381,-1.9932,-2.3018,-2.4551,-2.6043,-2.7866,-2.8094,-2.798,-2.7729,-2.7494,-2.7251,-2.6713,-2.6291,-2.6391,-2.7272,-2.5547,-2.4362,-2.4105,-2.4069,-2.4246,-2.4626,-2.4566,-2.4594,-2.4587,-2.3941,-2.3275,-2.2699,-2.1973,-2.1482,-2.1162,-2.0805,-2.0647,-2.0647,-2.0647,-2.0468,-2.0183,-2.0183,-1.9974,-1.969,-1.969,-1.969,-1.969,0.0,0.0,0.0,0.0,0.0,0.0,0.0,-0.5358,-0.4605,-0.1467,0.2839,0.9581,2.0076,2.2591,2.3361,0.0,0.0,0.0,0.0,0.0,0.0,0.0,0.0,0.0,0.0,0.0,0.0,2.501,2.6779,0.0,0.0,0.0,0.0,0.0,2.709,2.7145,2.7656,2.7849,2.7852,0.0,0.0,2.9166,0.0,0.0,0.0,0.0,0.0,1.5516,1.1303,0.7275,0.5318,0.377,-0.047,-0.106,-0.0067,0.0601,0.1467,0.2538,0.4102,0.5666,0.7127,0.8393,0.8382,0.7668,0.6121,0.4229,0.2325,0.0366,-0.0652,-0.163,-0.286,-0.5666,-0.828,-1.0015,-1.413,-1.7826,-2.0136,-2.2102,-2.4158,-2.6257,-2.6155,0.0,-2.6759,-2.5803,0.0,-2.555,-2.4001,-2.3579,-2.4751,-2.3492,-2.263,-2.2505,-2.2503,-2.2756,-2.3286,-2.3198,-2.3477,-2.3978,-2.2939,-2.2419,-2.2227,-2.1198,-2.063,-2.0466,-1.9933,-1.969,-1.969,-1.969,-1.969,-1.969,-1.969,-1.969,-1.969,-1.9566,-1.953,-1.953,0.0,0.0,0.0,0.0,0.0,0.0,0.0,-0.9182,-0.8228,-0.3488,-0.0752,0.4499,1.4395,1.9119,2.1922,0.0,0.0,0.0,0.0,0.0,0.0,0.0,0.0,0.0,0.0,0.0,0.0,2.501,2.6214,0.0,0.0,0.0,0.0,0.0,0.0,2.6389,2.5898,2.6679,0.0,0.0,0.0,0.0,0.0,0.0,0.0,0.0,0.0,1.6764,1.3461,0.9717,0.821,0.7626,0.5782,0.4383,0.3418,0.342,0.4164,0.5119,0.6089,0.6995,0.8213,1.0296,0.937,0.7726,0.7064,0.4771,0.2227,0.037,-0.0064,-0.0733,-0.2765,-0.3514,-0.5068,-0.8522,-1.0485,-1.3351,-1.8463,-1.9355,-2.1204,-2.5904,0.0,0.0,-2.5152,-2.4419,-2.3478,-2.247,-2.1032,-2.0911,-2.2587,-2.2682,-2.2436,-2.1807,-2.1806,-2.1804,-2.1888,-2.1888,-2.1903,-2.1975,-2.1849,-2.1476,-2.087,-2.0757,-2.037,-1.9771,-1.9741,-1.969,0.0,-1.969,-1.969,-1.969,-1.969,-1.969,-1.9639,-1.9169,-1.8968,-1.8893,0.0,0.0,0.0,0.0,0.0,0.0,-0.5562,-0.6719,-0.6635,-0.4582,-0.0294,0.5094,1.1741,1.6676,2.0272,0.0,0.0,0.0,0.0,0.0,0.0,0.0,0.0,0.0,0.0,0.0,2.4603,2.5598,2.618,0.0,0.0,0.0,0.0,0.0,0.0,2.6277,2.556,2.5952,0.0,0.0,0.0,0.0,0.0,0.0,0.0,0.0,0.0,0.0,1.4486,1.2003,1.1095,1.0663,0.904,0.8777,0.851,0.6,0.6059,0.7297,0.8859,1.0447,1.205,1.4048,1.2822,1.0783,0.9575,0.6548,0.3364,0.1125,0.0695,0.0206,-0.1833,-0.2892,-0.436,-0.725,-0.9425,-1.2104,-1.5793,-1.711,-1.904,-2.2676,-2.2335,0.0,0.0,0.0,-2.1919,-2.1192,-2.029,-1.995,-2.0389,-2.0608,-2.069,-2.057,-2.0961,-2.1015,-2.0681,-2.1024,-2.1216,-2.1216,-2.0803,-2.0645,-2.0676,-2.0288,-1.9948,-1.969,-1.969,-1.969,0.0,-1.9369,-1.9207,-1.9207,-1.8855,-1.8727,-1.8688,-1.8496,-1.8419,-1.838,0.0,0.0,0.0,0.0,0.0,-0.0629,-0.2106,-0.3063,-0.3357,-0.277,0.1821,0.6819,1.1599,1.5915,1.9273,2.1274,0.0,0.0,0.0,0.0,0.0,0.0,0.0,0.0,0.0,0.0,2.4634,2.5904,2.6124,2.6651,0.0,0.0,2.7248,2.6211,0.0,0.0,0.0,0.0,0.0,0.0,0.0,0.0,0.0,0.0,0.0,0.0,0.0,0.0,0.0,0.0,0.0,1.2306,1.093,1.1326,0.0,0.8494,0.8469,0.9888,1.1607,1.358,1.5638,1.7243,1.5751,1.3355,1.17,0.8137,0.4414,0.1656,0.1181,0.0697,-0.1235,-0.2582,-0.4181,-0.6508,-0.9003,-1.1565,-1.4226,-1.5762,-1.7515,-1.997,0.0,-2.0462,0.0,-2.0807,-2.0088,-1.987,-1.9308,-1.8957,-1.8696,-1.8724,-1.8927,-1.9214,-1.99,-1.9989,-1.9455,-1.9865,-2.0076,-2.0062,-1.9597,-1.9583,-1.9938,-1.9435,-1.9332,-1.9442,-1.9281,-1.9406,0.0,-1.8968,-1.8765,-1.8855,-1.8302,-1.8106,-1.8066,-1.7907,-1.7867,-1.7827,0.0,0.0,0.0,0.0,0.0,0.0,0.1874,0.0994,0.1045,0.2805,0.5321,0.8936,1.4106,1.7186,1.9169,1.9871,0.0,0.0,0.0,0.0,0.0,0.0,0.0,0.0,0.0,0.0,2.4561,2.5706,2.597,2.6192,2.6333,2.7273,2.6734,2.5068,0.0,0.0,0.0,0.0,0.0,0.0,0.0,0.0,0.0,0.0,0.0,0.0,0.0,0.0,0.0,0.0,0.0,0.0,0.0,0.0,0.0,0.0,1.1797,1.3146,1.4045,1.6033,1.8205,1.9465,1.7507,1.4777,1.2918,0.9054,0.4997,0.1737,0.1181,0.0697,-0.1235,-0.2518,-0.4131,-0.6514,-0.8849,-1.1376,-1.4186,-1.5445,-1.6738,0.0,0.0,-1.9075,-1.8179,-1.7884,-1.7842,-1.8008,-1.766,0.0,-1.7767,-1.7444,-1.7433,-1.7906,-1.8609,-1.8773,-1.8207,-1.8234,-1.819,-1.815,-1.8113,-1.8145,-1.8145,-1.8145,-1.8419,-1.8893,-1.8341,-1.8727,0.0,-1.8535,-1.8419,-1.8855,-1.8302,-1.8106,-1.8027,-1.7504,-1.7312,-1.7229,0.0,0.0,0.0,0.0,0.0,0.0,0.0,0.6464,0.818,0.959,1.2956,1.614,1.8616,1.9797,2.0171,1.9612,0.0,0.0,0.0,0.0,0.0,0.0,0.0,0.0,0.0,0.0,2.3822,2.4603,2.5244,2.5798,2.6261,2.7755,2.7747,2.6502,2.674,2.6064,0.0,0.0,0.0,0.0,0.0,0.0,0.0,0.0,0.0,0.0,0.0,0.0,0.0,0.0,0.0,0.0,0.0,0.0,0.0,1.1537,1.2214,1.3008,1.4941,1.6694,1.8408,2.0269,1.8643,1.601,1.3916,0.985,0.5657,0.2511,0.1537,0.0909,-0.0312,-0.2044,-0.381,-0.5442,-0.7556,-0.9921,0.0,0.0,0.0,-1.675,-1.8253,-1.8779,0.0,0.0,-1.7852,-1.6643,-1.7062,-1.7204,-1.6691,-1.6992,-1.7252,-1.7303,-1.7902,-1.786,-1.6962,-1.7408,-1.7596,-1.757,-1.7571,-1.7744,-1.8111,-1.8108,-1.8185,-1.8341,-1.8185,-1.8302,-1.8535,-1.7827,-1.7666,-1.7747,-1.7229,-1.6993,-1.6993,-1.6837,-1.6752,-1.671,0.0,0.0,0.0,0.0,0.0,0.0,0.0,1.1151,1.3732,1.5362,1.8391,2.0794,2.1822,2.2,2.1413,1.9845,0.0,0.0,0.0,0.0,0.0,0.0,0.0,0.0,0.0,2.3291,2.3473,2.371,2.4454,2.5108,2.5704,2.6789,2.7096,2.6717,2.6078,2.543,0.0,0.0,0.0,0.0,0.0,0.0,2.3973,0.0,0.0,0.0,0.0,0.0,0.0,0.0,0.0,0.0,0.0,0.0,0.0,0.0,1.0729,1.2149,1.5713,1.7556,1.8963,2.0654,1.8731,1.5782,1.3095,0.9037,0.4826,0.1118,0.0,-0.0616,-0.1404,-0.3437,-0.5157,-0.5702,-0.7537,-0.9779,0.0,0.0,0.0,-1.6251,0.0,0.0,0.0,-1.7197,-1.6868,-1.5952,-1.6553,-1.6699,-1.6137,-1.6237,-1.6197,-1.5899,-1.6788,-1.6784,-1.5752,-1.617,-1.6466,-1.667,-1.667,-1.6927,-1.7499,-1.7516,-1.7626,-1.7787,-1.7585,-1.7747,0.0,-1.7312,-1.7105,-1.7229,-1.6441,-1.6151,-1.6151,-1.6151,-1.6151,-1.6182,0.0,0.0,0.0,0.0,0.0,0.0,0.0,1.4726,1.7406,1.9716,2.1606,2.3017,2.3678,2.364,2.2665,2.0396,0.0,0.0,0.0,0.0,0.0,0.0,0.0,0.0,0.0,2.3362,2.3306,2.2984,2.3515,2.4052,2.4561,2.4698,2.5186,2.5885,2.4431,2.4215,0.0,0.0,0.0,0.0,0.0,0.0,0.0,0.0,0.0,0.0,0.0,0.0,0.0,0.0,0.0,0.0,0.0,0.0,0.0,0.0,0.0,0.0,0.0,1.7995,1.9188,2.014,1.7652,1.4027,1.0496,0.6702,0.0,-0.1841,-0.3033,-0.3481,-0.4225,-0.62,-0.7548,-0.6953,-0.848,0.0,0.0,-1.3375,0.0,0.0,-1.4836,0.0,-1.552,-1.5253,-1.5283,-1.5728,-1.5974,-1.6062,-1.6049,-1.5255,-1.4586,-1.4096,-1.5337,-1.5574,-1.4653,-1.4696,-1.4975,-1.5536,-1.5555,-1.5825,-1.638,-1.638,-1.6655,0.0,-1.6667,-1.7021,0.0,-1.6909,-1.6752,-1.705,-1.6015,-1.5588,-1.5543,-1.5543,-1.5543,-1.5676,0.0,0.0,0.0,0.0,0.0,0.0,0.0,0.0,0.0,0.0,2.1986,2.3347,2.3408,2.3395,2.2527,0.0,0.0,0.0,0.0,0.0,0.0,0.0,0.0,0.0,0.0,2.2655,2.2248,2.1778,2.1563,2.173,2.2294,2.3703,2.4717,2.5392,2.5573,2.5284,0.0,0.0,0.0,0.0,0.0,0.0,0.0,0.0,0.0,0.0,-0.038,-0.2159,0.0,0.0,0.0,0.0,0.0,0.0,0.0,0.0,0.3335,0.5119,0.887,0.0,1.4673,1.5108,1.2879,0.9721,0.0,0.0,0.0,0.0,0.0,-0.5212,-0.563,-0.6984,-0.7691,-0.6547,-0.7712,-0.9348,-1.0904,0.0,0.0,-1.5141,-1.4009,-1.3305,-1.3998,-1.5041,-1.5299,-1.4404,-1.5441,-1.5965,-1.5576,-1.508,-1.4582,-1.4111,-1.4107,-1.4082,-1.4026,-1.4486,-1.4774,-1.4901,-1.4923,-1.4971,-1.5107,-1.5107,-1.5454,-1.5971,-1.5852,-1.6213,-1.6879,-1.6595,-1.6312,-1.5971,-1.5708,-1.532,-1.4926,-1.4926,-1.5186,-1.5632,0.0,0.0,0.0,0.0,0.0,0.0,0.0,0.0,0.0,0.0,0.0,0.0,0.0,0.0,0.0,0.0,0.0,0.0,0.0,0.0,0.0,0.0,0.0,0.0,2.0646,2.0193,1.9288,1.7809,1.81,1.7922,1.7383,2.0102,2.1746,2.2537,2.4638,2.5097,0.0,0.0,0.0,0.0,2.3891,0.0,0.0,0.0,0.0,0.0,-0.1719,-0.3253,0.0,-0.4305,-0.5294,-0.6273,0.0,0.0,0.0,0.0,-0.1096,0.026,0.3274,0.6778,0.951,0.9267,0.6768,0.3762,0.1437,0.0,0.0,0.0,0.0,-0.7803,-0.8103,-0.9406,-0.9999,-0.841,-0.9439,0.0,0.0,0.0,-1.3118,-1.3589,-1.3039,-1.2706,0.0,-1.3821,-1.4157,-1.3406,-1.4521,-1.5043,-1.458,-1.4506,-1.4258,-1.384,-1.3443,-1.3256,-1.3409,-1.3723,-1.3987,-1.4281,-1.4273,-1.4419,-1.4698,-1.4698,-1.488,-1.5186,-1.5186,-1.5292,-1.5408,-1.5604,-1.5381,-1.4917,-1.4824,-1.4595,-1.4283,-1.4283,-1.4503,-1.4812,0.0,0.0,0.0,0.0,0.0,0.0,0.0,0.0,0.0,0.0,0.0,0.0,0.0,0.0,0.0,0.0,0.0,0.0,0.0,0.0,0.0,0.0,0.0,1.7068,1.6265,1.5932,1.4716,1.2665,1.3323,1.2832,1.1236,1.4618,1.7116,1.896,2.2639,2.4304,0.0,0.0,0.0,0.0,2.1733,0.0,0.0,0.0,0.0,0.0,0.0,0.0,0.0,-0.3254,-0.4707,-0.6697,-0.6959,0.0,0.0,0.0,0.0,0.0,-0.1408,0.116,0.3122,0.2788,0.0112,-0.2775,-0.4257,0.0,0.0,0.0,0.0,-1.0394,-1.0789,-1.2282,0.0,0.0,0.0,0.0,-1.2068,-1.2661,-1.2946,-1.2361,-1.2205,0.0,-1.2104,-1.2449,-1.2708,-1.2618,-1.3418,-1.3798,-1.3493,-1.3612,-1.3534,-1.3223,-1.2807,-1.2578,-1.2588,-1.2783,-1.317,-1.3658,-1.3658,-1.3914,-1.4433,-1.4433,-1.4479,-1.456,0.0,0.0,-1.4214,-1.4575,-1.4463,-1.4049,-1.3854,-1.3679,-1.3543,-1.3663,-1.3648,-1.3708,0.0,0.0,0.0,0.0,0.0,0.0,0.0,0.0,0.0,0.0,0.0,0.0,0.0,0.0,0.0,0.0,0.0,0.0,0.0,0.0,0.0,0.0,0.7809,0.9864,0.9645,0.847,0.7979,0.827,0.6962,0.6056,0.5596,0.724,1.1205,1.7074,2.0779,2.3709,2.5861,0.0,0.0,0.0,2.1114,0.0,0.0,0.0,0.0,0.0,0.0,0.0,0.0,-0.0609,-0.1228,-0.2377,-0.3119,0.0,0.0,0.0,0.0,0.0,-0.4562,-0.5554,-0.623,-0.4628,-0.5968,-0.8218,-1.0408,0.0,0.0,0.0,0.0,0.0,0.0,-1.3752,-1.3959,0.0,0.0,-1.2939,0.0,0.0,-1.2736,-1.2342,0.0,-1.1201,-1.1183,-1.2123,-1.2599,-1.229,-1.2599,-1.28,-1.2735,-1.2193,-1.1875,-1.1804,-1.1352,-1.1099,-1.1116,-1.2292,-1.2968,-1.3045,-1.3045,-1.3104,-1.3152,-1.3152,-1.3467,-1.3956,0.0,-1.4193,-1.4597,-1.4664,-1.4378,-1.3861,-1.3794,-1.3268,-1.2503,-1.2878,-1.2894,-1.2926,0.0,0.0,0.0,0.0,0.0,0.0,0.0,0.0,0.0,0.0,0.0,0.0,0.0,0.0,0.0,0.0,0.0,0.0,0.0,0.0,0.0,-0.3485,-0.2457,-0.0141,0.3364,0.2866,0.2199,0.1408,0.0769,-0.0416,-0.2093,0.2718,0.9441,1.76,2.1021,2.3924,2.6211,2.5576,2.4664,2.3249,0.0,0.0,0.0,0.0,0.0,0.0,0.0,0.0,0.0,0.0,0.1144,0.0545,-0.0226,0.0,0.0,0.0,0.0,0.0,-0.7049,-0.8842,-1.0585,-1.1272,-1.2197,-1.3275,-1.4179,0.0,0.0,0.0,0.0,0.0,0.0,0.0,-1.494,-1.4202,0.0,-1.4211,-1.3391,-1.2844,-1.2384,0.0,0.0,-1.1223,-1.1192,-1.1445,-1.1585,-1.1565,-1.1608,-1.167,-1.1566,-1.1547,-1.137,-1.1124,-1.0889,-1.0779,-1.082,-1.1451,-1.1792,-1.1792,-1.2138,-1.2295,-1.2344,-1.2725,-1.3065,-1.3334,0.0,-1.3181,-1.3055,-1.3271,-1.2892,-1.225,-1.2493,-1.2293,-1.1895,-1.2135,-1.2128,-1.2179,0.0,0.0,0.0,0.0,0.0,0.0,0.0,0.0,0.0,0.0,0.0,0.0,0.0,0.0,0.0,0.0,0.0,0.0,0.0,0.0,-0.6168,-0.8507,-0.985,-0.8208,-0.3195,-0.2918,-0.357,-0.5065,-0.4805,-0.5202,-0.6155,0.0744,0.8738,1.7486,2.105,2.4051,2.6246,2.3728,2.1872,2.0164,0.0,0.0,0.0,0.0,0.0,0.0,0.0,0.0,0.0,0.0,0.0,0.0,0.0,0.0,0.0,-0.2153,-0.4183,-0.6061,-0.8138,-1.0321,-1.2602,-1.5083,0.0,0.0,0.0,0.0,0.0,0.0,0.0,0.0,0.0,-1.4874,0.0,-1.5684,-1.5694,-1.5113,-1.3921,-1.2979,-1.2295,-1.1646,-1.1491,-1.1354,-1.1284,-1.0852,-1.0657,-1.0781,-1.059,-1.0442,-1.0346,-1.0666,-1.0688,-1.032,-1.0312,-1.0312,-1.0312,-1.0312,-1.0466,-1.0813,-1.1316,-1.1566,-1.1566,-1.2295,-1.2657,-1.2657,-1.2715,-1.2344,-1.1783,-1.1973,-1.167,-1.1094,-1.1469,-1.1606,-1.1577,-1.1381,-1.143,-1.1674,0.0,0.0,0.0,0.0,0.0,0.0,0.0,0.0,0.0,0.0,0.0,0.0,0.0,0.0,0.0,0.0,0.0,0.0,0.0,0.0,-0.9272,-1.1245,-1.1123,-1.0899,-1.0539,-1.0211,-0.9863,-0.9463,-0.9381,-0.6844,-0.203,0.2194,0.7878,1.4699,1.947,2.3529,2.6297,1.9051,1.631,1.6013,0.6966,0.0,0.0,0.0,0.0,0.0,0.0,0.0,0.0,0.0,0.0,0.0,0.0,0.0,0.3876,0.0662,-0.1624,-0.3786,-0.695,-1.018,-1.2878,-1.3973,-1.4809,0.0,-1.9519,-1.8753,0.0,-1.7614,0.0,0.0,0.0,-1.465,-1.4563,-1.5576,-1.5109,-1.4447,-1.4109,0.0,-1.2945,-1.2283,-1.176,-1.1284,-1.1059,-1.08,-1.047,-1.0167,-0.967,-0.9327,-0.9307,-0.9132,-0.8969,-0.8962,-0.8962,-0.8962,-0.8962,-0.8962,-0.9562,-1.0813,-1.0864,-1.0864,-1.0914,-1.1566,-1.1864,-1.1895,-1.2139,-1.219,-1.2148,-1.1768,-1.1616,-1.1557,-1.1596,-1.1606,-1.1508,-1.0704,-1.092,-1.1624,0.0,0.0,0.0,0.0,0.0,0.0,0.0,0.0,0.0,0.0,0.0,0.0,0.0,0.0,0.0,0.0,0.0,0.0,0.0,0.0,-0.9579,-1.0681,-0.9807,-0.9285,-0.9257,-0.9933,-1.0322,-1.0416,-0.7423,-0.2621,0.3769,0.7161,1.3835,2.3008,2.2114,2.0661,1.855,1.4043,0.9017,0.3699,-0.0862,-0.3244,0.0,0.0,0.0,0.0,0.0,0.0,0.0,0.0,0.4522,0.4779,0.4445,0.4232,0.3561,0.0457,-0.1868,-0.4131,-0.736,-1.0045,-1.2208,-1.3392,-1.4289,0.0,0.0,-1.9724,-1.9187,-1.8845,-1.8073,0.0,0.0,0.0,-1.5749,-1.4555,-1.4937,-1.497,-1.3746,-1.303,-1.2435,-1.1824,-1.1418,-1.0982,-1.0463,-1.0214,-0.9967,-0.986,-0.9299,-0.9051,-0.9176,-0.8965,-0.8804,-0.8804,-0.8804,-0.8804,-0.8804,-0.8804,-0.9061,-0.9562,-0.999,-1.0174,-1.0223,-1.1285,-1.1666,-1.1454,-1.1949,-1.1869,-1.1396,-1.1221,-1.1006,-1.0802,-1.0802,-1.0802,-1.0763,-1.04,-1.0528,-1.0783,0.0,0.0,0.0,0.0,0.0,0.0,0.0,0.0,0.0,0.0,0.0,0.0,0.0,0.0,0.0,0.0,0.0,0.0,-0.4002,-0.6041,-0.7247,-0.7633,-0.6573,-0.583,-0.5352,-0.6145,-0.723,-0.8613,-0.3128,0.2934,0.9555,1.2716,1.8542,2.6125,2.1481,1.6913,1.2323,0.674,0.0722,-0.5343,-0.8043,-0.9194,0.0,0.0,0.0,0.0,0.0,0.0,0.0,0.0,0.3299,0.3594,0.2647,0.2318,0.1694,-0.117,-0.3509,-0.5719,-0.8198,-1.0561,-1.2456,-1.3374,0.0,0.0,-1.8421,-1.9659,-2.0039,-1.9525,-1.8461,-1.7091,-1.5015,0.0,0.0,0.0,-1.4295,-1.4545,-1.3147,-1.2486,-1.1942,-1.1366,-1.0958,-1.056,-1.0155,-0.9789,-0.9528,-0.9528,-0.9098,-0.8891,-0.9037,-0.8918,-0.8804,-0.8804,-0.8804,-0.8804,-0.8804,-0.8804,-0.8752,-0.8685,-0.914,-0.9395,-0.9528,-1.0629,-1.0963,-1.0677,-1.1177,-1.1135,-1.0641,-1.0517,-1.0454,-1.0478,-1.0478,-1.0478,-1.0459,-1.0332,-1.0283,-1.0283,0.0,0.0,0.0,0.0,0.0,0.0,0.0,0.0,0.0,0.0,0.0,0.0,0.0,0.0,0.0,0.0,0.0,0.0,-0.2003,-0.2324,-0.2339,-0.2129,-0.1595,-0.0719,0.0391,0.0871,-0.058,-0.3943,0.3018,0.9346,1.5085,1.8487,2.0727,2.1664,1.6319,1.2359,0.8845,-0.315,-0.8489,-0.9366,-1.4255,-1.5362,-1.365,0.0,0.0,0.0,0.0,0.0,0.0,0.0,0.1312,0.1232,-0.0553,-0.1021,-0.1434,-0.4065,-0.6425,-0.8415,-0.9313,-1.1739,-1.4063,-1.393,0.0,0.0,-1.7154,-1.8411,-1.9341,-1.9524,-1.6979,-1.4824,-1.481,-1.3726,0.0,-1.2805,-1.3022,-1.3015,-1.2397,-1.2046,-1.1697,-1.1089,-1.047,-1.0112,-1.0073,-0.9548,-0.9197,-0.9197,-0.8964,-0.8804,-0.8804,-0.8804,-0.8804,-0.8804,-0.8804,-0.8804,-0.8804,-0.8804,-0.8685,-0.8389,-0.8384,-0.8517,-0.8804,-0.9468,-0.9664,-0.9423,-0.9631,-0.9838,-1.0071,-0.9641,-1.0037,-1.0867,-1.0877,-1.0877,-1.0818,-1.0439,-1.0283,-1.0283,0.0,0.0,0.0,0.0,0.0,0.0,0.0,0.0,0.0,0.0,0.0,0.0,0.0,0.0,0.0,0.0,0.0,0.0,-0.3915,-0.3502,-0.324,-0.3277,-0.1434,0.033,0.1821,0.6384,0.787,0.6149,1.1327,1.6759,2.2393,2.408,2.3244,2.0093,1.4187,0.6141,-0.3285,-0.8717,-1.37,-1.7914,-1.7529,-1.702,-1.5956,0.0,0.0,0.0,0.0,0.0,0.0,0.0,0.0,0.0,-0.2173,-0.3343,-0.4405,-0.5931,-0.7654,-0.9438,-1.086,-1.2402,-1.3761,-1.4695,0.0,0.0,0.0,-1.7543,0.0,0.0,-1.5774,-1.4266,-1.3234,-1.3464,0.0,-1.2031,-1.2224,-1.2344,-1.1768,-1.1288,-1.0893,-1.0717,-1.0177,-0.9707,-0.9494,-0.9299,-0.9147,-0.8937,-0.8871,-0.8804,-0.8804,-0.8804,-0.8804,-0.8804,-0.8804,-0.8804,-0.8804,-0.8804,-0.8752,-0.8679,-0.8665,-0.8517,-0.8196,-0.9116,-0.9184,-0.8693,-0.9616,-0.9684,-0.9129,-0.9199,-0.9368,-0.9658,-0.9838,-0.9821,-0.9623,-0.9511,-0.9345,-0.9159,0.0,0.0,0.0,0.0,0.0,0.0,0.0,0.0,0.0,0.0,0.0,0.0,0.0,0.0,0.0,0.0,0.0,0.0,0.0,0.0,-0.4512,-0.4562,-0.2331,0.0574,0.4247,1.021,1.3513,1.3993,1.7283,2.1001,2.5061,2.5418,2.2362,1.6225,0.8955,-0.0186,-1.0343,-1.3742,-1.7141,-2.0025,-1.7505,-1.5919,-1.4626,0.0,0.0,0.0,0.0,0.0,0.0,0.0,0.0,0.0,-0.3903,-0.5206,-0.645,-0.7604,-0.9221,-1.0812,-1.169,-1.281,-1.3867,-1.4919,-1.5419,-1.5761,-1.6004,0.0,0.0,0.0,-1.4697,-1.3334,-1.2832,-1.2931,0.0,-1.1431,-1.1558,-1.1591,-1.1002,-1.0593,-1.036,-1.0276,-0.9799,-0.9451,-0.9238,-0.9086,-0.8997,-0.8824,-0.8804,-0.8804,-0.8804,-0.8804,-0.8804,-0.8804,-0.87,-0.8636,-0.8636,-0.8521,-0.8406,-0.8285,-0.84,-0.814,-0.7575,-0.8534,-0.8746,-0.8393,-0.9235,-0.9251,-0.8743,-0.9314,-0.9542,-0.9567,-0.9733,-0.9603,-0.9314,-0.9175,-0.8922,-0.8715,0.0,0.0,0.0,0.0,0.0,0.0,0.0,0.0,0.0,0.0,0.0,0.0,0.0,0.0,0.0,0.0,0.0,0.0,0.0,0.0,-0.641,-0.6464,-0.4051,0.0301,0.6778,1.2337,1.6394,1.8857,2.0745,2.2446,2.3955,2.3197,1.8519,1.0374,0.1718,-0.6269,-1.3553,-1.778,-1.8839,-1.7517,-1.521,-1.3199,-1.147,-0.9935,0.0,0.0,0.0,0.0,0.0,0.0,0.0,0.0,-0.5525,-0.6625,-0.7563,-0.882,-1.059,-1.2193,-1.1946,-1.2966,-1.4283,-1.4781,-1.5106,0.0,-1.5335,-1.4743,-1.4467,-1.547,0.0,-1.2161,-1.3113,-1.2241,-1.1259,-1.1035,-1.0916,-1.0712,-1.0147,-1.0061,-0.991,-0.9664,-0.9369,-0.9169,-0.9169,-0.8877,-0.8705,-0.8705,-0.8699,-0.8699,-0.8699,-0.8752,-0.8798,-0.8764,-0.8559,-0.8434,-0.8392,-0.8119,-0.78,-0.7583,-0.7795,-0.7602,-0.7108,-0.8017,-0.8377,-0.8391,-0.8547,-0.8626,-0.8685,-0.9667,-1.0052,-1.0052,-1.0084,-0.9858,-0.9471,-0.9113,-0.8804,-0.8568,0.0,0.0,0.0,0.0,0.0,0.0,0.0,0.0,0.0,0.0,0.0,0.0,0.0,0.0,0.0,0.0,0.0,0.0,0.0,0.0,-1.1377,-1.2405,-0.5879,0.0237,0.5474,1.1836,1.5215,1.5508,1.9514,2.1237,2.0736,1.8235,1.1976,0.2506,-0.3478,-0.9901,-1.6295,-1.7924,-1.7702,-1.6055,-1.4063,-1.3584,-1.4004,-1.2725,-1.1769,0.0,0.0,0.0,0.0,0.0,0.0,0.0,-0.5751,-0.6565,-0.7369,-0.788,-0.94,-1.0997,-1.1657,-1.2776,0.0,-1.5543,-1.5381,-1.4647,-1.3646,-1.2708,-1.2326,-1.3225,-1.2434,-1.1599,-1.1778,-1.1404,-1.1015,-1.0762,-1.0465,-1.0152,-0.9843,-0.9552,-0.9342,-0.9341,-0.9052,-0.8871,-0.8871,-0.8334,-0.7961,-0.7961,-0.7949,-0.7943,-0.7943,-0.848,-0.8704,-0.8477,-0.8622,-0.8592,-0.8393,-0.833,-0.8274,-0.8212,-0.801,-0.7822,-0.7742,-0.8194,-0.8399,-0.8367,-0.7929,-0.788,-0.8085,-0.8581,-0.8813,-0.8834,-0.9022,-0.8777,-0.8287,-0.8177,-0.7832,-0.7412,0.0,0.0,0.0,0.0,0.0,0.0,0.0,0.0,0.0,0.0,0.0,0.0,0.0,0.0,0.0,0.0,0.0,0.0,0.0,0.0,0.0,-1.5734,-0.99,-0.4439,0.0327,0.7102,1.0443,1.013,1.2671,1.4585,1.5714,1.21,0.5943,-0.2365,-0.7373,-1.2733,-1.8065,-1.8763,-1.8014,-1.6205,-1.4857,-1.4375,-1.4501,-1.4084,-1.4108,-1.4086,-1.2823,0.0,0.0,0.0,0.0,0.0,0.0,0.0,-0.6491,-0.7291,-0.8159,-0.9161,-1.0306,-1.1508,0.0,-1.4359,0.0,-1.2899,-1.2152,-1.1319,-1.0786,-1.1266,-1.1189,-1.1009,-1.1009,-1.0768,-1.0481,-1.0187,-0.9893,-0.9593,-0.9305,-0.9117,-0.8989,-0.8989,-0.8871,-0.8646,-0.8315,-0.7949,-0.7574,-0.7198,-0.7509,-0.7723,-0.7723,-0.83,-0.8597,-0.8584,-0.8457,-0.829,-0.8145,-0.8044,-0.7896,-0.7754,-0.7695,-0.7789,-0.7888,-0.809,-0.8163,-0.8143,-0.7822,-0.7943,-0.8337,-0.8216,-0.833,-0.8584,-0.8597,-0.8323,-0.7882,-0.7882,-0.7503,-0.7063,0.0,0.0,0.0,0.0,0.0,0.0,0.0,0.0,0.0,0.0,0.0,0.0,0.0,0.0,0.0,0.0,0.0,0.0,0.0,0.0,0.0,-1.819,-1.4599,-1.0515,-0.6013,0.0616,0.391,0.3749,0.3773,0.5112,0.7708,0.4599,-0.022,-0.6452,-1.0872,-1.5234,-1.9281,-1.9846,-1.9096,-1.7521,-1.6872,-1.614,-1.5452,-1.609,-1.6858,-1.7587,-1.6943,-1.6197,-1.5339,-1.3816,0.0,0.0,0.0,0.0,-0.5707,-0.6514,-0.6813,-0.7114,-0.8383,-0.9991,-1.148,-1.2824,-1.2304,0.0,-1.1213,-1.0627,-1.0089,-0.9944,-1.029,-1.0611,-1.0494,-1.0241,-0.9947,-0.9653,-0.9359,-0.9024,-0.8838,-0.8699,-0.8593,-0.8593,-0.848,-0.8156,-0.7563,-0.7396,-0.7069,-0.6475,-0.7074,-0.7503,-0.7503,-0.8107,-0.8537,-0.8731,-0.8263,-0.7983,-0.7882,-0.7622,-0.7341,-0.7101,-0.7295,-0.7522,-0.7729,-0.7729,-0.7756,-0.7849,-0.7849,-0.8123,-0.8544,-0.811,-0.825,-0.8704,-0.841,-0.815,-0.7875,-0.7869,-0.7502,-0.7021,0.0,0.0,0.0,0.0,0.0,0.0,0.0,0.0,0.0,0.0,0.0,0.0,0.0,0.0,0.0,0.0,0.0,0.0,0.0,0.0,0.0,-2.1547,-1.8525,-1.4967,-1.0861,-0.5827,-0.2997,-0.2486,-0.3826,-0.5334,0.0,-0.5426,-0.7407,-1.2182,-1.495,-1.7674,-2.0249,-2.0665,-2.0639,-2.0241,-1.9924,-2.0147,-2.0774,-2.168,-2.2949,-2.4209,-2.3359,-2.2389,-2.1088,-1.8449,-1.5816,0.0,0.0,0.0,-0.6359,-0.5021,-0.4778,-0.5176,-0.6315,0.0,-1.1438,0.0,-1.2696,-1.2292,0.0,0.0,-1.093,0.0,-1.029,-1.0481,-1.0221,-0.994,-0.9646,-0.9345,-0.9058,-0.8851,-0.8811,-0.8262,-0.783,-0.783,-0.7289,-0.6858,-0.675,-0.6145,-0.5756,-0.5651,-0.6308,-0.675,-0.675,-0.8013,-0.8651,-0.8437,-0.8357,-0.819,-0.7888,-0.7622,-0.7493,-0.7446,-0.7188,-0.7101,-0.7098,-0.7098,-0.7281,-0.7574,-0.7574,-0.7621,-0.7708,-0.7856,-0.813,-0.8404,-0.8103,-0.7915,-0.7848,-0.7629,-0.7315,-0.707,0.0,0.0,0.0,0.0,0.0,0.0,0.0,0.0,0.0,0.0,0.0,0.0,0.0,0.0,0.0,0.0,0.0,0.0,0.0,0.0,0.0,-2.5157,-2.2384,-1.9544,-1.6802,-1.1913,-0.8905,-0.7835,-0.8737,0.0,0.0,-1.213,-1.3332,0.0,0.0,-2.0226,-2.2383,-2.3689,-2.4298,-2.4503,-2.5083,-2.512,-2.4967,0.0,0.0,0.0,0.0,0.0,-2.5655,-2.3709,-2.1192,-1.8406,-1.5149,0.0,0.0,0.0,-0.4694,-0.3997,-0.5704,-0.7253,-0.8789,0.0,-1.0819,-1.0709,-1.0067,-1.0252,-1.0441,-1.002,-0.9886,-0.9895,-1.0052,-0.9633,-0.9225,-0.92,-0.8398,-0.7827,-0.8121,-0.7563,-0.7074,-0.7074,-0.6804,-0.6421,-0.6036,-0.5706,-0.5324,-0.4948,-0.5601,-0.5982,-0.5982,-0.7261,-0.7928,-0.781,-0.8006,-0.7976,-0.7675,-0.758,-0.7426,-0.7214,-0.7255,-0.7188,-0.6985,-0.7194,-0.7341,-0.75,-0.7288,-0.7408,-0.7709,-0.7508,-0.7702,-0.8096,-0.7789,-0.7669,-0.7655,-0.756,-0.7275,-0.7021,0.0,0.0,0.0,0.0,0.0,0.0,0.0,0.0,0.0,0.0,0.0,0.0,0.0,0.0,0.0,0.0,0.0,0.0,0.0,0.0,0.0,-2.8159,-2.5681,-2.3522,-2.1839,-1.734,-1.4092,-1.2181,0.0,0.0,-1.4155,-1.5924,-1.7063,0.0,-1.9877,-2.2031,0.0,0.0,-2.7238,-2.7809,-2.8784,-2.8648,0.0,0.0,0.0,0.0,0.0,0.0,-2.9608,-2.8513,-2.6503,-2.3747,-1.9984,-1.5725,0.0,0.0,0.0,-0.328,-0.4947,0.0,-0.6276,-0.8358,-0.8903,-0.8978,0.0,0.0,-0.9597,0.0,-0.9281,-0.9058,-0.9359,-0.8871,-0.8431,-0.8577,-0.7594,-0.6991,-0.7371,-0.6799,-0.6312,-0.6312,-0.615,-0.5823,-0.5273,-0.5273,-0.5058,-0.4519,-0.5109,-0.5487,-0.5487,-0.6528,-0.7098,-0.7087,-0.7285,-0.7301,-0.7058,-0.7122,-0.7111,-0.6985,-0.7248,-0.7235,-0.6985,-0.7255,-0.7355,-0.7341,-0.7121,-0.7238,-0.7616,-0.7165,-0.7335,-0.7782,-0.7475,-0.7446,-0.7506,-0.7426,-0.7214,-0.6979,0.0,0.0,0.0,0.0,0.0,0.0,0.0,0.0,0.0,0.0,0.0,0.0,0.0,0.0,-2.1926,-2.2786,-2.37,-2.4936,-2.6588,-2.7083,-2.8156,-2.9977,-2.8036,0.0,-2.4879,-2.1633,-1.8358,-1.5109,0.0,0.0,-1.4684,-1.6072,-1.7471,-1.8959,-2.0548,-2.255,-2.4862,0.0,0.0,0.0,0.0,0.0,0.0,0.0,0.0,0.0,0.0,0.0,-3.2895,-3.2357,-3.0958,-2.8599,-2.3819,-1.9661,-1.5551,0.0,0.0,0.0,0.0,-0.3953,0.0,-0.7255,-0.7791,-0.8031,0.0,0.0,-0.8694,-0.8694,-0.8337,-0.7955,-0.7669,-0.7512,-0.7293,-0.7058,-0.6794,-0.6598,-0.6642,-0.6036,-0.5542,-0.5542,-0.5003,-0.4574,-0.457,-0.457,-0.4519,-0.4519,-0.5109,-0.5487,-0.5487,-0.6244,-0.6579,-0.6468,-0.624,-0.6012,-0.5815,-0.6095,-0.6532,-0.6979,-0.7034,-0.7034,-0.7021,-0.7034,-0.7041,-0.7041,-0.6985,-0.6999,-0.7025,-0.6992,-0.7208,-0.7506,-0.7161,-0.7214,-0.7479,-0.7148,-0.6992,-0.6979,0.0,0.0,0.0,0.0,0.0,0.0,0.0,0.0,0.0,0.0,0.0,0.0,0.0,-2.1952,-2.2967,-2.3437,-2.5331,-2.6784,-2.7383,-2.8672,-2.9879,-3.0937,-2.9296,-2.7692,-2.6236,-2.2655,-1.897,0.0,0.0,-1.3327,-1.2577,-1.2987,-1.4153,-1.6086,-1.9866,-2.2817,-2.5029,-2.6945,0.0,0.0,0.0,0.0,0.0,0.0,0.0,0.0,-3.1198,-3.2491,-3.3561,-3.3385,0.0,0.0,0.0,0.0,0.0,0.0,0.0,0.0,0.0,0.0,0.0,-0.4434,-0.5724,-0.6842,-0.7188,-0.7995,-0.8624,-0.8624,-0.7865,-0.7154,-0.7016,-0.6845,-0.6787,-0.6907,-0.6054,-0.5522,-0.5837,-0.5273,-0.4838,-0.4838,-0.4625,-0.4519,-0.4519,-0.4519,-0.4519,-0.4519,-0.4732,-0.4838,-0.4838,-0.5492,-0.5779,-0.5587,-0.5918,-0.5956,-0.5595,-0.5595,-0.5739,-0.5905,-0.6301,-0.6477,-0.652,-0.6852,-0.6979,-0.6979,-0.6979,-0.6979,-0.6979,-0.6979,-0.7088,-0.7168,-0.7061,-0.7088,-0.7168,-0.7061,-0.6979,-0.7047,0.0,0.0,0.0,0.0,0.0,0.0,0.0,0.0,0.0,0.0,0.0,0.0,0.0,0.0,-2.4159,-2.5421,-2.7504,-2.8837,-2.8998,-3.0175,-3.1187,-3.1906,-3.0351,-2.8676,-2.6967,-2.3069,-1.912,-1.5186,0.0,0.0,0.0,-1.0451,-1.1209,-1.3001,-1.7279,-2.0735,0.0,0.0,0.0,-3.004,0.0,0.0,-3.1352,0.0,0.0,-3.0874,-3.1572,-3.2849,-3.4199,-3.4202,0.0,0.0,0.0,0.0,0.0,0.0,0.0,0.0,-0.3744,0.0,0.0,0.0,-0.3606,-0.4828,-0.5485,-0.6385,-0.7203,-0.7553,-0.6912,-0.6268,-0.6268,-0.6125,-0.6055,-0.6287,-0.5389,-0.4826,-0.5158,-0.4823,-0.4519,-0.4519,-0.4239,-0.4181,-0.446,-0.4239,-0.4236,-0.4463,-0.4519,0.0,-0.4519,-0.4948,-0.5031,-0.4815,-0.5195,-0.5385,-0.5288,-0.5098,-0.5125,-0.5375,-0.5739,-0.5916,-0.5916,-0.6252,-0.6422,-0.6422,-0.6641,-0.6852,-0.6979,-0.6979,-0.6979,-0.6979,-0.6979,-0.6979,-0.6979,-0.6979,-0.6979,-0.7054,0.0,0.0,0.0,0.0,0.0,0.0,0.0,0.0,0.0,-1.8967,0.0,0.0,0.0,0.0,0.0,-2.887,-3.0237,-3.1084,-3.1384,-3.1464,-3.1942,-3.2947,-3.1224,-2.9311,-2.7289,-2.3171,-1.9132,-1.5272,-1.2027,-1.021,-0.9745,0.0,-0.8973,-1.0066,-1.294,-1.6243,-1.9916,0.0,-2.5621,-2.7265,0.0,-2.9592,-3.1504,0.0,0.0,-3.296,-3.2643,-3.358,-3.4952,-3.4963,-3.4485,0.0,0.0,0.0,0.0,0.0,0.0,0.0,0.0,0.0,0.0,0.0,0.0,0.0,-0.4068,0.0,-0.4499,-0.5558,-0.5552,-0.5299,-0.5362,-0.5172,-0.5008,-0.5008,-0.483,-0.4636,-0.4632,-0.4505,-0.4411,-0.4408,-0.3732,-0.3566,-0.4349,-0.3732,-0.3622,-0.4405,-0.446,-0.446,-0.4519,-0.4519,-0.4399,-0.4207,-0.3961,-0.416,-0.4857,-0.4538,-0.4754,-0.5448,-0.5321,-0.5265,-0.5265,-0.5303,-0.5303,-0.5346,-0.5916,-0.6477,-0.6979,-0.6979,-0.6979,-0.6979,-0.6979,-0.6979,-0.6979,-0.6979,-0.6979,-0.6985,0.0,0.0,0.0,0.0,0.0,0.0,0.0,0.0,0.0,0.0,0.0,0.0,-2.2827,-2.5454,-2.7879,-2.9748,-3.1433,-3.2117,-3.1458,-3.2839,-3.3393,-3.2736,-3.2164,-3.0745,-2.8408,-2.442,-2.0473,-1.6591,-1.2451,-0.9693,-0.8287,-0.736,-0.7355,0.0,-1.1022,-1.3951,-1.7109,-2.2326,0.0,-2.8258,-2.8767,-2.9946,0.0,0.0,0.0,0.0,-3.1237,-3.2536,-3.4138,-3.4134,-3.4789,-3.523,0.0,0.0,0.0,0.0,0.0,0.0,-0.8191,0.0,0.0,0.0,0.0,0.0,0.0,0.0,-0.3489,-0.4437,-0.4024,-0.3632,-0.43,-0.3855,-0.3372,-0.3372,-0.3655,-0.367,-0.2997,-0.2849,-0.2864,-0.2852,-0.2621,-0.2565,-0.2788,-0.2621,-0.2841,0.0,-0.368,-0.3956,-0.446,-0.4519,-0.4498,-0.4406,-0.4219,-0.4141,-0.4267,-0.4059,-0.4017,-0.4129,-0.4464,-0.4648,-0.4648,-0.5087,-0.5303,-0.5308,-0.548,-0.5873,-0.6435,-0.6852,-0.6979,-0.6979,-0.6979,-0.6979,-0.6979,-0.6979,-0.6979,-0.7038,0.0,0.0,0.0,0.0,0.0,0.0,-2.3395,-2.3339,-2.3031,0.0,0.0,0.0,-2.4766,-2.7751,-3.019,-3.1385,-3.2918,-3.3725,-3.3456,-3.4622,-3.4865,-3.3858,-3.3496,-3.2041,-2.94,-2.5608,-2.1622,-1.7464,-1.3291,-1.0528,-0.9116,-0.8201,-0.846,-0.9754,0.0,0.0,0.0,0.0,0.0,0.0,-2.8873,0.0,0.0,-2.9929,-3.0264,0.0,0.0,0.0,-3.4255,-3.3902,-3.433,0.0,0.0,0.0,0.0,0.0,0.0,0.0,0.0,0.0,0.0,0.0,0.0,0.0,-0.0612,-0.1053,-0.1765,0.0,-0.174,-0.1698,-0.2271,-0.1931,-0.1467,-0.1067,-0.1298,-0.176,-0.2265,-0.223,-0.2197,-0.2214,-0.1919,-0.1861,-0.2151,-0.1895,-0.205,-0.2788,-0.2867,-0.3065,-0.3511,-0.3846,-0.4015,-0.4012,-0.4107,-0.4153,-0.4066,-0.39,-0.3748,-0.367,-0.3954,-0.4049,-0.4092,-0.4443,-0.4574,-0.4618,-0.4826,-0.513,-0.548,-0.6076,-0.655,-0.6979,-0.6979,-0.6979,-0.6979,-0.6979,-0.6979,-0.7094,0.0,0.0,0.0,-2.3212,-2.4469,-2.5397,-2.5566,-2.6188,-2.6189,0.0,-2.4836,-2.558,0.0,0.0,0.0,0.0,-3.4473,-3.5505,-3.627,-3.6434,-3.6242,-3.5646,-3.5014,-3.3395,-3.0676,-2.7097,-2.3121,-1.8776,-1.4851,-1.2436,-1.1418,-1.0666,-1.1304,-1.3209,0.0,0.0,0.0,0.0,0.0,-2.6797,-2.8637,-3.0516,0.0,0.0,-3.0713,-3.2998,-3.1724,-3.2691,-3.4462,-3.3973,-3.3449,0.0,0.0,0.0,0.0,0.0,-2.397,0.0,0.0,0.0,0.0,0.0,0.0,0.0,0.0566,0.0712,0.0501,0.0,0.1018,0.0532,0.0332,0.0398,0.0664,0.1338,0.1468,0.066,-0.1741,-0.182,-0.1725,-0.1906,-0.1292,-0.1107,-0.1905,-0.1375,-0.1291,-0.1993,-0.2161,-0.2174,-0.2174,-0.2899,-0.3289,-0.3287,-0.3848,-0.4148,-0.417,-0.3955,-0.3799,-0.3768,-0.3639,-0.3581,-0.3581,-0.3581,-0.3581,-0.3622,-0.4092,-0.4347,-0.443,-0.5,-0.5862,-0.6894,-0.6894,-0.6937,-0.6979,-0.6979,-0.6979,-0.7068,0.0,0.0,0.0,-2.2128,-2.351,-2.4819,-2.6136,-2.6894,-2.7092,-2.6214,-2.6961,0.0,0.0,0.0,0.0,0.0,-3.5326,-3.6205,-3.661,-3.723,-3.7241,-3.649,-3.6321,-3.5494,-3.3855,-3.0531,-2.7092,-2.3612,-1.884,-1.5521,-1.3664,-1.351,-1.3655,-1.4191,0.0,0.0,0.0,0.0,0.0,-2.8155,-2.949,-3.0289,-3.0521,-2.9399,-2.9573,-3.0381,-3.0404,-3.0974,-3.1908,-3.334,-3.2878,-3.1978,0.0,0.0,0.0,-2.8289,0.0,0.0,0.0,0.0,0.0,0.0,0.0,0.0,-0.0357,0.1204,0.2161,0.0,0.3357,0.3792,0.2387,0.2716,0.3082,0.2686,0.251,0.1988,0.071,0.1212,0.1197,-0.0247,0.0308,0.0493,-0.037,-0.03,-0.0529,-0.1233,-0.1877,-0.2174,-0.2174,-0.2343,-0.2732,-0.3345,-0.3434,-0.3658,-0.4016,-0.4005,-0.3856,-0.3622,-0.3595,-0.3581,-0.3581,-0.3581,-0.3581,-0.3626,-0.3711,-0.4008,-0.4391,-0.4517,-0.526,-0.6349,-0.6349,-0.6598,-0.6979,-0.6979,-0.6979,-0.7058,0.0,0.0,0.0,-2.2167,-2.3068,-2.4191,-2.6215,0.0,0.0,0.0,0.0,0.0,0.0,0.0,0.0,0.0,0.0,0.0,0.0,-3.8077,-3.7933,-3.7131,-3.7113,-3.6567,-3.5441,-3.2987,-2.9905,-2.6265,-2.2536,-1.9231,-1.6408,-1.6741,-1.708,-1.7536,-2.0281,0.0,0.0,0.0,-2.7961,-2.8793,-2.9801,0.0,-2.9649,-2.876,-2.8647,-2.9049,-2.929,-3.0014,-3.1059,-3.2023,-3.1923,0.0,-3.2117,-3.161,-3.0505,0.0,-2.7228,-2.4979,0.0,0.0,0.0,-1.1457,0.0,0.0,0.0,0.0888,0.2406,0.4066,0.5223,0.583,0.5138,0.5575,0.5866,0.5487,0.5369,0.5048,0.4317,0.3361,0.236,0.1576,0.1839,0.1773,0.0855,0.0769,0.0432,-0.0472,-0.0868,-0.1081,-0.1119,-0.1452,-0.1842,-0.2232,-0.2954,-0.3374,-0.3565,-0.3852,-0.3907,-0.3683,-0.3612,-0.3581,-0.3581,-0.3581,-0.3581,-0.3581,-0.3581,-0.3751,-0.4008,-0.4008,-0.4526,-0.5346,-0.5615,-0.591,-0.6161,-0.6161,-0.6161,-0.622,-1.8757,0.0,0.0,0.0,-2.2955,-2.3735,0.0,0.0,0.0,0.0,0.0,0.0,0.0,0.0,0.0,0.0,0.0,0.0,0.0,-3.8803,-3.8492,-3.8058,-3.8004,-3.7562,-3.6684,-3.5211,-3.2616,-2.8871,-2.6141,-2.3014,-1.9625,-1.9889,-2.0325,-2.0969,-2.2542,0.0,0.0,0.0,0.0,-2.8755,0.0,-2.9911,-2.9582,-2.829,-2.8116,-2.8473,-2.8343,-2.9129,-3.0355,-3.0483,-3.067,-3.0759,-3.0448,-3.0345,0.0,0.0,0.0,0.0,0.0,0.0,0.0,0.0,0.0,-0.821,0.0,0.0,0.0,0.5105,0.6278,0.6858,0.7467,0.7876,0.8168,0.0,0.0,0.0,0.0,0.5659,0.0,0.3291,0.3354,0.3004,0.197,0.1923,0.1375,0.0121,0.018,0.0236,0.0,-0.0565,-0.0957,-0.1118,-0.223,-0.2854,-0.2867,-0.3377,-0.3547,-0.341,-0.3417,-0.3442,-0.3442,-0.3534,-0.3581,-0.3581,-0.3581,-0.3581,-0.3581,-0.3581,-0.3836,-0.4303,-0.4913,-0.5203,-0.532,-0.5323,-0.5333,-0.5394,-1.9794,-2.0093,0.0,0.0,0.0,0.0,0.0,0.0,0.0,0.0,0.0,0.0,-3.4874,-3.518,-3.5669,-3.6688,0.0,0.0,-3.9955,-3.9215,0.0,-3.9937,-3.9755,-3.9368,-3.8774,-3.7936,-3.6249,-3.3714,-2.9906,-2.653,-2.3591,-2.2336,-2.1788,-2.1856,-2.2406,0.0,0.0,0.0,-2.7467,0.0,-2.891,-3.011,0.0,-2.8714,-2.831,-2.8796,-2.7799,-2.7777,-2.834,0.0,-2.9044,-2.8977,0.0,-2.9827,-2.873,-2.9036,0.0,0.0,0.0,0.0,0.0,0.0,-1.4433,0.0,0.0,0.0,0.0063,0.3512,0.0,0.6872,0.7792,0.0,0.0,0.0,0.0,0.0,0.9685,0.9531,0.8201,0.4799,0.4848,0.4621,0.3101,0.2896,0.2105,0.0128,0.0892,0.0994,0.0059,-0.0059,-0.0404,-0.1063,-0.1285,-0.1594,-0.2126,-0.2203,-0.217,-0.2038,-0.2547,-0.2807,-0.2807,-0.335,-0.3581,-0.3581,-0.3581,-0.3581,-0.3581,-0.3581,-0.3622,-0.3751,-0.4308,-0.4892,-0.5444,-0.5335,-0.539,-0.5515,-2.0871,-2.0728,0.0,0.0,0.0,0.0,0.0,0.0,0.0,0.0,0.0,0.0,-3.6937,-3.6818,-3.6943,-3.7966,-3.8038,-3.862,-3.9991,-3.9652,0.0,-4.0708,-4.0675,-4.0575,-4.0541,-3.9619,-3.8008,-3.5814,-3.2714,-2.9335,-2.5782,-2.4536,-2.3288,-2.2047,-2.3036,0.0,-2.4928,0.0,-2.7371,0.0,0.0,0.0,0.0,-2.8239,-2.7454,-2.7605,-2.7112,-2.721,-2.7612,0.0,-2.8088,0.0,0.0,0.0,0.0,-2.7687,0.0,0.0,0.0,0.0,0.0,0.0,0.0,0.0,-1.0187,0.0,-0.3109,0.0,0.0,0.0,0.0,0.0,0.0,0.0,1.1108,0.0,0.0,0.0,0.9548,0.0,0.0,0.0,0.5088,0.4331,0.3134,0.106,0.1318,0.1157,0.0061,0.0,-0.0117,-0.0461,-0.0904,-0.1221,-0.1478,-0.185,-0.2141,-0.2452,-0.2702,-0.2976,-0.3327,-0.3698,-0.3785,-0.3704,-0.3704,-0.3656,-0.3581,-0.3581,-0.3581,-0.3622,-0.3836,-0.4143,-0.4378,-0.4344,-0.4365,-0.4386,-2.2608,0.0,0.0,0.0,0.0,0.0,0.0,0.0,0.0,0.0,0.0,-3.5805,-3.8153,-3.7757,-3.7663,-3.8531,-3.8527,-3.8838,-3.9647,-3.9829,-4.0166,-4.0763,-4.1203,-4.1368,-4.124,-4.0565,-3.9299,-3.7359,-3.457,-3.13,-2.7619,-2.6013,-2.4226,-2.245,0.0,-2.3591,-2.3637,0.0,-2.6658,-2.7138,-2.7584,-2.8419,-2.925,-2.7794,-2.6819,-2.6219,-2.6573,-2.665,-2.6561,-2.6768,-2.6974,0.0,-2.7148,-2.7148,-2.7016,0.0,0.0,0.0,-2.4646,0.0,0.0,0.0,0.0,0.0,0.0,0.0,0.0,0.0,0.0,0.0,0.0,0.0,1.035,0.0,0.0,1.2261,0.0,1.185,0.0,0.0,0.0,0.0,0.0,0.5942,0.4626,0.2564,0.2146,0.1554,0.0507,0.0186,0.0,0.0,-0.0517,-0.079,-0.0783,-0.1243,-0.1782,-0.2395,-0.2574,-0.297,-0.3614,-0.387,-0.3934,-0.3792,-0.3792,-0.371,-0.3581,-0.3581,-0.3581,-0.3585,-0.3622,-0.3612,-0.3581,-0.3581,-0.3605,-0.3632,-2.5369,-2.4618,0.0,-2.5319,-2.5094,0.0,0.0,0.0,0.0,-3.4257,-3.5275,-3.6257,-3.7748,-3.7253,-3.6992,-3.7534,-3.7361,-3.7775,-3.9049,-3.9595,-3.9923,-3.9937,-4.1423,-4.1641,-4.0365,-4.0824,-4.0294,-3.8742,-3.5386,-3.2317,-2.9416,-2.6273,-2.4317,-2.3436,-2.2425,-2.2754,-2.4205,-2.4946,-2.4846,-2.439,-2.5948,-2.6456,-2.6454,0.0,-2.6788,-2.5007,-2.6253,0.0,0.0,-2.5421,-2.5446,0.0,0.0,0.0,0.0,0.0,0.0,0.0,0.0,0.0,0.0,-2.323,0.0,0.0,0.0,0.0,-1.166,0.0,0.0,0.0,0.4787,0.7348,0.0,0.0,0.0,0.0,0.0,0.0,0.0,0.0,0.0,0.0,0.0,0.7664,0.6825,0.0,0.3593,0.2619,0.1612,0.0536,0.0,0.0,0.0,-0.0058,-0.0056,-0.0054,-0.0425,-0.1165,-0.1738,-0.2413,-0.316,-0.3717,-0.3934,-0.3792,-0.3792,-0.371,-0.3581,-0.3581,-0.3581,-0.3595,-0.3731,-0.37,-0.3581,-0.3581,-0.3666,-0.3765,-2.5988,0.0,0.0,-2.6038,-2.6308,-2.7216,0.0,-3.0949,-3.2763,-3.5704,-3.5796,-3.6388,-3.8386,-3.752,-3.7007,-3.748,-3.7737,-3.814,-3.8605,-3.9944,0.0,-4.0197,-4.2059,-4.2629,-4.1654,-4.1801,-4.1286,-4.0053,-3.6964,-3.4052,-3.1235,-2.7459,-2.474,-2.3021,0.0,-2.1701,0.0,0.0,0.0,0.0,0.0,-2.4991,-2.461,0.0,-2.5656,-2.4975,-2.5412,-2.4946,0.0,-2.4049,-2.4149,-2.4255,-2.3949,-2.4062,-2.4255,-2.3884,-2.3569,0.0,0.0,0.0,-2.1553,-2.2705,0.0,0.0,0.0,0.0,0.0,0.0,0.0,0.0,0.0,0.0,0.0,0.0,0.0,0.0,0.0,0.0,1.1677,1.2379,0.0,0.0,0.0,0.0,0.0,0.0,0.3994,0.0,0.163,0.0549,0.0,0.0,0.0,0.0,0.0,0.0,-0.0544,-0.1699,-0.1986,-0.2717,-0.3862,-0.4161,-0.4233,-0.4043,-0.4043,-0.3951,-0.3721,-0.3721,-0.3663,-0.3629,-0.3726,-0.3741,-0.3617,-0.3705,-0.3724,-0.3708,-2.6974,-2.6741,-2.6603,-2.6979,-2.7921,-2.9231,0.0,0.0,-3.3888,-3.6085,-3.5932,-3.6277,-3.8052,0.0,-3.6327,0.0,-3.7259,-3.7466,-3.8033,-3.9536,0.0,-3.9623,-4.1557,-4.2182,0.0,0.0,0.0,-3.9886,-3.7168,-3.4199,-3.0923,-2.7155,-2.4232,-2.2127,0.0,-2.096,-2.0632,-2.2506,-2.3152,0.0,0.0,-2.3644,0.0,0.0,-2.4329,-2.4061,0.0,-2.3735,-2.2851,-2.2828,-2.2831,-2.2818,-2.252,-2.2637,-2.2818,-2.2469,-2.2527,-2.2668,-2.2303,-2.179,0.0,-2.2385,-2.1824,0.0,-2.1869,0.0,-1.6906,0.0,0.0,0.0,0.0,0.0,0.0,0.0,0.0,0.0,0.0,0.6679,0.0,1.1717,1.1844,1.1807,0.0,0.0,0.8359,0.6807,0.44,0.2748,0.0,0.0787,0.0,0.0,0.0,0.0,0.0,0.0,-0.0719,-0.2056,-0.2154,-0.2923,-0.4328,-0.4419,-0.4385,-0.4197,-0.4197,-0.4056,-0.3873,-0.3873,-0.3799,-0.3693,-0.3808,-0.3768,-0.3611,-0.3745,-0.3736,-0.365,-2.8341,-2.8172,-2.8172,-2.822,-2.9701,-3.1383,0.0,0.0,-3.4755,-3.5473,-3.5548,-3.5775,-3.6534,-3.5363,-3.5023,-3.6427,-3.5728,-3.581,-3.7195,-3.8374,0.0,0.0,-4.0021,-4.0406,-3.9084,0.0,0.0,0.0,0.0,-3.2914,-2.8785,-2.5588,-2.2926,-2.0736,-2.1188,0.0,-1.9483,-2.2067,-2.21,-2.0556,-2.2018,-2.252,-2.2517,-2.3084,-2.2879,-2.2307,-2.2897,-2.2192,-2.107,-2.1743,-2.1535,-2.0959,-2.0926,-2.0959,-2.0959,-2.0959,-2.1455,-2.2001,-2.2021,-2.2137,-2.2282,-2.2315,-2.1965,0.0,0.0,0.0,-1.9467,0.0,0.0,0.0,0.0,0.0,0.0,0.0,0.0,0.0,0.0,0.0,0.4348,0.8794,1.1425,1.2639,1.2066,0.9984,0.8417,0.7577,0.4759,0.309,0.0,0.1136,0.0,0.0,0.0,0.0,0.0,0.0,-0.0728,-0.2174,-0.2174,-0.301,-0.4519,-0.4519,-0.4389,-0.4207,-0.4207,-0.4117,-0.4019,-0.4019,-0.3912,-0.3797,-0.3963,-0.3855,-0.3626,-0.3762,-0.3725,-0.3612,-2.8773,-2.9063,-2.9441,-2.9796,-3.0794,-3.182,0.0,0.0,0.0,0.0,-3.4666,-3.4138,-3.4442,-3.368,-3.3062,-3.2929,-3.3456,0.0,0.0,0.0,0.0,-3.6899,-3.8901,-3.9526,-3.859,-4.0438,-4.0238,-3.7865,0.0,0.0,-2.8162,-2.5735,-2.2981,-2.0048,0.0,-2.0214,-1.9407,-2.0964,-2.1457,-2.1353,-2.1754,-2.1907,-2.1945,0.0,-2.1711,-2.116,-2.1719,-2.1318,-2.0481,-2.0338,-2.0381,-2.0416,-2.0139,-2.0227,-2.0483,-2.0483,-2.0608,-2.0767,-2.0769,-2.0562,-2.0524,-2.1008,-2.1038,-2.1117,0.0,0.0,0.0,0.0,0.0,0.0,0.0,0.0,0.0,0.0,0.0,0.0,0.0,0.0,0.0,0.2122,0.4761,0.7797,1.1523,0.9265,0.7611,0.7677,0.4657,0.2906,0.3095,0.0,0.0,0.0,0.0,0.0,0.0,0.0,-0.0745,-0.2174,-0.2174,-0.301,-0.4519,-0.4519,-0.4498,-0.4406,-0.4406,-0.426,-0.4019,-0.4019,-0.3863,-0.3672,-0.3815,-0.3809,-0.3762,-0.367,-0.3676,-0.3758,-2.953,-2.9566,-2.9833,-3.0095,0.0,0.0,-3.2709,-3.3995,0.0,-3.4668,-3.3762,0.0,-3.3219,-3.2056,-3.1342,-3.1598,-3.1903,0.0,-3.3156,0.0,0.0,-3.5188,-3.6458,-3.696,-3.6587,-3.8253,0.0,-3.6192,0.0,0.0,-2.7269,-2.501,0.0,0.0,0.0,-1.9647,-1.9053,-1.9782,-2.064,-2.1535,-2.1131,-2.0795,0.0,-2.0552,-2.0161,-1.9595,-1.9908,-2.0002,-2.0,-1.9782,-1.9839,-2.0,-1.9782,-1.9839,-2.0035,-2.0035,-2.0035,-2.0035,-2.0035,-1.9874,-1.9794,-2.0176,-2.0251,-2.0445,-2.1129,-2.0733,-1.9962,0.0,-1.7623,-1.5768,0.0,0.0,0.0,0.0,0.0,0.0,0.0,0.0,0.0,0.0,-0.2196,0.1071,0.5166,0.6089,0.6557,0.7021,0.4365,0.2852,0.0,0.0,0.0,0.0,0.0,0.0,0.0,-0.0307,-0.1062,-0.2222,-0.2583,-0.3345,-0.4463,-0.4125,-0.3956,-0.3953,-0.3899,-0.3821,-0.3727,-0.3919,-0.3912,-0.3761,-0.375,-0.3718,-0.3718,-0.3626,-0.3653,-0.3718,-3.0152,-2.9792,-2.9792,0.0,0.0,0.0,0.0,-3.3893,0.0,-3.3211,0.0,-3.208,-3.2087,-3.0456,-2.9862,-3.0974,-3.0529,-3.0847,-3.2183,-3.2199,-3.2512,-3.3324,-3.3566,-3.3783,-3.3973,-3.5229,-3.5327,0.0,0.0,0.0,-2.6203,0.0,0.0,0.0,0.0,0.0,0.0,-1.9014,-1.997,-2.1184,-2.0338,-1.9595,-1.9014,-1.907,-1.8671,-1.8106,-1.8106,-1.8688,-1.9479,-1.9479,-1.9479,-1.9479,-1.9479,-1.9479,-1.9479,-1.9479,-1.953,-1.9603,-1.9603,-1.9639,-1.969,-1.969,-1.969,-1.9839,-2.0438,-2.0572,-2.0459,-1.9953,-1.9197,-1.8232,0.0,0.0,0.0,0.0,0.0,0.0,0.0,0.0,0.0,0.0,0.0,0.0,-0.3461,0.1775,0.5229,0.5767,0.4022,0.2981,0.0,0.0,0.0,0.0,0.0,0.0,0.0,-0.0762,-0.1454,-0.2225,-0.3001,-0.379,-0.446,-0.379,-0.34,-0.3282,-0.3176,-0.3174,-0.3284,-0.3691,-0.3882,-0.392,-0.3601,-0.349,-0.349,-0.3509,-0.3506,-0.3526,-3.0152,-2.9792,-2.9792,0.0,0.0,-3.044,-3.0111,-3.0924,-3.1429,-3.0957,-3.0263,-2.9723,-2.9357,-2.8996,-2.8656,-2.8329,-2.8618,0.0,0.0,0.0,0.0,-3.1933,-3.1976,-3.2278,-3.279,-3.41,-3.4398,0.0,0.0,0.0,-2.5505,0.0,0.0,0.0,0.0,0.0,-1.9911,-2.0104,0.0,-2.0076,-2.0012,-1.9595,-1.9014,-1.907,-1.8671,-1.8106,-1.8106,-1.8224,-1.838,-1.838,-1.838,-1.838,-1.838,-1.838,-1.838,-1.838,-1.8688,-1.9043,-1.9043,-1.9369,-1.969,-1.969,-1.969,-1.972,-1.9839,-1.9869,-1.9854,-1.9745,-1.9575,-1.9748,-2.0549,0.0,0.0,0.0,0.0,0.0,0.0,0.0,0.0,0.0,0.0,-1.0352,0.0,-0.1177,0.3285,0.479,0.3688,0.295,0.0,0.0,0.0,0.0,0.0,0.0,0.0,0.0,-0.1454,-0.2225,-0.3001,-0.379,-0.4519,-0.4349,-0.3959,-0.3392,-0.3334,-0.319,-0.296,-0.3075,-0.333,-0.3629,-0.309,-0.2854,-0.2865,-0.2968,-0.2941,-0.2962,-3.0011,-2.9792,-2.9691,0.0,0.0,0.0,0.0,-2.8421,-2.8812,-2.956,-2.9139,-2.8535,-2.7952,-2.7319,-2.6977,-2.7011,-2.7303,-2.776,-2.8538,-2.8814,-2.9309,-2.9974,-2.999,-3.0274,-3.0871,-3.1534,-3.1876,-3.1919,0.0,0.0,-2.6476,0.0,0.0,-2.0556,0.0,-1.988,0.0,0.0,0.0,-1.9597,-1.846,-1.8271,-1.8498,-1.7604,-1.7271,-1.7271,-1.7271,-1.7271,-1.7353,-1.7907,-1.8106,-1.8106,-1.8106,-1.8106,-1.8106,-1.8106,-1.8302,-1.8496,-1.8496,-1.865,-1.8855,-1.8855,-1.908,-1.9207,-1.893,-1.9095,-1.9207,-1.893,-1.9095,-1.9775,-2.1303,-2.3382,0.0,0.0,0.0,0.0,0.0,0.0,-2.5274,0.0,0.0,0.0,0.0,0.0,0.0,0.0,0.0,0.0,0.0,0.0,-0.0246,0.0,0.0,0.0,-0.1472,0.0,-0.2602,-0.294,-0.3656,-0.4181,-0.446,-0.3999,-0.34,-0.2777,-0.2637,-0.2331,-0.2007,-0.2624,-0.3012,-0.3126,-0.317,-0.2765,-0.2324,-0.3013,-0.3084,-0.2925,-2.9792,-2.9691,0.0,0.0,-2.8737,-2.8285,-2.7419,-2.6716,-2.6796,-2.8211,-2.7893,-2.7363,-2.6965,-2.6007,-2.5618,-2.6229,-2.6283,-2.6496,-2.7086,-2.7306,-2.7595,-2.8061,-2.8061,-2.8432,-2.918,-2.9073,-2.9405,0.0,0.0,0.0,0.0,0.0,0.0,0.0,0.0,0.0,0.0,0.0,-1.8475,-1.8854,-1.6951,-1.6767,-1.7468,-1.5956,-1.5688,-1.6107,-1.6126,-1.6126,-1.6269,-1.7068,-1.7531,-1.7747,-1.7747,-1.7747,-1.7747,-1.7747,-1.7827,-1.7947,-1.7947,-1.8027,-1.8106,-1.8106,-1.8419,-1.8612,-1.8224,-1.8419,-1.8612,-1.8185,-1.8648,-1.9602,-2.1096,-2.3365,0.0,0.0,0.0,0.0,0.0,0.0,0.0,0.0,0.0,0.0,-1.3999,0.0,0.0,0.0,0.0,0.0,0.1219,0.0,0.0,0.0,0.0,-0.2093,-0.293,0.0,-0.3585,-0.362,-0.4203,-0.4519,-0.4457,-0.3746,-0.3047,-0.2441,-0.2163,-0.1822,-0.153,-0.2617,-0.293,-0.2752,-0.3226,-0.2692,-0.1764,-0.2988,-0.3141,-0.283,-2.9792,0.0,0.0,0.0,0.0,-2.7406,-2.7306,-2.6377,-2.5803,-2.613,-2.5712,-2.544,-2.5577,-2.5467,-2.5453,-2.5508,-2.5508,-2.5508,-2.5618,-2.6229,-2.6616,-2.6654,-2.6707,-2.7312,-2.8559,-2.7936,-2.8192,0.0,0.0,-2.7467,0.0,0.0,0.0,0.0,0.0,0.0,0.0,-1.8808,-1.8442,-1.7164,-1.6463,-1.6007,-1.5688,-1.505,-1.4835,-1.4869,-1.4891,-1.488,-1.4869,-1.4957,-1.5755,-1.6637,-1.6637,-1.6637,-1.6637,-1.6637,-1.6993,-1.7394,-1.7394,-1.7747,-1.8106,-1.8106,-1.8145,-1.8185,-1.8106,-1.8145,-1.8185,-1.8106,-1.9002,-2.0027,-2.0811,-2.1104,-2.2072,0.0,0.0,0.0,0.0,0.0,-2.6312,-2.4053,0.0,0.0,-1.4064,-1.0835,0.0,0.0,-0.1035,0.0,0.0,0.0,0.0,-0.3227,-0.3014,-0.3015,-0.3083,-0.3443,-0.3572,-0.362,-0.4203,-0.4519,-0.4519,-0.4391,-0.3947,-0.3277,-0.3049,-0.2798,-0.259,-0.337,-0.331,-0.2721,-0.276,-0.2054,-0.1135,-0.2454,-0.26,-0.2303,0.0,0.0,0.0,0.0,0.0,0.0,0.0,-2.4536,-2.4249,-2.4332,-2.4394,-2.4352,-2.4054,-2.4047,-2.4208,-2.4681,-2.4738,-2.4951,-2.5342,-2.5673,-2.5837,-2.5837,-2.5837,-2.6094,-2.6649,-2.6371,-2.6494,0.0,0.0,0.0,0.0,0.0,0.0,0.0,0.0,-1.7875,-1.7109,-1.7038,-1.6715,-1.6277,-1.5342,-1.5174,-1.5381,-1.4515,-1.4376,-1.4687,-1.4699,-1.4688,-1.4709,-1.4686,-1.504,-1.5466,-1.5876,-1.5952,-1.6051,-1.638,-1.6398,-1.6373,-1.6697,-1.6714,-1.6689,-1.7063,-1.7394,-1.7544,-1.7188,-1.7394,-1.7544,-1.7188,-1.7786,-1.8642,-1.9534,-2.0302,-2.1099,-2.2025,0.0,0.0,0.0,0.0,0.0,-2.1872,0.0,-1.8847,-1.4926,-1.2436,0.0,0.0,0.0,0.0,0.0,0.0,0.0,-0.4374,0.0,-0.4084,-0.4825,-0.4561,-0.4363,-0.436,-0.4435,-0.4519,-0.4515,-0.4372,-0.3909,-0.3198,-0.2758,-0.2636,-0.2827,-0.3155,-0.3081,-0.284,-0.321,-0.2656,-0.1821,-0.3093,-0.3238,-0.2905,-2.588,0.0,-2.5161,0.0,-2.4093,-2.3779,-2.3358,-2.296,-2.2721,-2.2721,-2.2743,-2.2887,-2.3103,-2.2849,-2.301,-2.3859,-2.3787,-2.3979,-2.4654,-2.4951,-2.5063,-2.5063,-2.5063,0.0,-2.5398,-2.5175,-2.4898,-2.4542,-2.5287,0.0,0.0,0.0,0.0,0.0,-1.743,-1.6592,-1.6299,-1.5547,-1.5299,-1.5273,-1.4324,-1.4236,-1.4666,-1.3868,-1.3789,-1.4143,-1.415,-1.4171,-1.4176,-1.4168,-1.4183,-1.4294,-1.5096,-1.532,-1.541,-1.5832,-1.5688,-1.541,-1.5876,-1.5776,-1.572,-1.6151,-1.6655,-1.6951,-1.6595,-1.6795,-1.6951,-1.6595,-1.6909,-1.7544,-1.8302,-1.935,-2.0027,-1.9952,0.0,0.0,0.0,-2.0524,0.0,-1.9854,-2.0131,-1.9162,-1.6045,-1.4179,0.0,0.0,0.0,0.0,0.0,0.0,0.0,0.0,0.0,0.0,-0.6027,-0.5291,-0.4918,-0.4914,-0.4609,-0.4519,-0.4515,-0.4358,-0.3964,-0.338,-0.3018,-0.2997,-0.3232,-0.3232,-0.311,-0.3032,-0.3544,-0.3099,-0.2348,-0.3533,-0.3751,-0.3392,-2.5813,-2.5015,-2.434,-2.4329,-2.3531,-2.2891,-2.288,-2.2037,-2.1396,-2.1396,-2.0542,-2.0723,-2.2882,-2.2159,-2.1945,-2.3037,-2.2636,-2.2548,-2.31,-2.3884,-2.4292,0.0,0.0,-2.4624,-2.5398,-2.4681,-2.3676,-2.2344,0.0,0.0,-2.0159,0.0,-1.9084,-1.8158,-1.7149,-1.624,-1.54,-1.4971,-1.4541,-1.4102,-1.3682,-1.3262,-1.2939,-1.2929,-1.2929,-1.2929,-1.2929,-1.2929,-1.2929,-1.2929,-1.2929,-1.3104,-1.434,-1.4698,-1.4698,-1.4709,-1.4709,-1.4698,-1.4709,-1.5141,-1.5588,-1.5632,-1.6051,-1.6522,-1.6522,-1.6522,-1.6522,-1.6522,-1.6909,-1.7312,-1.7312,-1.776,-1.8353,-1.9016,0.0,0.0,0.0,-1.907,0.0,-1.8244,-2.0187,-2.0386,-1.7353,-1.6258,0.0,0.0,0.0,0.0,0.0,0.0,0.0,-0.6555,-0.6183,0.0,-0.603,-0.5291,-0.4918,-0.4914,-0.4609,-0.4519,-0.4519,-0.4515,-0.4382,-0.42,-0.4399,-0.429,-0.3969,-0.3969,-0.3643,-0.3148,-0.3472,-0.3029,-0.237,-0.3562,-0.3697,-0.3403,-2.3176,-2.2633,-2.2121,-2.1804,-2.1251,-2.0851,-2.0851,-2.0568,-2.0379,-2.0379,-2.0083,-2.0228,-2.1295,-2.0567,-2.0464,0.0,-2.1043,-2.0959,0.0,-2.1762,-2.2015,-2.2665,-2.2665,-2.2774,-2.3002,-2.2774,-2.1837,-2.0135,0.0,0.0,0.0,-1.7987,-1.7151,-1.6276,-1.594,-1.5518,-1.4971,-1.4844,-1.4365,-1.3691,-1.3555,-1.3262,-1.2832,-1.2344,-1.2129,-1.2169,-1.2143,-1.2171,-1.2236,-1.2715,-1.2881,-1.2978,-1.3334,-1.3742,-1.4143,-1.456,-1.4422,-1.419,-1.4606,-1.456,-1.4457,-1.4869,-1.5152,-1.5242,-1.5242,-1.5599,-1.5908,-1.5908,-1.6355,-1.6879,-1.7229,-1.7422,-1.772,-1.8314,-1.7693,0.0,-1.6978,0.0,-1.6159,-1.581,-1.7014,-1.7352,-1.5984,-1.5259,0.0,0.0,0.0,0.0,0.0,0.0,0.0,0.0,-0.6139,0.0,-0.6027,-0.5291,-0.4918,-0.4914,-0.4609,-0.4519,-0.4519,-0.4519,-0.4491,-0.4395,-0.4498,-0.4355,-0.4123,-0.4123,-0.3987,-0.372,-0.3837,-0.3727,-0.3547,-0.3406,-0.3358,-0.3351,-2.1934,-2.1396,-2.0898,-2.0615,-2.0205,-1.9912,-1.9912,-1.9603,-1.9441,-1.9441,-1.9117,-1.9105,-1.9575,-1.8858,0.0,-2.0684,-2.0188,-2.0104,-2.0792,-2.0665,-2.0846,-2.1365,-2.1428,-2.1428,-2.1428,-2.1241,0.0,-1.8704,-1.8761,-1.8201,-1.715,-1.6526,-1.5859,-1.5176,-1.5176,-1.4828,-1.4136,-1.3984,-1.3497,-1.2739,-1.254,-1.2328,-1.2049,-1.1625,-1.1416,-1.1408,-1.1437,-1.1405,-1.1466,-1.194,-1.2107,-1.2107,-1.2107,-1.2521,-1.3178,-1.3826,-1.3742,-1.3552,-1.3931,-1.392,-1.3909,-1.4283,-1.4514,-1.4698,-1.4698,-1.5005,-1.532,-1.5543,-1.5908,-1.6312,-1.6909,-1.6993,-1.7021,-1.7149,-1.6549,-1.5959,-1.5508,0.0,-1.4818,0.0,0.0,0.0,0.0,-1.5385,-1.4574,0.0,0.0,0.0,0.0,0.0,0.0,-0.6451,-0.6027,-0.5793,-0.5779,-0.5206,-0.4891,-0.483,-0.4582,-0.4519,-0.4519,-0.4519,-0.4519,-0.4519,-0.4519,-0.4409,-0.4324,-0.4217,-0.417,-0.4123,-0.3758,-0.3731,-0.3779,-0.2987,-0.2819,-0.2899,-2.1846,-2.1152,-2.0566,0.0,-2.0205,0.0,-1.9912,-1.9209,-1.8672,-1.8572,-1.7959,-1.7607,-1.7969,-1.7295,-1.7752,-2.0191,0.0,0.0,-2.0437,-2.044,-2.0462,-2.0526,-2.0526,-2.0504,-2.047,-2.0013,-1.9164,-1.7882,-1.6227,-1.54,-1.5371,-1.5313,-1.5079,-1.4681,-1.4625,-1.3987,-1.2969,-1.2608,-1.2053,-1.1397,-1.0953,-1.0813,-1.0813,-1.0762,-1.0712,-1.072,-1.0728,-1.072,-1.0762,-1.0762,-1.0813,-1.0813,-1.0813,-1.1216,-1.1873,-1.2618,-1.2871,-1.2881,-1.2881,-1.3334,-1.3732,-1.3732,-1.4154,-1.4571,-1.4571,-1.4617,-1.4789,-1.5365,-1.5543,-1.5776,-1.6324,-1.6423,-1.6238,-1.5676,-1.5487,-1.5039,-1.3956,-1.4165,-1.4827,0.0,0.0,0.0,-1.8012,-1.6039,-1.452,0.0,0.0,0.0,0.0,0.0,-0.7557,-0.6044,-0.5871,-0.565,-0.5432,-0.5067,-0.4836,-0.4674,-0.4587,-0.4519,-0.4519,-0.4519,-0.4519,-0.4519,-0.446,-0.446,-0.445,-0.4157,-0.4173,-0.431,-0.3262,-0.3047,-0.3212,-0.2257,-0.2008,-0.212,0.0,0.0,-2.0566,-2.0566,-2.0205,-1.9912,-1.9912,-1.9473,-1.9014,-1.8682,-1.8467,-1.8252,-1.8037,-1.7832,-1.7917,-1.8576,-1.8183,-1.823,-1.8956,-1.8792,-1.8911,-1.9562,-1.9628,-1.9457,-1.9084,-1.8966,-1.8145,-1.6577,-1.5792,-1.5244,-1.4932,-1.4412,-1.396,-1.3506,-1.2955,-1.2396,-1.1865,-1.178,-1.1419,-1.0937,-1.0846,-1.0813,-1.0762,-1.0222,-1.0033,-1.0028,-1.0015,-1.0044,-1.0115,-1.0618,-1.0813,-1.0813,-1.0813,-1.0914,-1.1166,-1.1873,-1.2452,-1.2881,-1.2881,-1.3017,-1.3104,-1.3104,-1.32,-1.3344,-1.3344,-1.3695,-1.405,-1.419,-1.4949,-1.5632,-1.5776,-1.582,-1.5776,-1.5632,-1.4413,-1.3538,-1.3768,-1.2809,-1.2364,0.0,-1.3341,-1.3606,-1.3794,-1.3047,-1.2664,0.0,0.0,0.0,-0.8939,-0.7447,-0.6363,-0.6034,-0.5776,-0.5549,-0.5428,-0.5067,-0.4782,-0.4573,-0.4536,-0.4519,-0.4519,-0.4519,-0.4519,-0.446,-0.3846,-0.3956,-0.4401,-0.3204,-0.2945,-0.3326,-0.2534,-0.2278,-0.2255,-0.1441,-0.125,-0.1341,-2.1147,-2.0869,-2.0489,-1.9923,-1.9656,-1.9341,-1.8788,-1.8357,-1.8022,-1.773,-1.7842,-1.7821,-1.7535,-1.7841,-1.8008,-1.8008,-1.7803,-1.7856,-1.8233,-1.8073,-1.8202,-1.8664,-1.8527,-1.8304,-1.806,-1.7643,-1.691,-1.5762,-1.5164,-1.4666,-1.4326,-1.357,-1.2919,-1.2368,-1.1998,-1.1411,-1.0701,-1.0701,-1.0389,-0.9865,-0.9865,-0.9865,-0.9865,-0.9488,-0.934,-0.9316,-0.9327,-0.9358,-0.9413,-0.9762,-0.9865,-0.9865,-0.9865,-1.0115,-1.0415,-1.0762,-1.1384,-1.1999,-1.2295,-1.2393,-1.2501,-1.2822,-1.2881,-1.2881,-1.2881,-1.3152,-1.3467,-1.3721,-1.4318,-1.4858,-1.5141,-1.5186,-1.4994,-1.4413,-1.347,-1.2793,-1.265,-1.1852,-1.1552,-1.2231,-1.2245,-1.2282,-1.2464,-1.1924,-1.1697,-1.2063,-1.0054,0.0,-0.8714,-0.7161,-0.6175,-0.5827,-0.5606,-0.5379,-0.5162,-0.486,-0.4626,-0.4519,-0.4519,-0.4519,-0.4519,-0.4519,-0.4519,-0.446,-0.3622,-0.3566,-0.3846,-0.2676,-0.2373,-0.2607,-0.1903,-0.1577,-0.1523,-0.0763,-0.0551,-0.0616,-2.0627,-2.0423,-1.9854,-1.8958,-1.8754,-1.839,-1.7423,-1.6982,-1.676,-1.6702,-1.6858,-1.6896,-1.6835,-1.7352,-1.7605,-1.7605,-1.7617,-1.7725,-1.8008,-1.8008,-1.8008,-1.8008,-1.7607,-1.7353,-1.7285,-1.6354,-1.5602,-1.5235,-1.4387,-1.3808,-1.348,-1.2677,-1.1888,-1.1231,-1.1125,-1.0543,-0.9666,-0.9666,-0.9309,-0.8804,-0.8804,-0.8804,-0.8804,-0.8804,-0.8804,-0.8804,-0.8804,-0.8804,-0.8804,-0.8804,-0.8804,-0.8804,-0.8804,-0.9211,-0.9666,-0.9666,-1.0064,-1.0669,-1.1466,-1.1665,-1.1823,-1.2412,-1.2666,-1.2715,-1.2715,-1.2822,-1.3065,-1.3552,-1.3732,-1.3956,-1.4468,-1.456,-1.4201,-1.3045,-1.2667,-1.223,-1.1414,0.0,-1.1279,-1.2011,-1.1663,-1.1567,-1.1943,-1.1234,-1.078,-1.078,-0.9562,-0.8603,-0.8033,-0.6977,-0.618,-0.5617,-0.5406,-0.5186,-0.4887,-0.4606,-0.4519,-0.4519,-0.4519,-0.4519,-0.4519,-0.4519,-0.4408,-0.4294,-0.3624,-0.3234,-0.3065,-0.2343,-0.2009,-0.1952,-0.1229,-0.0951,-0.0838,-0.0224,0.0,0.0,-1.8625,-1.8211,-1.784,-1.7995,-1.7713,-1.7496,-1.7342,-1.7284,-1.7056,-1.6735,-1.6752,-1.6569,-1.6178,-1.6054,-1.5973,-1.5973,-1.5766,-1.6298,-1.7872,-1.8008,-1.8008,-1.8008,-1.7607,-1.7207,-1.6836,-1.528,-1.4455,-1.4392,-1.3353,-1.2645,-1.2145,-1.1249,-1.0524,-1.0044,-0.9485,-0.9102,-0.8956,-0.8956,-0.891,-0.8804,-0.8804,-0.8804,-0.8804,-0.8804,-0.8804,-0.8804,-0.8804,-0.8804,-0.8804,-0.8804,-0.8804,-0.8804,-0.8804,-0.8857,-0.8956,-0.8956,-0.9008,-0.9361,-1.0618,-1.0965,-1.0965,-1.1124,-1.1575,-1.1972,-1.1972,-1.2452,-1.2929,-1.3017,-1.3467,-1.3815,-1.3909,-1.3956,-1.3788,-1.3242,-1.2004,-1.1141,-1.1255,0.0,-0.9811,-1.0567,-0.9747,-0.9136,-0.9187,-0.8661,-0.8287,-0.8287,-0.7404,-0.6889,-0.6951,-0.5948,-0.5363,-0.5459,-0.5247,-0.5026,-0.4728,-0.4551,-0.4519,-0.4519,-0.4519,-0.4519,-0.4519,-0.4519,-0.4125,-0.3456,-0.34,-0.301,-0.2286,-0.1563,-0.1284,-0.1174,-0.0448,-0.0168,-0.0168,-0.0056,0.0,0.0,-1.7587,-1.7483,-1.7147,-1.6731,-1.6539,-1.6273,-1.5628,-1.5553,-1.5493,-1.5338,-1.5637,-1.5779,-1.5544,-1.5671,-1.5757,-1.5634,-1.547,-1.5728,-1.6455,-1.6515,-1.6515,-1.6515,-1.5932,-1.533,-1.4719,-1.3978,-1.3545,-1.3545,-1.2595,-1.1878,-1.1343,-1.0475,-0.9776,-0.9263,-0.8956,-0.8804,-0.8804,-0.8804,-0.8804,-0.8804,-0.8804,-0.8804,-0.8804,-0.8804,-0.8804,-0.8804,-0.8804,-0.8804,-0.8804,-0.8804,-0.8804,-0.8804,-0.8804,-0.8804,-0.8804,-0.8804,-0.9061,-0.9458,-1.0115,-1.0517,-1.0813,-1.0813,-1.1015,-1.1266,-1.1266,-1.1525,-1.1792,-1.1792,-1.1963,-1.219,-1.219,-1.219,-1.1999,-1.1473,-1.0767,0.0,-1.0446,-0.9716,-0.9289,-0.9588,-0.8895,-0.823,-0.7821,-0.7617,-0.7502,-0.7502,-0.6816,-0.6421,-0.6502,-0.5531,-0.505,-0.5121,-0.5128,-0.4989,-0.4694,-0.4619,-0.4545,-0.4519,-0.4519,-0.4519,-0.4463,-0.407,-0.368,-0.3231,-0.251,-0.1953,-0.1563,-0.0839,-0.0504,-0.0448,-0.0112,0.0,0.0,0.0,0.0,0.0,-1.6737,-1.6692,-1.6335,-1.5661,-1.5456,-1.519,-1.4446,-1.4235,-1.4188,-1.4188,-1.4573,-1.4858,-1.4858,-1.5181,-1.5335,-1.5153,-1.5056,-1.4851,-1.4656,-1.4569,-1.4736,-1.5163,-1.447,-1.3743,-1.3025,-1.2826,-1.2704,-1.2704,-1.1745,-1.1055,-1.0622,-0.9874,-0.9239,-0.8804,-0.8804,-0.8804,-0.8804,-0.8804,-0.8804,-0.8804,-0.8804,-0.8804,-0.8804,-0.8804,-0.8804,-0.8804,-0.8804,-0.8699,-0.8533,-0.8533,-0.8533,-0.8533,-0.8533,-0.8646,-0.8804,-0.8804,-0.9159,-0.9562,-0.9562,-0.9969,-1.0364,-1.0364,-1.0466,-1.0568,-1.0568,-1.0669,-1.0813,-1.0813,-1.0813,-1.0813,-1.0813,-1.0813,-1.0592,-1.0015,0.0,-0.9705,0.0,-0.9039,-0.8733,-0.8498,-0.7908,-0.7343,-0.6778,-0.6682,-0.6684,-0.6684,-0.6293,-0.603,-0.6075,-0.5308,-0.4897,-0.4965,-0.5043,-0.4972,-0.4745,-0.4707,-0.4629,-0.457,-0.4536,-0.4519,-0.4463,-0.3901,-0.3456,-0.301,-0.2009,-0.134,-0.0839,-0.0392,-0.0168,0.0,0.0,0.0,0.0,0.0,0.0,0.0,-1.5463,-1.4899,-1.4511,-1.498,-1.4757,-1.4663,-1.4856,-1.4663,-1.4489,-1.4489,-1.4321,-1.4132,-1.4132,-1.3946,-1.3757,-1.3736,-1.3294,-1.3037,-1.3016,-1.2675,-1.3302,-1.5092,-1.447,-1.3743,-1.3025,-1.2266,-1.1888,-1.1888,-1.0538,-0.9836,-0.9782,-0.918,-0.8844,-0.8804,-0.8804,-0.8804,-0.8804,-0.8804,-0.8804,-0.8804,-0.8804,-0.8804,-0.8804,-0.8804,-0.8804,-0.8804,-0.8804,-0.8374,-0.7777,-0.7777,-0.7777,-0.7777,-0.7777,-0.8262,-0.8804,-0.8804,-0.8857,-0.8857,-0.8857,-0.891,-0.8962,-0.8962,-0.9413,-0.9865,-0.9865,-1.0364,-1.0813,-1.0813,-1.0813,-1.0813,-1.0813,-1.0813,-1.0672,-1.0332,0.0,0.0,-0.8435,-0.8026,-0.7543,-0.6877,-0.6132,-0.5673,-0.5614,-0.5178,-0.4879,-0.4879,-0.4831,-0.49,-0.4985,-0.4848,-0.4833,-0.5104,-0.4999,-0.4925,-0.4904,-0.4762,-0.4684,-0.467,-0.4587,-0.4519,-0.4519,-0.4463,-0.3624,-0.2286,-0.2899,-0.1953,-0.0112,-0.0783,-0.0615,0.0,0.0,0.0,0.0,0.0,0.0,0.0,-1.505,-1.4563,-1.4275,-1.4863,-1.4569,-1.4349,-1.4643,-1.4436,-1.4255,-1.4255,-1.4155,-1.4088,-1.4088,-1.3988,-1.3841,-1.3661,-1.3267,-1.2953,-1.2835,-1.2472,-1.2494,-1.28,-1.2553,-1.2123,-1.1498,-1.1233,-1.1045,-1.1045,-1.0513,-1.004,-0.9679,-0.9452,-0.9158,-0.8804,-0.8804,-0.8804,-0.8804,-0.8804,-0.8804,-0.8804,-0.8804,-0.8804,-0.8804,-0.8804,-0.8804,-0.8752,-0.8262,-0.7943,-0.7616,-0.7182,-0.702,-0.702,-0.702,-0.7235,-0.745,-0.745,-0.7777,-0.8103,-0.8103,-0.8427,-0.8804,-0.8804,-0.9008,-0.9159,-0.9159,-0.9361,-0.9562,-0.9562,-0.9562,-0.9562,-0.9562,-0.9183,-0.885,-0.8704,0.0,-0.774,-0.756,-0.7225,-0.6797,-0.6262,-0.5775,-0.5324,-0.4893,-0.4766,-0.4691,-0.4691,-0.4691,-0.4714,-0.4775,-0.4633,-0.4687,-0.4989,-0.4948,-0.4918,-0.4918,-0.486,-0.4735,-0.4548,-0.4546,-0.4239,-0.379,-0.3289,-0.2508,-0.1507,-0.134,-0.0783,0.0,-0.028,-0.028,0.0,0.0,0.0,0.0,0.0,0.0,0.0,-1.5057,-1.4629,-1.4376,-1.4877,-1.4556,-1.4322,-1.4616,-1.4409,-1.4222,-1.4222,-1.4142,-1.4088,-1.4088,-1.4088,-1.4008,-1.3801,-1.3514,-1.322,-1.2913,-1.2518,-1.2037,-1.145,-1.1423,-1.1156,-1.0638,-1.0624,-1.0624,-1.0624,-1.0468,-1.0214,-0.982,-0.9633,-0.9325,-0.8938,-0.8844,-0.8804,-0.8804,-0.8804,-0.8804,-0.8804,-0.8804,-0.8804,-0.8804,-0.8804,-0.8646,-0.8374,-0.7883,-0.7396,-0.6961,-0.6421,-0.6258,-0.6258,-0.6258,-0.6421,-0.6588,-0.6588,-0.6966,-0.7343,-0.7343,-0.7723,-0.8156,-0.8374,-0.8262,-0.8103,-0.8103,-0.8103,-0.8103,-0.8103,-0.8103,-0.8103,-0.8103,-0.7723,-0.7343,-0.7343,-0.6912,-0.6584,-0.6621,-0.6404,-0.6092,-0.5607,-0.5345,-0.5003,-0.4574,-0.4558,-0.464,-0.4687,-0.4691,-0.4711,-0.4758,-0.4663,-0.4721,-0.4975,-0.4986,-0.4986,-0.4986,-0.4986,-0.4857,-0.4606,-0.4558,-0.4169,-0.34,-0.2843,-0.2065,-0.1062,-0.056,-0.0224,0.0,0.0,0.0,0.0,0.0,0.0,0.0,0.0,0.0,0.0,-1.5398,-1.4923,-1.4616,-1.4917,-1.4723,-1.4623,-1.4917,-1.471,-1.4516,-1.4516,-1.4269,-1.4088,-1.4088,-1.4088,-1.4088,-1.4088,-1.3814,-1.352,-1.3227,-1.2639,-1.2037,-1.1456,-1.1423,-1.1156,-1.0638,-1.0624,-1.0624,-1.0624,-1.0267,-1.012,-1.01,-0.9462,-0.919,-0.917,-0.8938,-0.8804,-0.8804,-0.8804,-0.8804,-0.8804,-0.8804,-0.8804,-0.8804,-0.8804,-0.8321,-0.767,-0.767,-0.674,-0.5487,-0.5487,-0.5487,-0.5487,-0.5487,-0.5982,-0.6588,-0.6588,-0.6588,-0.6588,-0.6588,-0.6588,-0.675,-0.7503,-0.7128,-0.6588,-0.6588,-0.6588,-0.6588,-0.6588,-0.6588,-0.6588,-0.6588,-0.6588,-0.6588,-0.6588,-0.6588,-0.6312,-0.5597,-0.5487,-0.5218,-0.457,-0.4519,-0.4519,-0.4519,-0.4519,-0.4584,-0.4677,-0.4694,-0.4758,-0.4911,-0.4918,-0.4986,-0.5125,-0.5131,-0.5131,-0.5131,-0.5131,-0.5057,-0.4914,-0.4762,-0.4263,-0.34,-0.34,-0.2565,-0.1118,-0.1118,-0.0671,0.0,0.0,0.0,0.0,0.0,0.0,0.0,0.0,0.0,0.0,-1.5658,-1.5221,-1.5021,-1.5464,-1.4925,-1.4629,-1.496,-1.4528,-1.4215,-1.4215,-1.4142,-1.4088,-1.4088,-1.4088,-1.4088,-1.4088,-1.3814,-1.3375,-1.2933,-1.2518,-1.2131,-1.1757,-1.1536,-1.1249,-1.0868,-1.0732,-1.0624,-1.0624,-1.0474,-1.0321,-1.0107,-0.9726,-0.9439,-0.917,-0.8938,-0.8804,-0.8804,-0.8804,-0.848,-0.8049,-0.8049,-0.7723,-0.7289,-0.783,-0.7563,-0.6912,-0.6912,-0.6308,-0.5433,-0.4948,-0.4787,-0.4787,-0.4787,-0.4952,-0.5117,-0.5117,-0.5441,-0.5814,-0.5814,-0.5814,-0.5977,-0.6745,-0.675,-0.6588,-0.6588,-0.6588,-0.6588,-0.6588,-0.6588,-0.6588,-0.6588,-0.6204,-0.5814,-0.5814,-0.5441,-0.5062,-0.4842,-0.4787,-0.4732,-0.4515,-0.4519,-0.4519,-0.4519,-0.4558,-0.4643,-0.4687,-0.4792,-0.487,-0.4918,-0.4918,-0.4986,-0.5125,-0.5131,-0.5182,-0.5291,-0.5186,-0.5006,-0.4758,-0.4179,-0.3457,-0.2565,-0.2009,-0.1229,-0.0336,-0.0336,-0.0224,0.0,0.0,0.0,0.0,0.0,0.0,0.0,0.0,0.0,0.0,-1.5792,-1.5463,-1.5305,-1.5578,-1.5087,-1.4784,-1.4967,-1.4568,-1.4295,-1.4262,-1.4162,-1.4088,-1.4088,-1.4088,-1.4088,-1.4088,-1.3688,-1.3319,-1.2966,-1.2149,-1.1617,-1.1452,-1.0741,-1.0422,-1.0466,-1.036,-1.002,-0.9582,-0.9582,-0.9497,-0.927,-0.8944,-0.8681,-0.8411,-0.8153,-0.7979,-0.7943,-0.7943,-0.767,-0.7289,-0.7289,-0.702,-0.6642,-0.7074,-0.6799,-0.6145,-0.6145,-0.571,-0.5058,-0.4625,-0.4519,-0.4519,-0.4519,-0.4519,-0.4519,-0.4519,-0.4787,-0.5109,-0.5109,-0.5109,-0.5222,-0.566,-0.5773,-0.5773,-0.5773,-0.5773,-0.5773,-0.5773,-0.5773,-0.5773,-0.5773,-0.5386,-0.5109,-0.5109,-0.4787,-0.4519,-0.4519,-0.4519,-0.4539,-0.4601,-0.4556,-0.4567,-0.4629,-0.467,-0.4738,-0.4857,-0.5009,-0.5094,-0.5094,-0.5094,-0.5131,-0.522,-0.4829,-0.4935,-0.5428,-0.454,-0.4204,-0.4315,-0.3903,-0.3014,-0.174,-0.1301,-0.0681,0.0,0.0,0.0,0.0,0.0,0.0,0.0,0.0,0.0,0.0,0.0,0.0,0.0,-1.5832,-1.5618,-1.5438,-1.5438,-1.5211,-1.5037,-1.5037,-1.4728,-1.4522,-1.4502,-1.4249,-1.4088,-1.4088,-1.4088,-1.4088,-1.3913,-1.3323,-1.2909,-1.2883,-1.149,-1.0657,-1.064,-0.9527,-0.9066,-0.9524,-0.9562,-0.9086,-0.7992,-0.7992,-0.7982,-0.8021,-0.7671,-0.7456,-0.731,-0.7034,-0.6819,-0.6618,-0.6618,-0.6603,-0.648,-0.648,-0.648,-0.6426,-0.6475,-0.6036,-0.5433,-0.5487,-0.5058,-0.4519,-0.4519,-0.4519,-0.4519,-0.4519,-0.4519,-0.4519,-0.4519,-0.4519,-0.4519,-0.4519,-0.4519,-0.4519,-0.4519,-0.4519,-0.4519,-0.4519,-0.4519,-0.4519,-0.4519,-0.4519,-0.4519,-0.4519,-0.4519,-0.4519,-0.4519,-0.4519,-0.4519,-0.4519,-0.4519,-0.4573,-0.4674,-0.4568,-0.4599,-0.4891,-0.4806,-0.4847,-0.5131,-0.5281,-0.5428,-0.5428,-0.5428,-0.5362,-0.5292,-0.442,-0.435,-0.516,-0.3547,-0.3097,-0.3829,-0.367,-0.2699,-0.1101,-0.1036,-0.0637,0.0,0.0,0.0,0.0,0.0,0.0,0.0,0.0,0.0,0.0,0.0,0.0,0.0,-1.5832,-1.5778,-1.5732,-1.5732,-1.5477,-1.5324,-1.5324,-1.4876,-1.4455,-1.4511,-1.4311,-1.4088,-1.4088,-1.4088,-1.373,-1.2766,-1.1545,-1.0799,-1.0606,-1.0084,-0.9771,-0.9604,-0.9321,-0.8798,-0.8029,-0.8423,-0.8511,-0.8158,-0.8158,-0.8134,-0.8021,-0.7671,-0.7479,-0.7419,-0.7146,-0.6987,-0.6839,-0.6839,-0.6401,-0.576,-0.576,-0.5437,-0.5007,-0.5546,-0.5328,-0.4787,-0.5328,-0.5058,-0.4519,-0.4519,-0.4519,-0.4519,-0.4519,-0.4519,-0.4519,-0.4519,-0.4519,-0.4519,-0.4519,-0.4519,-0.4519,-0.4519,-0.4519,-0.4519,-0.4519,-0.4519,-0.4519,-0.4519,-0.4519,-0.4519,-0.4519,-0.4519,-0.4519,-0.4519,-0.4519,-0.4519,-0.4519,-0.4519,-0.4573,-0.4674,-0.466,-0.4714,-0.4901,-0.4989,-0.5111,-0.5298,-0.5342,-0.5428,-0.5428,-0.5428,-0.509,-0.435,-0.4082,-0.3749,-0.328,-0.2878,-0.3067,-0.3784,-0.2467,-0.1579,-0.1067,-0.0513,-0.0172,0.0,0.0,0.0,0.0,0.0,0.0,0.0,0.0,0.0,0.0,0.0,0.0,0.0,-1.5832,-1.5832,-1.5832,-1.5832,-1.5717,-1.5615,-1.5615,-1.5179,-1.4708,-1.404,-1.3717,-1.3473,-1.3589,-1.323,-1.2448,-1.1091,-1.0478,-1.0148,-1.0028,-0.9237,-0.8783,-0.8681,-0.8132,-0.7584,-0.6965,-0.724,-0.7275,-0.7072,-0.7072,-0.6979,-0.6864,-0.67,-0.6492,-0.6375,-0.622,-0.6073,-0.5956,-0.5868,-0.5543,-0.5117,-0.5033,-0.4787,-0.4519,-0.4893,-0.4787,-0.4574,-0.4893,-0.4787,-0.4519,-0.4519,-0.4519,-0.4519,-0.4519,-0.4519,-0.4519,-0.4519,-0.4519,-0.4519,-0.4519,-0.4519,-0.4519,-0.4519,-0.4519,-0.4519,-0.4519,-0.4519,-0.4519,-0.4519,-0.4519,-0.4519,-0.4519,-0.4519,-0.4519,-0.4519,-0.4519,-0.4519,-0.4519,-0.458,-0.4626,-0.4782,-0.4799,-0.4857,-0.5006,-0.5155,-0.5274,-0.5422,-0.5428,-0.5226,-0.4755,-0.4755,-0.4284,-0.3413,-0.2945,-0.2678,-0.2678,-0.1811,-0.1839,-0.2575,-0.1698,-0.1061,-0.0553,-0.0179,0.0,0.0,0.0,0.0,0.0,0.0,0.0,0.0,0.0,0.0,0.0,0.0,0.0,0.0,-1.5832,-1.5635,-1.5439,-1.5439,-1.5248,-1.5242,-1.5439,-1.5089,-1.4389,-1.3514,-1.2882,-1.2529,-1.262,-1.1899,-1.0773,-0.9529,-0.9572,-0.9649,-0.9615,-0.8479,-0.7813,-0.778,-0.6838,-0.6308,-0.6335,-0.6288,-0.6122,-0.584,-0.584,-0.5752,-0.5589,-0.5589,-0.544,-0.5169,-0.5169,-0.5091,-0.4948,-0.4819,-0.4735,-0.468,-0.4551,-0.4539,-0.4519,-0.4519,-0.4519,-0.4519,-0.4519,-0.4519,-0.4519,-0.4519,-0.4519,-0.4519,-0.4519,-0.4519,-0.4519,-0.4519,-0.4519,-0.4519,-0.4519,-0.4519,-0.4519,-0.4519,-0.4519,-0.4525,-0.4553,-0.4536,-0.4519,-0.4519,-0.4519,-0.4519,-0.4519,-0.4519,-0.4525,-0.4553,-0.4556,-0.4567,-0.4591,-0.465,-0.4785,-0.4938,-0.4979,-0.504,-0.5159,-0.5287,-0.5359,-0.516,-0.516,-0.4755,-0.3813,-0.3749,-0.3347,-0.2476,-0.1675,-0.1608,-0.221,-0.074,-0.0333,-0.1104,-0.1104,-0.0713,0.0,0.0,0.0,0.0,0.0,0.0,0.0,0.0,0.0,0.0,0.0,0.0,0.0,0.0,0.0,0.0,-1.5832,-1.4949,-1.4166,-1.4166,-1.3204,-1.2818,-1.3974,-1.2914,-1.2388,-1.3304,-1.2227,-1.1329,-1.1319,-1.0224,-0.9322,-0.8982,-0.8074,-0.7487,-0.7357,-0.714,-0.6975,-0.6919,-0.6603,-0.6505,-0.6637,-0.639,-0.6176,-0.5996,-0.5996,-0.5857,-0.5589,-0.5589,-0.5498,-0.5328,-0.5328,-0.5247,-0.5101,-0.5081,-0.4925,-0.4687,-0.4667,-0.4579,-0.4519,-0.4519,-0.4519,-0.4519,-0.4519,-0.4519,-0.4519,-0.4519,-0.4519,-0.4519,-0.4519,-0.4519,-0.4519,-0.4519,-0.4519,-0.4519,-0.4519,-0.4519,-0.4519,-0.4519,-0.4519,-0.4553,-0.4629,-0.4558,-0.4519,-0.4519,-0.4519,-0.4519,-0.4519,-0.4519,-0.4563,-0.4636,-0.466,-0.4707,-0.484,-0.4874,-0.4942,-0.5084,-0.522,-0.5308,-0.5328,-0.5415,-0.509,-0.4284,-0.4217,-0.3816,-0.2945,-0.2878,-0.2477,-0.1541,-0.134,-0.1006,-0.0404,-0.0135,-0.0067,-0.0201,-0.0201,-0.0132,0.0,0.0,0.0,0.0,0.0,0.0,0.0,0.0,0.0,0.0,0.0,0.0,0.0,0.0,0.0,0.013,-1.5832,-1.4752,-1.3878,-1.3878,-1.2813,-1.2139,-1.2716,-1.2143,-1.1697,-1.1505,-1.0839,-1.0382,-1.0496,-0.9762,-0.8964,-0.8173,-0.7453,-0.7112,-0.7051,-0.6973,-0.6898,-0.6831,-0.6681,-0.663,-0.6698,-0.6488,-0.6346,-0.6278,-0.6196,-0.6047,-0.5837,-0.5837,-0.5711,-0.5491,-0.5491,-0.5403,-0.5254,-0.5169,-0.5053,-0.4931,-0.485,-0.4779,-0.4718,-0.4718,-0.4663,-0.4579,-0.4549,-0.4519,-0.4519,-0.4519,-0.4519,-0.4519,-0.4519,-0.4519,-0.4519,-0.4519,-0.4519,-0.4519,-0.4519,-0.458,-0.4589,-0.4589,-0.4304,-0.4021,-0.4079,-0.3628,-0.3355,-0.389,-0.4007,-0.3978,-0.3993,-0.4419,-0.4741,-0.4806,-0.4819,-0.4843,-0.4911,-0.4989,-0.5091,-0.5243,-0.5321,-0.5463,-0.5481,-0.5001,-0.4448,-0.4107,-0.3578,-0.2878,-0.1942,-0.1942,-0.1475,-0.0605,-0.0605,-0.0404,0.0,0.0,0.0,0.0,0.0,0.0,0.0,0.0,0.0,0.0,0.0,0.0,0.0,0.0,0.0,0.0,0.0,0.0,0.0,0.0,0.0,0.0066]},{"header":{"parameterUnit":"m.s-1","parameterCategory":1,"la1":30.6,"la2":28.766,"lo1":-90.7593,"lo2":-88.6598,"dy":0.0162,"dx":0.0183,"nx":116,"ny":114,"refTime":"2023-05-28T06:00:00:Z","depth":0,"parameterNumber":3,"parameterNumberName":"V-component_of_WINDS"},"data":[0.0,0.0,0.0,0.0,0.0,0.0,0.0,0.0,0.0,0.0,0.0,0.0,0.0,0.0,0.0,0.0,0.0,0.0,0.0,0.0,0.0,0.0,0.0,0.0,0.0,0.0,0.0,0.0,0.0,0.0,0.0,0.0,0.0,0.0,0.0,0.0,0.0,0.0,0.0,0.0,0.0,0.0,0.0,0.0,0.0,0.0,0.0,0.0,0.0,0.0,0.0,0.0,0.0,0.0,0.0,0.0,0.0,0.0,0.0,0.0,0.0,0.0,0.0,0.0,0.0,0.0,0.0,0.0,0.0,0.0,0.0,0.0,0.0,0.0,0.0,0.0,0.0,0.0,0.0,0.0,0.0,0.0,0.0,0.0,0.0,0.0,0.0,0.0,0.0,0.0,0.0,0.0,0.0,0.0,0.0,0.0,0.0,0.0,0.0,0.0,0.0,0.0,0.0,0.0,0.0,0.0,0.0,0.0,0.0,0.0,0.0,0.0,0.0,0.0,0.0,0.0,0.0,0.0,0.0,0.0,0.0,0.0,0.0,0.0,0.0,0.0,0.0,0.0,0.0,0.0,0.0,0.0,0.0,0.0,0.0,0.0,0.0,0.0,0.0,0.0,0.0,0.0,0.0,0.0,0.0,0.0,0.0,0.0,0.0,0.0,0.0,0.0,0.0,0.0,0.0,0.0,0.0,0.0,0.0,0.0,0.0,0.0,0.0,0.0,0.0,0.0,0.0,0.0,0.0,0.0,0.0,0.0,0.0,0.0,0.0,0.0,0.0,0.0,0.0,0.0,0.0,0.0,0.0,0.0,0.0,0.0,0.0,0.0,0.0,0.0,0.0,0.0,0.0,0.0,0.0,0.0,0.0,0.0,0.0,0.0,0.0,0.0,0.0,0.0,0.0,0.0,0.0,0.0,0.0,0.0,0.0,0.0,0.0,0.0,0.0,0.0,0.0,0.0,0.0,0.0,0.0,0.0,0.0,0.0,0.0,0.0,0.0,0.0,0.0,0.0,0.0,0.0,0.0,0.0,0.0,0.0,0.0,0.0,0.0,0.0,0.0,0.0,0.0,0.0,0.0,0.0,0.0,0.0,0.0,0.0,0.0,0.0,0.0,0.0,0.0,0.0,0.0,0.0,0.0,0.0,0.0,0.0,0.0,0.0,0.0,0.0,0.0,0.0,0.0,0.0,0.0,0.0,0.0,0.0,0.0,0.0,0.0,0.0,0.0,0.0,0.0,0.0,0.0,0.0,0.0,0.0,0.0,0.0,0.0,0.0,0.0,0.0,0.0,0.0,0.0,0.0,0.0,0.0,0.0,0.0,0.0,0.0,0.0,0.0,0.0,0.0,0.0,0.0,0.0,0.0,0.0,0.0,0.0,0.0,0.0,0.0,0.0,0.0,0.0,0.0,0.0,0.0,0.0,0.0,0.0,0.0,0.0,0.0,0.0,0.0,0.0,0.0,0.0,0.0,0.0,0.0,0.0,0.0,0.0,0.0,0.0,0.0,0.0,0.0,0.0,0.0,0.0,0.0,0.0,0.0,0.0,0.0,0.0,0.0,0.0,0.0,0.0,0.0,0.0,0.0,0.0,0.0,0.0,0.0,0.0,0.0,0.0,0.0,0.0,0.0,0.0,0.0,0.0,0.0,0.0,0.0,0.0,0.0,0.0,0.0,0.0,0.0,0.0,0.0,0.0,0.0,0.0,0.0,0.0,0.0,0.0,0.0,0.0,0.0,0.0,0.0,0.0,0.0,0.0,0.0,0.0,0.0,0.0,0.0,0.0,0.0,0.0,0.0,0.0,0.0,0.0,0.0,0.0,0.0,0.0,0.0,0.0,0.0,0.0,0.0,0.0,0.0,0.0,0.0,0.0,0.0,0.0,0.0,0.0,0.0,0.0,0.0,0.0,0.0,0.0,0.0,0.0,0.0,0.0,0.0,0.0,0.0,0.0,0.0,0.0,0.0,0.0,0.0,0.0,0.0,0.0,0.0,0.0,0.0,0.0,0.0,0.0,0.0,0.0,0.0,0.0,0.0,0.0,0.0,0.0,0.0,0.0,0.0,0.0,0.0,0.0,0.0,0.0,0.0,0.0,0.0,0.0,0.0,0.0,0.0,0.0,0.0,0.0,0.0,0.0,0.0,0.0,0.0,0.0,0.0,0.0,0.0,0.0,0.0,0.0,0.0,0.0,0.0,0.0,0.0,0.0,0.0,0.0,0.0,0.0,0.0,0.0,0.0,0.0,0.0,0.0,0.0,0.0,0.0,0.0,0.0,0.0,0.0,0.0,0.0,0.0,0.0,0.0,0.0,0.0,0.0,0.0,0.0,0.0,0.0,0.0,0.0,0.0,0.0,0.0,0.0,0.0,0.0,0.0,0.0,0.0,0.0,0.0,0.0,0.0,0.0,0.0,0.0,0.0,0.0,0.0,0.0,0.0,0.0,0.0,0.0,0.0,0.0,0.0,0.0,0.0,0.0,0.0,0.0,0.0,0.0,0.0,0.0,0.0,0.0,0.0,0.0,0.0,0.0,0.0,0.0,0.0,0.0,0.0,0.0,0.0,0.0,0.0,0.0,0.0,0.0,0.0,0.0,0.0,0.0,0.0,0.0,0.0,0.0,0.0,0.0,0.0,0.0,0.0,0.0,0.0,0.0,0.0,0.0,0.0,0.0,0.0,0.0,0.0,0.0,0.0,0.0,0.0,0.0,0.0,0.0,0.0,0.0,0.0,0.0,0.0,0.0,0.0,0.0,0.0,0.0,0.0,0.0,0.0,0.0,0.0,0.0,0.0,0.0,0.0,0.0,0.0,0.0,0.0,0.0,0.0,0.0,0.0,0.0,0.0,0.0,0.0,0.0,0.0,0.0,0.0,0.0,0.0,0.0,0.0,0.0,0.0,0.0,0.0,0.0,0.0,0.0,0.0,0.0,0.0,0.0,0.0,0.0,0.0,0.0,0.0,0.0,0.0,0.0,0.0,0.0,0.0,0.0,0.0,0.0,0.0,0.0,0.0,0.0,0.0,0.0,0.0,0.0,0.0,0.0,0.0,0.0,0.0,0.0,0.0,0.0,0.0,0.0,0.0,0.0,0.0,0.0,0.0,0.0,0.0,0.0,0.0,0.0,0.0,0.0,0.0,0.0,0.0,0.0,0.0,0.0,0.0,0.0,0.0,0.0,0.0,0.0,0.0,0.0,0.0,0.0,0.0,0.0,0.0,0.0,0.0,0.0,0.0,0.0,0.0,0.0,0.0,0.0,0.0,0.0,0.0,0.0,0.0,0.0,0.0,0.0,0.0,0.0,0.0,0.0,0.0,0.0,0.0,0.0,0.0,0.0,0.0,0.0,0.0,0.0,0.0,0.0,0.0,0.0,0.0,0.0,0.0,0.0,0.0,0.0,0.0,0.0,0.0,0.0,0.0,0.0,0.0,0.0,0.0,0.0,0.0,0.0,0.0,0.0,0.0,0.0,0.0,0.0,0.0,0.0,0.0,0.0,0.0,0.0,0.0,0.0,0.0,0.0,0.0,0.0,0.0,0.0,0.0,0.0,0.0,0.0,0.0,0.0,0.0,0.0,0.0,0.0,0.0,0.0,0.0,0.0,0.0,0.0,0.0,0.0,0.0,0.0,0.0,0.0,0.0,0.0,0.0,0.0,0.0,0.0,0.0,0.0,0.0,0.0,0.0,0.0,0.0,0.0,0.0,0.0,0.0,0.0,0.0,0.0,0.0,0.0,0.0,0.0,0.0,0.0,0.0,0.0,0.0,0.0,0.0,0.0,0.0,0.0,0.0,0.0,0.0,0.0,0.0,0.0,0.0,0.0,0.0,0.0,0.0,0.0,0.0,0.0,0.0,0.0,0.0,0.0,0.0,0.0,0.0,0.0,0.0,0.0,0.0,0.0,0.0,0.0,0.0,0.0,0.0,0.0,0.0,0.0,0.0,0.0,0.0,0.0,0.0,0.0,0.0,0.0,0.0,0.0,0.0,0.0,0.0,0.0,0.0,0.0,0.0,0.0,0.0,0.0,0.0,0.0,0.0,0.0,0.0,0.0,0.0,0.0,0.0,0.0,0.0,0.0,0.0,0.0,0.0,0.0,0.0,0.0,0.0,0.0,0.0,0.0,0.0,0.0,0.0,0.0,0.0,0.0,0.0,0.0,0.0,0.0,0.0,0.0,0.0,0.0,0.0,0.0,0.0,0.0,0.0,0.0,0.0,0.0,0.0,0.0,0.0,0.0,0.0,0.0,0.0,0.0,0.0,0.0,0.0,0.0,0.0,0.0,0.0,0.0,0.0,0.0,0.0,0.0,0.0,0.0,0.0,0.0,0.0,0.0,0.0,0.0,0.0,0.0,0.0,0.0,0.0,0.0,0.0,0.0,0.0,0.0,0.0,0.0,0.0,0.0,0.0,0.0,0.0,0.0,0.0,0.0,0.0,0.0,0.0,0.0,0.0,0.0,0.0,0.0,0.0,0.0,0.0,0.0,0.0,0.0,0.0,0.0,0.0,0.0,0.0,0.0,0.0,0.0,0.0,0.0,0.0,0.0,0.0,0.0,0.0,0.0,0.0,0.0,0.0,0.0,0.0,0.0,0.0,0.0,0.0,0.0,0.0,0.0,0.0,0.0,0.0,0.0,0.0,0.0,0.0,0.0,0.0,0.0,0.0,0.0,0.0,0.0,0.0,0.0,0.0,0.0,0.0,0.0,0.0,0.0,0.0,0.0,0.0,0.0,0.0,0.0,0.0,0.0,0.0,0.0,0.0,0.0,0.0,0.0,0.0,0.0,0.0,0.0,0.0,0.0,0.0,0.0,0.0,0.0,0.0,0.0,0.0,0.0,0.0,0.0,0.0,0.0,0.0,0.0,0.0,0.0,0.0,0.0,0.0,0.0,0.0,0.0,0.0,0.0,0.0,0.0,0.0,0.0,0.0,0.0,0.0,0.0,0.0,0.0,0.0,0.0,0.0,0.0,0.0,0.0,0.0,0.0,0.0,0.0,0.0,0.0,0.0,0.0,0.0,0.0,0.0,0.0,0.0,0.0,0.0,0.0,0.0,0.0,0.0,0.0,0.0,0.0,0.0,0.0,0.0,0.0,0.0,0.0,0.0,0.0,0.0,0.0,0.0,0.0,0.0,0.0,0.0,0.0,0.0,0.0,0.0,0.0,0.0,0.0,0.0,0.0,0.0,0.0,0.0,0.0,0.0,0.0,0.0,0.0,0.0,0.0,0.0,0.0,0.0,0.0,0.0,0.0,0.0,0.0,0.0,0.0,0.0,0.0,0.0,0.0,0.0,0.0,0.0,0.0,0.0,0.0,0.0,0.0,0.0,0.0,0.0,0.0,0.0,0.0,0.0,0.0,0.0,0.0,0.0,0.0,0.0,0.0,0.0,0.0,0.0,0.0,0.0,0.0,0.0,0.0,0.0,0.0,0.0,0.0,0.0,0.0,0.0,0.0,0.0,0.0,0.0,0.0,0.0,0.0,0.0,0.0,0.0,0.0,0.0,0.0,0.0,0.0,0.0,0.0,0.0,0.0,0.0,0.0,0.0,0.0,0.0,0.0,0.0,0.0,0.0,0.0,0.0,0.0,0.0,0.0,0.0,0.0,0.0,0.0,0.0,0.0,0.0,0.0,0.0,0.0,0.0,0.0,0.0,0.0,0.0,0.0,0.0,0.0,0.0,0.0,0.0,0.0,0.0,0.0,0.0,0.0,0.0,0.0,0.0,0.0,0.0,0.0,0.0,0.0,0.0,0.0,0.0,0.0,0.0,0.0,0.0,0.0,0.0,0.0,0.0,0.0,0.0,0.0,0.0,0.0,0.0,0.0,0.0,0.0,0.0,0.0,0.0,0.0,0.0,0.0,0.0,0.0,0.0,0.0,0.0,0.0,0.0,0.0,0.0,0.0,0.0,0.0,0.0,0.0,0.0,0.0,0.0,0.0,0.0,0.0,0.0,0.0,0.0,0.0,0.0,0.0,0.0,0.0,0.0,0.0,0.0,0.0,0.0,0.0,0.0,0.0,0.0,0.0,0.0,0.0,0.0,0.0,0.0,0.0,0.0,0.0,0.0,0.0,0.0,0.0,0.0,0.0,-0.1442,0.0,0.0,0.0,0.0,0.0,0.0,0.0,0.0,0.0,0.0,0.0,0.0,0.0,0.0,0.0,0.0,0.0,0.0,0.0,0.0,0.0,0.0,0.0,0.0,0.0,0.0,0.0,0.0,0.0,0.0,0.0,0.0,0.0,0.0,0.0,0.0,0.0,0.0,0.0,-0.0078,-0.2943,-0.6472,-0.8901,-1.1206,-1.3294,0.0,0.0,0.0,0.0,0.0,0.0,0.0,0.0,0.0,0.0,0.0,0.0,0.0,0.0,0.0,0.0,0.0,0.0,0.0,0.0,0.0,0.0,0.0,0.0,0.0,0.0,0.0,0.0,0.0,0.0,0.0,0.0,0.0,0.0,0.0,0.0,0.0,0.0,0.0,0.0,0.0,0.0,0.0,0.0,0.0,0.0,0.0,0.0,0.0,0.0,0.0,0.0,0.0,0.0,0.0,0.0,0.0,0.0,0.0,0.0,0.0,0.0,0.0,0.0,0.0,0.0,0.0,0.0,0.0,0.0,0.0,-0.1447,0.0,0.0,0.0,0.0,0.0,0.0,0.0,0.0,0.0,0.0,0.0,0.0,0.0,0.0,0.0,0.0,0.0,0.0,0.0,0.0,0.0,0.0,0.0,-1.6312,-1.5802,-1.4612,-1.4363,-1.4031,0.0,0.0,0.0,0.0,0.0,0.0,0.0,0.7556,0.7789,0.8078,0.4395,0.0449,-0.3813,-0.5793,-0.8075,-1.0615,-1.1437,0.0,0.0,0.0,0.0,0.0,0.0,0.0,0.0,0.0,0.0,0.0,0.0,0.0,0.0,0.0,0.0,0.0,0.0,0.0,0.0,0.0,0.0,0.0,0.0,0.0,0.0,0.0,0.0,0.0,0.0,0.0,0.0,0.0,0.0,0.0,0.0,0.0,0.0,0.0,0.0,0.0,0.0,0.0,0.0,0.0,0.0,0.0,0.0,0.0,0.0,0.0,0.0,0.0,0.0,0.0,0.0,0.0,0.0,0.0,0.0,0.0,0.0,0.0,0.7363,0.6907,0.5967,0.6082,0.5485,0.4185,0.2005,0.0365,-0.074,-0.1902,0.0,0.0,0.0,0.0,0.0,0.0,0.0,0.0,0.0,0.0,0.0,0.0,0.0,0.0,0.0,0.0,0.0,0.0,0.0,0.0,0.0,-1.8033,-1.8131,-1.4095,-1.3985,-1.3747,-1.2877,0.0,0.0,0.0,0.0,0.0,0.8274,0.8065,0.7343,0.6317,0.2331,-0.0727,-0.2945,-0.5526,-0.7288,-0.8478,-1.005,-1.2093,-1.4436,0.0,0.0,0.0,0.0,0.0,0.0,0.0,0.0,0.0,0.0,0.0,0.0,0.0,0.0,0.0,0.0,0.0,0.0,0.0,0.0,0.0,0.0,0.0,0.0,0.0,0.0,0.0,0.0,0.0,0.0,0.0,0.0,0.0,0.0,0.0,0.0,0.0,0.0,0.0,0.0,0.0,1.0397,0.8796,0.0,0.0,0.0,0.0,0.0,0.0,0.0,0.0,0.0,0.0,0.0,0.0,0.0,0.6966,0.7109,0.7265,0.7343,0.7346,0.7621,0.758,0.7356,0.7495,0.6783,0.5523,0.5213,0.0,0.3209,0.2121,0.0,0.0,0.0,0.0,0.0,0.0,0.0,0.0,0.0,0.0,0.0,0.0,0.0,0.0,0.0,0.0,0.0,0.0,0.0,0.0,0.0,-1.3091,-1.3146,-1.1336,-1.1981,-1.2336,-1.1995,-1.1765,0.0,0.0,0.0,0.2516,0.7348,0.7048,0.598,0.4118,0.2034,-0.0066,-0.2272,-0.546,-0.7451,-0.8506,-0.9238,-1.103,-1.3502,-1.3862,0.0,0.0,0.0,0.0,0.0,0.0,0.0,0.0,0.0,0.0,0.0,0.0,0.0,0.0,0.0,0.0,0.0,0.0,0.0,0.0,0.0,0.0,0.0,0.0,0.0,0.0,0.0,0.0,0.0,0.0,0.0,0.0,0.0,0.0,0.0,0.0,0.0,0.0,0.0,1.3202,1.141,0.8702,0.7996,0.7856,0.0,0.0,0.0,0.0,0.0,0.0,0.0,0.0,0.0,0.7166,0.7261,0.7373,0.7516,0.7668,0.8126,0.8882,0.8933,0.8968,0.8999,0.8972,0.8318,0.7045,0.7045,0.6715,0.6068,0.4124,0.3599,0.3847,0.0,0.0,0.0,0.0,0.3723,0.3749,0.0,0.0,0.0,0.0,0.0,0.0,0.0,0.0,0.0,0.0,0.0,0.0,-0.598,-0.5979,-0.637,-0.7621,-0.9033,-1.003,-1.0457,-0.9429,-0.7715,0.0,-0.0791,0.3118,0.6253,0.5922,0.4793,0.2947,0.2197,0.0465,-0.2072,-0.518,-0.7372,-0.8582,-0.9035,-1.0649,-1.3009,-1.3155,-1.3892,-1.4875,0.0,0.0,0.0,0.0,0.0,0.0,0.0,0.0,0.0,0.0,0.0,0.0,0.0,0.0,0.0,0.0,0.0,0.0,0.0,0.0,0.0,0.0,0.0,0.0,0.0,0.0,0.0,0.0,0.0,0.0,0.0,0.0,0.0,0.0,0.0,0.0,0.0,1.3966,1.2876,0.9659,0.9401,0.9201,0.0,0.0,0.0,0.0,0.0,0.0,0.7041,0.7143,0.7288,0.7478,0.7594,0.7723,0.7868,0.8234,0.8856,0.9828,1.0166,1.0237,1.0237,0.9951,0.9275,0.8311,0.8021,0.7926,0.7727,0.5816,0.5005,0.4975,0.4999,0.496,0.4732,0.4758,0.4708,0.4694,0.0,0.0,0.0,0.0,0.0,0.0,0.0,0.0,0.0,0.0,0.0,0.4868,0.2617,0.2226,0.0594,-0.3179,-0.5222,-0.6754,-0.7879,-0.6783,-0.5225,-0.3303,0.0907,0.396,0.5538,0.5166,0.4493,0.3553,0.2398,0.0266,-0.2676,-0.4614,-0.6383,-0.8086,-0.9781,-1.1414,-1.3017,-1.3535,-1.4354,-1.5342,-1.4985,0.0,0.0,0.0,0.0,0.0,0.0,0.0,0.0,0.0,0.0,0.0,0.0,0.0,0.0,0.0,0.0,0.0,0.0,0.0,0.0,0.0,0.0,0.0,0.0,0.0,0.0,0.0,0.0,0.0,0.0,0.0,0.0,0.0,0.0,0.0,0.0,0.0,0.0,1.2997,1.2124,0.0,0.0,0.0,0.0,0.8665,0.7731,0.7193,0.7343,0.7356,0.7492,0.778,0.7797,0.7875,0.8028,0.8952,0.9448,0.9544,1.0571,1.1027,1.1027,0.9833,0.9279,0.9189,0.8085,0.7621,0.7645,0.7717,0.7645,0.7517,0.7707,0.7614,0.7369,0.7053,0.709,0.7524,0.0,0.0,0.0,0.0,0.0,0.0,0.0,0.0,2.0453,1.4963,1.18,0.8941,0.5945,0.4943,0.3379,0.0531,-0.1744,-0.3708,-0.5457,-0.4944,-0.3735,-0.1842,0.2138,0.5303,0.7549,0.6868,0.5597,0.3828,0.184,-0.0504,-0.3172,-0.5771,-0.7634,-0.8902,-1.037,-1.1905,-1.3386,-1.369,-1.4678,-1.6073,-1.5956,-1.5928,0.0,0.0,0.0,0.0,0.0,0.0,0.0,0.0,0.0,0.0,0.0,0.0,0.0,0.0,0.0,0.0,0.0,0.0,0.0,0.0,0.0,0.0,0.0,0.0,0.0,0.0,0.0,0.0,0.0,0.0,0.0,0.0,0.0,0.0,0.0,0.0,0.0,1.3006,1.2806,0.0,1.0948,0.9933,0.9323,0.9232,0.8254,0.7743,0.7797,0.7801,0.7848,0.7957,0.7862,0.8222,0.8952,0.9254,1.0188,1.176,1.2135,1.2279,1.2279,1.1094,1.0084,0.9254,0.8059,0.76,0.7701,0.8752,0.8577,0.7678,0.7967,0.7875,0.7646,0.7502,0.8004,0.8915,0.0,0.0,0.0,0.0,0.0,0.0,0.0,0.0,1.8615,1.531,1.49,1.3594,1.0208,0.8792,0.6933,0.3952,0.1534,-0.0704,-0.2671,-0.2222,-0.1112,0.0733,0.4313,0.7167,0.9005,0.7659,0.5892,0.3765,0.1783,-0.0976,-0.4433,-0.6529,-0.8328,-0.9843,-1.1233,-1.2651,-1.4063,-1.4383,-1.532,-1.6539,-1.7034,-1.7125,-1.6788,0.0,0.0,0.0,0.0,0.0,0.0,0.0,0.0,0.0,0.0,0.0,0.0,0.0,0.0,0.0,0.0,0.0,0.0,0.0,0.0,0.0,0.0,0.0,0.0,0.0,0.0,0.0,0.0,0.0,0.0,0.0,0.0,0.0,0.0,0.0,1.6199,1.3716,1.3966,1.367,1.1971,1.1273,1.0834,1.0368,0.966,0.9312,0.9312,0.9312,0.9284,0.9221,0.8724,0.902,1.0,0.9899,1.0798,1.2884,1.3165,1.3395,1.33,1.2132,1.114,1.0239,0.9071,0.8592,0.8536,0.9242,0.9217,0.8767,0.7966,0.7605,0.7707,0.9301,0.9653,0.9433,0.0,0.0,0.0,0.0,0.0,0.0,0.0,1.348,1.4669,1.9673,2.0413,1.9159,1.568,1.4179,1.158,0.7131,0.4564,0.2364,0.0392,0.1352,0.2751,0.4539,0.7605,0.9424,0.9677,0.7447,0.5292,0.3346,0.2314,-0.1033,-0.6462,-0.651,-0.8041,-1.0797,-1.2259,-1.3642,-1.4983,-1.5721,-1.6242,-1.6722,-1.8101,-1.7984,-1.6863,0.0,0.0,0.0,0.0,0.0,0.0,0.0,0.0,0.0,0.0,0.0,0.0,0.0,0.0,0.0,0.0,0.0,0.0,0.0,0.0,0.0,0.0,0.0,0.0,0.0,0.0,0.0,0.0,0.0,0.0,0.0,0.0,0.0,1.7425,1.8034,1.778,1.5466,1.5833,1.5628,1.3737,1.3726,1.3392,1.2042,1.1945,1.1945,1.1935,1.1935,1.1732,1.1497,1.0455,1.0265,1.1171,1.0955,1.1473,1.2622,1.3604,1.4088,1.4088,1.2851,1.2322,1.2225,1.1117,1.0389,1.01,0.9298,0.9883,1.0936,0.8352,0.729,0.7749,1.2287,1.1854,0.9165,0.0,0.0,0.0,0.0,0.0,0.0,0.0,0.6852,1.1101,1.998,2.1652,2.0905,1.805,1.635,1.4075,1.0754,0.8169,0.6076,0.4599,0.5314,0.6934,0.9578,1.0775,1.1216,1.0821,0.8698,0.6539,0.4397,0.23,-0.0342,-0.3439,-0.5054,-0.7033,-0.9347,-1.1197,-1.3159,-1.5186,-1.6384,-1.7351,-1.8142,-1.8538,-1.8472,-1.8084,0.0,0.0,0.0,0.0,0.0,0.0,0.0,0.0,0.0,0.0,0.0,0.0,0.0,0.0,0.0,0.0,0.0,0.0,0.0,0.0,0.0,0.0,0.0,0.0,0.0,0.0,0.0,0.0,0.0,0.0,0.0,0.0,2.0361,1.9353,1.9259,1.9035,1.8312,1.774,1.7095,1.6528,1.4975,1.3782,1.3392,1.2431,1.1773,1.1607,1.1597,1.1497,1.1184,1.075,1.1101,1.2199,1.1953,1.2531,1.3677,1.3952,1.4088,1.4088,1.2851,1.2222,1.1968,1.0789,1.0163,0.9876,1.0513,1.0794,1.0858,1.1316,1.0457,0.9105,1.047,1.0549,1.0402,0.0,0.0,0.0,0.0,0.0,0.0,0.0,0.4786,1.1161,2.0387,2.2648,2.261,2.0555,1.9209,1.7379,1.4686,1.266,1.1027,0.9777,1.0291,1.1375,1.303,1.3242,1.2832,1.1776,0.9916,0.7671,0.5094,0.2724,0.011,-0.2705,-0.488,-0.7384,-1.005,-1.1737,-1.3674,-1.5786,-1.72,-1.8296,-1.9084,-1.9321,-1.912,-1.8606,-1.7603,-1.6467,-1.5332,-1.5596,-1.6049,-1.6534,-1.6675,0.0,0.0,0.0,0.0,0.0,0.0,0.0,0.0,0.0,0.0,0.0,0.0,0.0,0.0,0.0,0.0,0.0,0.0,0.0,0.0,0.0,0.0,0.0,0.0,2.2541,2.2359,2.2078,2.0986,2.0034,1.9579,1.8736,1.801,1.7559,1.6058,1.4984,1.4422,1.3755,1.3231,1.2968,1.2957,1.2843,1.2501,1.1993,1.2141,1.3188,1.2582,1.2942,1.4088,1.4088,1.4021,1.3901,1.3117,1.2711,1.2375,1.1717,1.1243,1.1084,1.1721,1.1799,0.0,0.0,0.0,0.0,0.0,1.0745,1.1673,0.0,0.0,0.0,0.0,0.0,0.0,0.0,0.5988,1.3081,2.1007,2.3495,2.4036,2.271,2.2,2.0671,1.8344,1.7188,1.6123,1.5157,1.542,1.5556,1.5473,1.5236,1.4348,1.2749,1.1088,0.8838,0.5855,0.3558,0.0545,-0.3098,-0.5428,-0.8333,-1.1715,-1.3158,-1.4867,-1.6747,-1.8208,-1.9208,-1.9875,-2.0353,-1.9894,-1.8783,-1.8078,-1.696,-1.5746,-1.6267,-1.6297,-1.6025,-1.5432,0.0,0.0,0.0,0.0,0.0,0.0,0.0,0.0,0.0,0.0,0.0,0.0,0.0,0.0,0.0,0.0,0.0,0.0,0.0,0.0,0.0,0.0,0.0,0.0,2.496,2.4511,2.4893,2.3162,2.13,1.9974,1.9287,1.8523,1.7632,1.7191,1.6465,1.5246,1.5288,1.5217,1.493,0.0,0.0,0.0,0.0,1.3361,1.4088,1.3033,1.3033,1.4088,1.4055,1.3901,1.3559,1.3614,1.3434,1.316,1.316,1.2979,1.2768,1.2768,1.2518,1.2311,1.2596,1.1964,1.083,1.0755,1.1637,1.2741,0.0,0.0,0.0,0.0,0.0,0.0,0.0,0.8673,1.1912,2.2789,2.4522,2.4161,2.2611,2.1888,2.0837,1.9125,1.8476,1.815,1.8144,1.7625,1.7488,1.781,1.6723,1.5636,1.4591,1.2469,1.0229,0.792,0.5202,0.201,-0.1571,-0.4812,-0.8197,-1.1649,-1.3989,-1.6225,-1.8232,-1.9307,-2.027,-2.1167,-2.1518,-2.0998,-1.9967,-1.9442,-1.8729,-1.8043,-1.845,-1.7893,-1.6746,-1.5303,-1.4681,-1.3999,-1.1029,-0.9502,0.0,0.0,0.0,0.0,0.0,0.0,0.0,0.0,0.0,0.0,0.0,0.0,0.0,0.0,0.0,0.0,0.0,0.0,0.0,2.6005,2.5835,2.5658,2.6075,2.5354,2.4033,2.2169,2.0662,1.9709,1.9453,1.7811,1.6573,1.6345,1.5535,1.4917,1.4623,1.4603,1.4469,1.4182,1.3992,1.3965,1.4088,1.3906,1.3906,1.4082,0.0,0.0,1.3552,1.34,1.3126,1.2916,1.2916,1.2665,1.2385,1.2385,1.2218,1.1964,1.1939,1.1964,1.1958,1.1601,1.1872,1.2378,0.0,0.0,0.0,0.0,0.0,0.0,0.0,1.6012,1.8043,2.3978,2.4776,2.4285,2.2893,2.2562,2.2055,2.1035,2.0948,2.0865,2.0708,2.0215,1.9823,1.9604,1.8946,1.7814,1.6236,1.4652,1.2609,1.0006,0.6478,0.2467,-0.2051,-0.6187,-1.0356,-1.4522,-1.6652,-1.8506,-2.0067,-2.1042,-2.1796,-2.2375,-2.2566,-2.2501,-2.2139,-2.1024,-2.0039,-1.9318,-2.0169,-1.9454,-1.8003,-1.6801,-1.5504,-1.3875,-1.0727,-0.8263,-0.6004,0.0,0.0,0.0,0.0,0.0,0.0,0.0,0.0,0.0,0.0,0.0,0.0,0.0,0.0,2.3329,0.0,0.0,2.6578,2.7895,2.7903,2.7798,2.8079,2.6978,2.5392,2.3545,2.2195,2.0957,1.9906,1.8726,1.7722,1.6961,1.6095,1.5453,1.5142,1.4631,1.4242,1.4088,1.4088,1.4088,1.4088,1.4088,1.4008,1.3771,1.3632,1.3487,1.3193,1.3124,1.2889,1.2525,1.2525,1.2438,1.2305,1.2305,1.2131,1.1921,1.2116,1.2081,1.1864,1.1708,1.1979,1.2255,0.0,0.0,0.0,0.0,0.0,0.0,0.0,2.2368,2.3785,2.4534,2.448,2.3928,2.2838,2.2727,2.2719,2.2671,2.3023,2.311,2.282,2.2429,2.1919,2.1233,2.0991,2.0027,1.8197,1.7269,1.5558,1.2975,0.8999,0.4005,-0.1931,-0.672,-1.1979,-1.7428,-1.9302,-2.0713,-2.1739,-2.2614,-2.3103,-2.3363,-2.3452,-2.378,-2.4098,-2.2673,-2.147,-2.0691,-2.1699,-2.1069,-1.9535,-1.8581,-1.6372,-1.34,-1.0104,-0.6358,-0.274,-0.0341,0.3766,0.0,0.0,0.0,0.0,0.0,0.0,0.0,0.0,2.2881,2.3119,2.3974,2.4503,2.5324,2.6756,2.7889,2.8972,3.0024,2.9847,2.9606,2.9814,2.8123,2.638,2.5018,2.3339,2.1663,1.999,1.9714,1.9138,1.8066,1.6953,1.6225,1.6041,1.522,1.4741,1.4741,1.4587,1.4372,1.4088,1.4124,1.407,1.4012,1.3682,1.3389,1.3161,1.2928,1.2581,1.2297,1.2276,1.227,1.2263,1.2177,1.208,1.2019,1.2419,1.2275,1.1903,1.1978,1.2218,1.2356,0.0,0.0,0.0,0.0,0.0,0.0,0.0,0.0,2.1339,2.4007,2.3426,2.2403,2.1422,2.077,2.0963,2.2401,2.2848,2.3359,2.4122,2.3467,2.3026,2.2914,2.2066,2.1473,2.1198,2.016,1.9186,1.8263,1.5098,0.9488,0.1618,-0.3385,-0.9968,-1.7665,-2.0122,-2.1781,-2.2762,-2.3102,-2.3508,-2.3915,-2.4039,-2.4257,-2.4466,-2.445,-2.3948,-2.3297,-2.3406,-2.2587,-2.1138,-1.9463,-1.5467,-1.0537,-0.6935,-0.2572,0.1638,0.4089,0.6755,0.9436,1.1991,1.6321,2.0674,2.3207,2.4394,2.5783,0.0,2.9896,2.9847,2.9766,3.0288,3.061,3.0223,2.983,3.0077,3.1317,3.0538,2.9778,2.9771,2.899,2.813,2.7299,2.3423,2.071,2.052,2.0507,2.04,2.0216,1.8368,1.7131,1.709,1.7017,1.6935,1.6935,1.6325,1.5321,1.4115,1.4129,1.462,1.5666,1.4021,1.374,1.4533,1.3042,1.2346,1.231,1.2272,1.2298,1.2291,1.1744,1.1794,1.2254,1.2299,1.2835,1.3538,1.3299,1.299,1.2816,0.0,0.0,0.0,0.0,0.0,0.0,0.0,0.0,0.0,2.4067,2.3488,2.2392,2.1073,2.0546,2.0998,2.2746,2.3539,2.411,2.4543,2.4328,2.4101,2.3912,2.3502,2.3064,2.2642,2.1537,2.0354,1.9094,1.4596,0.888,0.2051,-0.3884,-1.0273,-1.6897,-1.937,-2.1205,-2.2452,-2.2884,-2.3383,-2.3891,-2.3996,-2.3941,-2.378,-2.3587,-2.3146,-2.2812,-2.4025,-2.3173,0.0,-1.9235,-1.4001,-0.7578,-0.3325,0.2354,0.7864,0.9925,1.2121,1.4705,1.873,2.125,2.3543,2.706,2.9493,3.1279,3.2105,3.1974,3.1787,3.2084,3.1917,3.1687,3.1781,3.1565,3.1264,0.0,3.2013,3.2595,3.0988,3.124,3.0581,2.8216,2.7196,2.5378,2.1998,2.1707,2.1385,2.069,1.9762,1.9217,1.9217,1.7968,1.6758,1.5499,1.5166,1.5459,1.639,1.6352,1.6632,1.7147,1.5602,1.4895,1.4944,1.3171,1.2952,1.4095,1.4113,1.3243,1.1775,1.1501,1.192,1.2741,1.3108,1.3517,1.3889,1.3941,1.3702,1.3455,0.0,0.0,0.0,0.0,0.0,0.0,0.0,0.0,0.0,0.0,2.3203,2.24,2.1225,2.0843,2.1429,2.3291,2.4197,2.47,2.4797,2.488,2.4814,2.4587,2.4447,2.407,2.3393,2.2366,2.1105,1.9609,1.4977,0.9492,0.3215,-0.2777,-0.8902,-1.5024,-1.7732,-1.9774,-2.1187,-2.176,-2.2383,-2.2932,-2.2933,-2.2785,-2.251,-2.2147,-2.1743,-2.1569,-2.3309,-2.2668,-2.0793,-1.9415,-1.3105,-0.4819,0.0936,0.7308,1.3065,1.5008,1.7047,1.9548,2.3731,2.5218,2.6474,3.0191,3.2882,3.4679,3.4472,3.3862,3.3486,3.402,3.3434,3.2985,3.359,3.3878,3.323,3.0597,3.3136,3.4846,3.2871,3.2783,3.2131,2.9829,3.0347,2.9187,2.4862,2.4123,2.3108,2.1281,2.1061,2.0879,2.0574,1.893,1.7358,1.5942,1.5666,1.6565,1.8667,1.8258,1.7963,1.8012,1.6991,1.6378,1.5922,1.4038,1.3965,1.5408,1.5413,1.4294,1.2523,1.2488,1.2965,1.3701,1.4118,1.4337,1.4355,1.4595,1.4511,1.4269,0.0,0.0,0.0,0.0,0.0,0.0,0.0,0.0,0.0,0.0,0.0,0.0,0.0,2.1388,2.1899,2.3903,2.4505,2.4888,2.5065,2.5021,2.4983,2.4983,2.4545,2.4075,2.3587,2.2855,2.194,2.0862,1.86,1.3716,0.6357,0.1852,-0.431,-1.1787,-1.525,-1.7556,-1.8841,-1.9503,-2.0159,-2.0693,-2.0543,-2.057,-2.0669,-2.0519,-2.0257,-2.0053,-2.0923,-2.0773,-2.0279,-2.0525,-1.3171,-0.2424,0.599,1.1962,1.6276,1.8411,2.0552,2.262,2.4484,2.6893,2.945,3.1935,3.3102,3.4298,3.6803,3.6741,3.6235,3.6423,3.5974,3.5701,3.6381,3.715,3.6269,3.1764,3.3553,3.5458,3.5378,3.3135,3.2002,3.3174,3.1749,3.027,0.0,2.811,2.5996,2.2703,2.2155,2.1527,2.0654,2.009,1.9971,2.0361,1.9548,1.9576,2.0519,1.8844,1.7988,1.7969,1.7982,1.7925,1.7833,1.6067,1.536,1.5404,1.5374,1.5336,1.5248,1.5257,1.5327,1.5308,1.5371,1.5362,1.5371,1.5371,1.5362,1.5352,0.0,0.0,0.0,0.0,0.0,0.0,0.0,0.0,0.0,0.0,0.0,0.0,0.0,0.0,0.0,0.0,2.3891,2.408,2.4284,2.4315,2.4328,2.4266,2.3869,2.3308,2.2623,2.1441,2.0075,1.85,1.5479,1.1555,0.6811,0.2211,-0.2594,-0.7465,-1.0848,-1.3328,-1.5002,-1.6061,-1.6905,-1.7564,-1.7786,-1.7866,-1.7777,-1.7611,-1.7314,-1.6887,0.0,-1.7231,-1.8507,-1.7768,-0.9588,0.1381,0.7561,1.4429,2.0512,2.1862,2.3777,2.5922,2.8076,3.035,3.2795,3.5673,3.6844,3.7508,3.8518,3.8182,3.7543,3.7238,3.5128,3.328,3.3084,3.488,3.5473,3.2616,3.3327,3.374,3.2246,3.2013,3.1848,3.1428,3.2055,0.0,0.0,0.0,0.0,2.5252,2.3807,2.285,2.2563,2.2339,2.1481,1.9821,1.8893,1.8582,1.8842,1.8311,1.8008,1.8008,1.7417,1.714,1.7148,1.6533,1.5928,1.5384,1.5399,1.5381,1.5381,1.5381,1.5381,1.5381,1.5371,1.541,1.541,1.541,1.541,1.5381,0.0,0.0,0.0,0.0,0.0,0.0,0.0,0.0,0.0,0.0,0.0,0.0,0.0,0.0,0.0,0.0,0.0,2.3331,2.3302,2.3327,2.3327,2.3285,2.2487,2.1729,2.1031,1.919,1.7483,1.5995,1.2752,0.9878,0.7275,0.3194,-0.0327,-0.3369,-0.6571,-0.912,-1.1234,-1.2789,-1.3836,-1.455,-1.4838,-1.5236,-1.5625,-1.521,-1.512,0.0,-1.4307,-1.3814,-1.3368,-1.2152,-0.5193,0.4282,1.1682,1.8176,2.3249,2.4289,2.5943,2.7926,3.0206,3.249,3.4718,3.6843,3.7829,3.8438,3.9067,3.8616,3.8039,3.8072,3.5663,3.3248,3.2273,3.3659,3.4235,3.1789,3.2124,3.2004,3.0025,3.1251,3.2108,3.1258,3.2933,3.362,0.0,0.0,0.0,2.6394,2.5011,2.4061,2.3526,2.3178,2.2265,2.0791,1.9164,1.8252,1.7977,1.7998,1.8017,1.7976,1.7178,1.6807,1.6665,1.6398,1.594,1.5399,1.577,1.5961,1.5961,1.6151,1.6099,1.5944,1.5944,1.5796,1.5588,1.5588,1.5497,1.5396,0.0,0.0,0.0,0.0,0.0,0.0,0.0,0.0,0.0,0.0,0.0,0.0,0.0,0.0,0.0,0.0,0.0,0.0,2.2056,2.2022,2.2039,2.1996,2.0474,1.9406,1.8921,1.6276,1.4417,1.3382,1.0789,0.891,0.775,0.4958,0.2483,0.023,-0.2573,-0.5162,-0.7537,-0.9685,-1.1052,-1.1705,-1.1797,-1.2742,-1.4022,-1.3289,-1.3716,-1.4582,-1.4132,-1.0253,-0.5264,-0.4215,0.0167,0.7097,1.8233,2.2921,2.4541,2.5717,2.7125,2.8764,3.0865,3.3291,3.525,3.5598,3.6248,3.7163,3.8431,3.8137,3.7846,3.8693,3.7229,3.5341,3.3812,3.3459,3.2488,2.9666,3.0208,3.0495,2.8917,3.0884,3.2493,0.0,0.0,0.0,0.0,0.0,0.0,2.6299,0.0,2.5213,2.3768,2.2736,2.256,2.3409,2.0608,1.8823,1.8197,1.816,1.8111,1.8112,1.7504,1.7015,1.666,1.5879,1.5508,1.553,1.6529,1.6938,1.6984,1.739,1.7313,1.6885,1.6896,1.6537,1.5987,1.5998,1.5791,1.5431,0.0,0.0,0.0,0.0,0.0,0.0,0.0,0.0,0.0,0.0,0.0,0.0,0.0,0.0,0.0,0.0,0.0,0.0,1.9547,1.9875,1.9929,1.9455,1.8237,1.7126,1.6138,1.3692,1.1844,1.0623,0.9063,0.7627,0.6331,0.6234,0.448,0.1338,-0.0296,-0.1999,-0.3781,-0.6774,-0.8909,-1.021,-0.9804,-1.0215,-1.1165,-1.1511,-1.2163,-1.2197,-0.7853,-0.3019,0.141,0.2103,1.0073,2.0226,2.2982,2.4728,2.5932,2.6852,2.8264,2.9937,3.179,3.3517,3.5173,3.6521,3.7034,3.7261,3.7546,3.7498,3.7069,3.5963,3.4415,3.2832,3.1409,2.8836,2.7705,3.0219,3.1023,0.0,2.896,2.976,0.0,3.0548,0.0,3.1072,3.0589,3.0517,0.0,0.0,2.6939,2.6125,2.5746,2.5061,2.4449,2.3999,2.2546,2.1269,2.0423,2.0085,1.9716,1.926,1.9091,1.8224,1.6701,1.7053,1.6958,1.6553,1.7146,1.7446,1.7446,1.7534,1.7289,1.6868,1.7118,1.6688,1.6034,1.6276,1.6198,1.6008,0.0,0.0,0.0,0.0,0.0,0.0,0.0,0.0,0.0,0.0,0.0,0.0,0.0,0.0,0.0,0.0,0.0,0.0,0.0,1.8266,1.8285,1.7946,1.6306,1.4943,1.4004,1.1648,0.9828,0.8703,0.7622,0.6692,0.5969,0.6117,0.5232,0.3367,0.2696,0.0609,-0.2605,-0.5247,-0.7059,0.0,0.0,-0.8423,-0.9417,-0.9524,-0.9577,-0.8842,-0.2807,0.5701,1.4008,1.384,1.8872,2.5291,2.5628,2.6205,2.6934,2.788,2.9066,3.0407,3.189,3.3379,3.477,3.5746,3.6241,3.6414,3.6015,3.595,3.556,3.407,3.2872,3.1741,3.0599,2.8819,2.8533,3.1627,0.0,0.0,3.0221,3.0306,3.0337,0.0,3.1276,0.0,3.229,3.126,3.0067,0.0,2.7659,2.6702,2.6113,2.5548,2.476,2.3745,2.2591,2.1325,2.0051,1.9846,1.9845,2.0076,1.9614,1.877,1.7647,1.7712,1.7456,1.7079,0.0,1.7415,1.7404,1.7728,1.7678,1.742,1.7642,1.7248,1.6644,1.6811,1.6669,1.6327,0.0,0.0,0.0,0.0,0.0,0.0,0.0,0.0,0.0,0.0,0.0,0.0,0.0,0.0,0.0,0.0,0.0,0.0,0.0,0.0,1.6834,1.6738,1.4541,1.2977,1.2168,0.9851,0.8233,0.734,0.6294,0.5908,0.5984,0.5225,0.4944,0.5004,0.4768,0.2055,-0.2473,-0.4535,-0.5698,-0.6132,-0.6308,-0.724,-0.8421,0.0,-0.6674,-0.4945,0.2408,1.4289,2.6554,2.625,2.6022,2.6083,2.7223,2.7555,2.7737,2.886,2.9697,3.0501,3.1605,3.2918,3.4007,3.4088,3.4665,3.4961,3.4131,3.4061,3.3832,3.2643,3.219,3.1712,3.0669,3.1274,3.2475,3.4036,0.0,3.5153,3.2437,3.2001,3.1637,3.0661,3.3488,3.5497,3.5488,3.3393,3.1184,2.9199,2.8323,2.7237,2.5848,2.5088,2.4142,2.2949,2.1703,2.0437,1.9072,1.9048,1.9659,2.092,1.9913,1.9307,1.8985,1.8093,1.7491,1.7214,1.7369,1.7351,1.7315,1.7941,1.8166,1.8091,1.8091,1.7752,1.7262,1.7262,1.6948,1.6522,0.0,0.0,0.0,0.0,0.0,0.0,0.0,0.0,0.0,0.0,1.8301,1.6957,0.0,0.0,0.0,0.0,0.0,0.0,0.0,0.0,0.0,1.4424,1.2849,1.146,1.0195,0.8131,0.6663,0.586,0.5258,0.4962,0.4969,0.4005,0.3467,0.3111,0.1586,0.0426,-0.0658,-0.3987,-0.5431,-0.5541,-0.5571,-0.6335,-0.7256,-0.6205,0.0,0.0,1.0711,1.88,2.4519,2.83,2.9056,2.8572,2.9282,2.9137,2.8879,2.9815,3.0288,3.0736,3.1645,3.2107,3.2441,3.2995,3.3373,3.3336,3.2299,3.2795,3.2984,3.1246,3.2069,3.2577,3.0746,3.2826,3.5695,3.8482,3.9151,3.8248,3.5241,3.4814,3.4742,0.0,3.5118,3.5474,3.5483,3.5085,0.0,0.0,2.933,2.8493,2.6776,2.5245,2.3606,2.1807,2.1556,2.1418,2.1411,2.1405,2.1837,2.2646,2.2492,2.143,1.9585,1.8583,1.7553,1.6679,1.7652,0.0,1.8001,1.8157,1.794,1.7526,1.7526,1.7174,1.6672,1.6672,1.6609,1.6522,0.0,0.0,0.0,0.0,0.0,0.0,0.0,2.2537,2.0819,1.9125,1.3455,1.0342,1.2368,1.2076,0.0,0.0,0.0,0.0,0.0,0.0,0.0,0.0,0.0,0.0,0.9231,0.7595,0.6363,0.5487,0.0,0.4713,0.4581,0.4234,0.3911,0.3503,0.1082,0.0,-0.0121,-0.1866,-0.3272,-0.4344,-0.5115,-0.5693,-0.5895,0.0,0.0,0.0,0.0,2.0081,2.54,2.8163,3.0108,3.1208,3.0416,2.9981,2.9862,3.0317,3.0498,3.0644,3.1133,3.1248,3.1191,3.1066,3.1264,3.1222,3.0169,3.0921,3.1278,2.9294,2.9168,2.9645,3.05,3.331,3.597,3.7461,4.004,4.1323,3.9868,3.7269,3.5518,3.5507,3.5477,3.5493,3.5491,3.4257,3.2333,2.9799,2.8944,2.7811,2.6107,2.435,2.3017,2.2089,2.1577,2.117,2.0848,2.0889,2.1006,2.1373,2.1368,2.0233,1.8055,1.7556,1.7011,1.6534,1.7074,1.7325,1.7325,1.7325,1.7174,1.6936,1.6936,1.676,1.6522,1.6522,1.6522,1.6522,0.0,0.0,0.0,0.0,0.0,0.0,0.0,1.9998,1.749,1.5968,0.6984,0.25,0.7258,0.8055,0.8792,0.0,0.0,0.0,0.0,0.0,0.0,0.0,0.0,0.0,0.0,0.0,0.0,0.5487,0.5024,0.0,0.0,0.0,0.0,0.0,0.1776,0.0415,-0.0,-0.0365,-0.146,0.0,0.0,-0.5537,0.0,0.0,0.0,0.0,0.0,2.059,2.6308,2.7633,3.016,3.2458,3.0758,3.0353,3.0527,3.058,3.0551,3.0539,3.0645,3.0573,3.0266,2.9513,2.9476,2.9387,2.849,2.9168,2.9537,2.7927,2.718,2.7647,3.0393,3.341,3.5512,3.5509,3.9626,4.3036,4.343,3.9467,3.6499,3.6473,3.6499,0.0,3.6495,3.3475,0.0,2.9263,2.8226,2.6887,2.5187,2.3492,2.2531,2.2407,2.1542,2.067,1.98,1.9813,1.9787,1.9766,1.9334,1.8154,1.6522,1.6488,1.6483,1.65,1.6504,1.6522,1.6522,1.6522,1.6522,1.6522,1.6522,1.6522,1.6522,1.6637,1.668,1.668,0.0,0.0,0.0,0.0,0.0,0.0,0.0,1.9359,1.3899,0.6595,-0.0998,-0.4804,-0.2377,0.025,0.3668,0.0,0.0,0.0,0.0,0.0,0.0,0.0,0.0,0.0,0.0,0.0,0.0,0.5487,0.4858,0.0,0.0,0.0,0.0,0.0,0.0,0.173,-0.0113,-0.1457,0.0,0.0,0.0,0.0,0.0,0.0,0.0,0.0,0.0,2.1947,2.5183,2.7825,2.9605,3.0587,3.0094,3.0231,3.0591,3.061,3.0597,3.059,3.0611,3.0297,2.9868,2.9484,2.9054,2.8584,2.807,2.8133,2.8291,2.824,2.9394,3.0518,3.0833,3.3429,3.5499,3.5495,3.8459,4.1396,4.3234,4.1273,3.9669,3.9698,0.0,0.0,3.9671,3.4713,3.0459,2.7997,2.7658,2.6765,2.4867,2.3385,2.2338,2.1807,2.1336,2.0691,1.9795,1.9795,1.9808,1.9786,1.7772,1.6703,1.6526,1.6511,1.6495,1.6516,1.6491,1.6522,0.0,1.6522,1.6522,1.6522,1.6522,1.6522,1.6552,1.7034,1.7229,1.7312,0.0,0.0,0.0,0.0,0.0,0.0,2.2104,1.9376,1.526,0.9716,0.2738,-0.5344,-1.4893,-0.7865,0.0221,0.0,0.0,0.0,0.0,0.0,0.0,0.0,0.0,0.0,0.0,0.0,0.7639,0.6323,0.5624,0.0,0.0,0.0,0.0,0.0,0.0,0.3459,0.2517,-0.051,0.0,0.0,0.0,0.0,0.0,0.0,0.0,0.0,0.0,0.0,2.5217,2.696,2.781,2.8145,2.8031,2.7419,2.7196,2.9493,3.0119,3.0105,3.0395,3.0341,2.9826,2.8176,2.8969,2.9829,2.8616,2.8936,2.8965,2.7125,2.8956,3.1523,3.3583,3.4802,3.6164,3.8185,3.9637,4.0536,4.0611,4.0308,4.0601,4.1982,4.0923,0.0,0.0,0.0,3.2804,2.9986,2.871,2.7585,2.6452,2.4343,2.308,2.2846,2.2675,2.2438,2.2081,1.9265,1.7802,1.7802,1.6921,1.6495,1.652,1.6502,1.6517,1.6522,1.6522,1.6522,0.0,1.6837,1.6993,1.6993,1.7353,1.7463,1.7504,1.7706,1.7787,1.7827,0.0,0.0,0.0,0.0,0.0,2.2179,2.1381,1.9072,1.6876,1.5318,0.5363,-0.6909,-2.0926,-1.2048,-0.1983,0.5651,0.0,0.0,0.0,0.0,0.0,0.0,0.0,0.0,0.0,0.0,0.8242,0.7306,0.6392,0.5665,0.0,0.0,0.5173,0.4976,0.0,0.0,0.0,0.0,0.0,0.0,0.0,0.0,0.0,0.0,0.0,0.0,0.0,0.0,0.0,0.0,0.0,2.6694,2.6718,2.5893,0.0,2.7569,2.8821,2.9768,3.1045,3.1047,3.004,2.7595,2.8562,2.9822,2.8598,2.8612,2.8271,2.6139,2.8472,3.1945,3.5369,3.5805,3.6696,3.9962,4.0195,3.9677,3.8823,3.9259,4.0282,4.1868,0.0,3.8891,0.0,3.4801,3.3433,3.1341,2.959,2.8371,2.7981,2.5772,2.4225,2.3622,2.3611,2.3612,2.3601,1.9521,1.7452,1.7439,1.7111,1.6948,1.6954,1.6969,1.6879,1.6752,1.6909,1.6795,0.0,1.7229,1.7422,1.7353,1.7907,1.8106,1.8145,1.8302,1.8341,1.838,0.0,0.0,0.0,0.0,0.0,0.0,2.0893,1.8215,1.7723,2.1675,0.4102,-1.1235,-1.7654,-1.0791,-0.295,0.3818,0.0,0.0,0.0,0.0,0.0,0.0,0.0,0.0,0.0,0.0,0.8517,0.8167,0.6837,0.6107,0.6019,0.6109,0.5927,0.55,0.0,0.0,0.0,0.0,0.0,0.0,0.0,0.0,0.0,0.0,0.0,0.0,0.0,0.0,0.0,0.0,0.0,0.0,0.0,0.0,0.0,0.0,2.6496,2.9701,3.2888,3.2512,3.0599,2.819,2.7613,2.7646,2.7703,2.6483,2.5412,2.5644,2.8472,3.1945,3.5369,3.6006,3.6977,4.0,3.9509,3.8715,3.8713,3.8712,3.8725,0.0,0.0,3.8894,3.5871,3.2938,3.1218,3.119,2.9832,0.0,2.8993,2.7514,2.5724,2.3655,2.3605,2.36,2.3621,2.0976,1.9678,1.9634,1.8593,1.8066,1.8066,1.8066,1.7787,1.7312,1.7867,1.7463,0.0,1.7666,1.7787,1.7353,1.7907,1.8106,1.8185,1.8688,1.8893,1.8968,0.0,0.0,0.0,0.0,0.0,0.0,0.0,1.9894,1.9507,2.4037,0.9808,-0.4287,-1.3587,-0.5351,0.4012,1.1842,0.0,0.0,0.0,0.0,0.0,0.0,0.0,0.0,0.0,0.0,1.0112,1.0065,0.8754,0.8072,0.8029,0.6792,0.6406,0.6731,0.6667,0.7167,0.0,0.0,0.0,0.0,0.0,0.0,0.0,0.0,0.0,0.0,0.0,0.0,0.0,0.0,0.0,0.0,0.0,0.0,0.0,2.6376,2.5182,2.5529,3.0633,3.0429,2.8078,2.5255,2.4517,2.4419,2.4103,2.469,2.6053,2.8699,3.1994,3.4715,3.5799,3.5997,3.6246,3.6965,3.7986,3.871,0.0,0.0,0.0,3.6754,3.5065,3.4586,0.0,0.0,3.1077,3.0812,3.0156,2.9353,2.8477,2.8002,2.6314,2.3277,2.1717,2.0911,2.0946,2.0114,1.9715,1.9686,1.9344,1.8945,1.843,1.8187,1.8027,1.7867,1.8027,1.7907,1.7666,1.838,1.8535,1.8458,1.8968,1.9207,1.9207,1.9369,1.9442,1.9479,0.0,0.0,0.0,0.0,0.0,0.0,0.0,2.0013,1.8728,1.9226,0.9119,-0.1044,-0.8761,-0.5332,0.0748,0.868,0.0,0.0,0.0,0.0,0.0,0.0,0.0,0.0,0.0,1.1234,1.1575,1.1757,1.057,0.9638,0.8976,0.7178,0.6693,0.7221,0.7478,0.8324,0.0,0.0,0.0,0.0,0.0,0.0,0.5205,0.0,0.0,0.0,0.0,0.0,0.0,0.0,0.0,0.0,0.0,0.0,0.0,0.0,2.6062,2.491,2.7215,2.6651,2.4937,2.3243,2.2323,2.1922,2.2231,2.3853,2.6359,3.0135,3.3184,3.5307,3.5734,3.5694,3.5566,3.5502,3.6635,3.7475,0.0,0.0,0.0,3.6934,0.0,0.0,0.0,3.2686,3.1067,3.1307,3.0016,2.8924,2.8233,2.7565,2.6175,2.3907,2.1781,2.0361,1.9714,1.9703,1.9711,1.9692,1.9692,1.9472,1.9013,1.8784,1.8574,1.8419,1.8612,1.8458,0.0,1.8893,1.908,1.8968,1.9681,1.9945,1.9945,1.9945,1.9945,1.9894,0.0,0.0,0.0,0.0,0.0,0.0,0.0,1.9104,1.6302,0.983,0.4102,-0.0703,-0.4175,-0.9372,-0.9738,-0.264,0.0,0.0,0.0,0.0,0.0,0.0,0.0,0.0,0.0,1.2097,1.2985,1.3471,1.2437,1.1088,0.9428,0.7728,0.7044,0.73,0.8293,0.9295,0.0,0.0,0.0,0.0,0.0,0.0,0.0,0.0,0.0,0.0,0.0,0.0,0.0,0.0,0.0,0.0,0.0,0.0,0.0,0.0,0.0,0.0,0.0,2.2221,2.188,2.2076,2.1036,2.041,2.2129,2.3963,0.0,3.01,3.224,3.3825,3.5039,3.5161,3.5136,3.5358,3.5666,0.0,0.0,3.7511,0.0,0.0,3.5818,0.0,3.3859,3.1978,3.1161,3.2248,2.9575,2.7961,2.8081,2.6555,2.552,2.5169,2.3505,2.1734,1.9893,1.9861,1.9872,1.9885,1.982,1.9806,1.9782,1.9782,1.95,0.0,1.9515,1.9155,0.0,1.9281,1.9442,1.9103,1.9954,2.0314,2.0348,2.0348,2.0348,2.0246,0.0,0.0,0.0,0.0,0.0,0.0,0.0,0.0,0.0,0.0,0.8827,0.297,-0.6657,-0.8922,-0.7647,0.0,0.0,0.0,0.0,0.0,0.0,0.0,0.0,0.0,0.0,1.368,1.5006,1.7015,1.5811,1.4796,1.3931,1.1369,0.9674,0.8743,0.9625,1.0151,0.0,0.0,0.0,0.0,0.0,0.0,0.0,0.0,0.0,0.0,2.4899,2.5985,0.0,0.0,0.0,0.0,0.0,0.0,0.0,0.0,2.9853,2.8668,2.6319,0.0,2.2702,2.0794,2.1016,2.2225,0.0,0.0,0.0,0.0,0.0,3.0733,3.2762,3.5113,3.6184,3.4482,3.7077,3.9314,3.9317,0.0,0.0,3.8685,3.5793,3.3993,3.4431,3.3004,3.1718,3.0889,2.9504,2.8218,2.7114,2.6655,2.5904,2.4689,2.532,2.4391,2.1702,2.168,2.1698,2.1682,2.1214,2.0893,2.0698,2.0698,2.0416,1.9989,2.0108,1.9844,1.9332,1.9603,1.9788,1.9989,2.0196,2.0516,2.0829,2.0829,2.0616,2.028,0.0,0.0,0.0,0.0,0.0,0.0,0.0,0.0,0.0,0.0,0.0,0.0,0.0,0.0,0.0,0.0,0.0,0.0,0.0,0.0,0.0,0.0,0.0,0.0,1.2283,1.4337,1.6841,1.9866,1.9495,1.8397,1.6496,1.0409,0.7808,0.8147,0.7591,0.8397,0.0,0.0,0.0,0.0,1.0637,0.0,0.0,0.0,0.0,0.0,2.5371,2.6028,0.0,2.7181,2.8219,2.9197,0.0,0.0,0.0,0.0,2.955,2.9843,2.8189,2.6208,2.4613,2.4622,2.2847,2.1609,2.3491,0.0,0.0,0.0,0.0,3.159,3.2803,3.4502,3.5453,3.4698,3.6171,0.0,0.0,0.0,3.8923,3.9464,3.353,3.0676,0.0,3.3575,3.2755,3.1971,2.9446,2.7279,2.5771,2.5902,2.5459,2.4215,2.4504,2.3915,2.2316,2.2285,2.2167,2.1886,2.1564,2.1277,2.0991,2.0991,2.0862,2.0616,2.0616,2.0293,1.9811,2.0153,2.0226,2.0159,2.0686,2.1039,2.1275,2.1275,2.1102,2.0862,0.0,0.0,0.0,0.0,0.0,0.0,0.0,0.0,0.0,0.0,0.0,0.0,0.0,0.0,0.0,0.0,0.0,0.0,0.0,0.0,0.0,0.0,0.0,1.3335,1.2201,1.5386,1.8667,2.1826,2.2731,2.1569,1.8335,0.7448,0.325,0.4771,0.3383,0.5055,0.0,0.0,0.0,0.0,1.0776,0.0,0.0,0.0,0.0,0.0,0.0,0.0,0.0,2.5575,2.6697,2.8441,2.8438,0.0,0.0,0.0,0.0,0.0,2.9322,2.7964,2.7401,2.9635,2.5625,2.1442,2.269,0.0,0.0,0.0,0.0,3.3216,3.3706,3.4209,0.0,0.0,0.0,0.0,4.1402,3.9259,3.7599,3.8617,3.0984,0.0,3.259,3.3296,3.3323,3.3086,2.9107,2.6087,2.4722,2.4812,2.4543,2.3733,2.2869,2.246,2.2477,2.2366,2.2027,2.1543,2.1543,2.1425,2.1197,2.1197,2.1166,2.1086,0.0,0.0,2.0113,2.0719,2.0655,2.0252,2.1231,2.1576,2.1569,2.1655,2.1526,2.121,0.0,0.0,0.0,0.0,0.0,0.0,0.0,0.0,0.0,0.0,0.0,0.0,0.0,0.0,0.0,0.0,0.0,0.0,0.0,0.0,0.0,0.0,1.9952,1.8358,1.8429,1.9596,2.0787,2.1972,2.3502,2.3207,2.0884,0.5707,-0.269,-0.4936,-0.2874,0.031,0.4386,0.0,0.0,0.0,1.7405,0.0,0.0,0.0,0.0,0.0,0.0,0.0,0.0,2.5383,2.5556,2.5868,2.5867,0.0,0.0,0.0,0.0,0.0,2.9216,3.0336,3.132,2.9641,2.8383,2.7306,2.6254,0.0,0.0,0.0,0.0,0.0,0.0,3.606,3.7089,0.0,0.0,4.0421,0.0,0.0,3.0558,3.074,0.0,3.163,2.9911,3.0974,3.1184,2.9854,2.7806,2.6244,2.5404,2.4191,2.3432,2.3293,2.3147,2.314,2.3305,2.264,2.2237,2.2147,2.2147,2.2135,2.2106,2.2106,2.1869,2.1491,0.0,2.1241,2.0847,2.0943,2.1117,2.1343,2.1549,2.1441,2.1332,2.1973,2.1144,1.9715,0.0,0.0,0.0,0.0,0.0,0.0,0.0,0.0,0.0,0.0,0.0,0.0,0.0,0.0,0.0,0.0,0.0,0.0,0.0,0.0,0.0,2.4795,2.2896,2.1562,2.0942,2.1411,2.1843,2.2221,2.3503,2.3805,2.2775,0.3478,-0.9117,-1.5299,-0.9914,-0.4867,0.0,0.5553,0.9965,1.3559,0.0,0.0,0.0,0.0,0.0,0.0,0.0,0.0,0.0,0.0,2.7574,2.7729,2.5878,0.0,0.0,0.0,0.0,0.0,2.908,2.9851,3.1182,3.297,3.1364,2.9129,2.8439,0.0,0.0,0.0,0.0,0.0,0.0,0.0,4.0225,3.6997,0.0,4.2471,3.9449,3.627,3.357,0.0,0.0,3.0626,2.9156,2.8869,2.8855,2.8989,2.7515,2.6211,2.5379,2.4073,2.3312,2.3193,2.3218,2.3248,2.3336,2.2968,2.2773,2.2773,2.259,2.2527,2.25,2.2377,2.218,2.1974,0.0,2.1404,2.0492,2.0933,2.0732,2.0187,2.0588,2.0663,2.0602,2.0914,2.0488,1.9681,0.0,0.0,0.0,0.0,0.0,0.0,0.0,0.0,0.0,0.0,0.0,0.0,0.0,0.0,0.0,0.0,0.0,0.0,0.0,0.0,2.4066,2.506,2.5005,2.4007,2.2035,2.1798,2.1918,2.2383,2.3099,2.1669,1.7876,-0.024,-1.3328,-2.1402,-1.6007,-1.0271,-0.4216,0.2913,0.9454,1.5333,0.0,0.0,0.0,0.0,0.0,0.0,0.0,0.0,0.0,0.0,0.0,0.0,0.0,0.0,0.0,2.6612,2.718,2.8823,2.8855,2.9144,3.0423,3.4482,0.0,0.0,0.0,0.0,0.0,0.0,0.0,0.0,0.0,3.952,0.0,3.9311,4.1152,4.2677,4.1908,3.936,3.648,3.3585,3.0734,2.9009,2.9016,2.7906,2.7583,2.8644,2.7232,2.6009,2.529,2.4241,2.359,2.3455,2.3437,2.3437,2.3437,2.3437,2.3369,2.3189,2.2947,2.2822,2.2822,2.2527,2.2371,2.2371,2.2135,2.138,2.0306,2.0737,2.0213,1.9215,1.9765,2.0002,1.9951,1.9613,1.9697,1.9917,0.0,0.0,0.0,0.0,0.0,0.0,0.0,0.0,0.0,0.0,0.0,0.0,0.0,0.0,0.0,0.0,0.0,0.0,0.0,0.0,2.5474,2.3978,2.6363,2.5991,2.2346,2.0705,2.0678,2.2293,2.2371,1.476,-0.0058,-0.6557,-1.2856,-1.8729,-1.9641,-1.5796,-0.7977,0.2677,1.1474,1.8584,2.2092,0.0,0.0,0.0,0.0,0.0,0.0,0.0,0.0,0.0,0.0,0.0,0.0,0.0,2.9945,2.757,2.753,2.8283,2.84,2.9566,3.071,3.0485,2.8908,0.0,3.4151,3.6411,0.0,3.5521,0.0,0.0,0.0,3.743,4.0841,3.9543,4.0412,4.0239,3.7241,0.0,3.3504,3.1792,3.0046,2.9016,2.8998,2.8887,2.8572,2.7934,2.6389,2.5454,2.5399,2.4589,2.415,2.4132,2.4132,2.4132,2.4132,2.4132,2.3816,2.3189,2.3165,2.3165,2.3141,2.2822,2.2669,2.2609,2.1676,2.1221,2.1042,2.0382,2.0018,1.9917,1.9985,2.0002,1.9833,1.8447,1.8819,1.9833,0.0,0.0,0.0,0.0,0.0,0.0,0.0,0.0,0.0,0.0,0.0,0.0,0.0,0.0,0.0,0.0,0.0,0.0,0.0,0.0,2.5965,2.6271,2.7503,2.7951,2.7466,2.5056,2.3048,2.1474,2.2025,1.9906,1.4841,-0.6171,-1.7868,-2.1176,-2.1355,-1.688,-0.8699,0.0031,0.8372,1.6184,2.1936,2.5498,0.0,0.0,0.0,0.0,0.0,0.0,0.0,0.0,2.9815,3.0171,2.8879,2.7903,2.7052,2.6207,2.6712,2.7642,2.7954,2.9591,3.1192,3.1171,3.0468,0.0,0.0,3.5583,3.5897,3.4528,3.5092,0.0,0.0,0.0,3.8737,3.893,3.8911,3.8249,3.6522,3.4851,3.2821,3.021,2.9362,2.8609,2.7616,2.75,2.7383,2.709,2.5548,2.4869,2.5384,2.463,2.419,2.419,2.419,2.419,2.419,2.419,2.4074,2.3816,2.3534,2.354,2.3795,2.3137,2.253,2.2002,2.1447,2.0662,1.9739,1.9435,1.9063,1.8616,1.8616,1.8616,1.8549,1.8014,1.8143,1.8582,0.0,0.0,0.0,0.0,0.0,0.0,0.0,0.0,0.0,0.0,0.0,0.0,0.0,0.0,0.0,0.0,0.0,0.0,2.5627,2.6167,2.6811,2.7759,2.847,2.9309,3.0352,2.8006,2.5214,2.2007,2.2617,2.1559,1.8454,-0.662,-1.9884,-2.261,-2.1109,-1.7061,-1.0712,-0.1541,0.7171,1.5408,2.2097,2.5607,0.0,0.0,0.0,0.0,0.0,0.0,0.0,0.0,2.8403,2.9272,2.8804,2.7892,2.6743,2.552,2.6211,2.7497,2.8126,2.9619,3.122,3.209,0.0,0.0,3.4645,3.4925,3.4709,3.4687,3.5463,3.6035,3.5807,0.0,0.0,0.0,3.7484,3.6926,3.6368,3.5754,3.3957,3.0198,2.9308,2.8434,2.698,2.6533,2.6358,2.6358,2.4997,2.4428,2.4999,2.4502,2.419,2.419,2.419,2.419,2.419,2.419,2.4209,2.4191,2.3353,2.3399,2.4187,2.3595,2.2729,2.1651,2.1022,2.0089,1.9001,1.8779,1.8478,1.8149,1.8149,1.8149,1.8115,1.7896,1.7811,1.7811,0.0,0.0,0.0,0.0,0.0,0.0,0.0,0.0,0.0,0.0,0.0,0.0,0.0,0.0,0.0,0.0,0.0,0.0,2.5449,2.7245,2.8145,2.7829,2.9214,2.9972,2.99,2.8502,2.6595,2.4212,2.4148,1.7394,0.4219,-0.8967,-1.7624,-2.1949,-1.8939,-1.6779,-1.4577,-0.1562,0.8907,1.725,2.3036,2.595,2.6934,0.0,0.0,0.0,0.0,0.0,0.0,0.0,2.6119,2.6866,2.5365,2.752,2.9848,2.6032,2.6257,2.796,2.9093,2.9802,3.0681,3.2619,0.0,0.0,3.6372,3.518,3.4185,3.6913,3.6412,3.557,3.5977,3.5757,0.0,3.6159,3.6268,3.625,3.626,3.7631,3.6819,3.1979,2.9982,2.8555,2.749,2.6413,2.5792,2.5792,2.4797,2.419,2.419,2.419,2.419,2.419,2.419,2.419,2.419,2.419,2.4191,2.4192,2.2575,2.263,2.419,2.419,2.3332,2.1801,2.0421,1.9625,1.9243,1.852,1.8486,1.8917,1.8934,1.8934,1.8833,1.8082,1.7811,1.7811,0.0,0.0,0.0,0.0,0.0,0.0,0.0,0.0,0.0,0.0,0.0,0.0,0.0,0.0,0.0,0.0,0.0,0.0,2.6193,2.7059,2.7898,2.8759,2.9848,3.0213,2.9769,2.6849,2.4961,2.4212,2.0541,1.3876,0.4251,-0.6791,-1.5095,-2.0536,-1.7287,-1.3792,-0.9817,-0.2479,0.5293,1.3256,2.0165,2.3533,2.457,0.0,0.0,0.0,0.0,0.0,0.0,0.0,0.0,0.0,2.5474,2.6745,2.9043,2.6753,2.7834,2.9709,2.9635,3.0505,3.1649,3.2432,0.0,0.0,0.0,3.4617,0.0,0.0,3.4021,3.3006,3.4251,3.4623,0.0,3.3054,3.3815,3.4146,3.3004,3.3253,3.3035,3.157,2.998,2.7994,2.5393,2.5548,2.5478,2.4723,2.4373,2.419,2.419,2.419,2.419,2.419,2.419,2.419,2.419,2.419,2.4209,2.4173,2.2574,2.2045,2.252,2.2564,2.1902,2.0731,2.1224,2.0417,1.8821,1.9177,1.9421,1.9584,2.017,2.0026,1.9514,1.9286,1.8845,1.8371,0.0,0.0,0.0,0.0,0.0,0.0,0.0,0.0,0.0,0.0,0.0,0.0,0.0,0.0,0.0,0.0,0.0,0.0,0.0,0.0,2.6256,2.7634,2.8812,2.9252,2.8849,2.6772,2.4888,2.3287,1.7133,1.1462,0.6132,-0.3403,-1.0368,-1.4933,-1.6407,-1.4178,-0.8912,-0.2984,0.4314,1.2513,1.9613,2.3162,2.4342,0.0,0.0,0.0,0.0,0.0,0.0,0.0,0.0,0.0,2.6511,2.6784,2.7937,2.8131,2.947,3.0959,3.1265,3.2109,3.3069,3.3508,3.4633,3.54,3.4517,0.0,0.0,0.0,3.3009,3.2191,3.3213,3.3468,0.0,3.0778,3.0709,3.0593,2.9624,2.9504,2.9255,2.8621,2.7672,2.6323,2.4383,2.4794,2.4888,2.4245,2.419,2.419,2.419,2.419,2.419,2.419,2.3583,2.3253,2.3253,2.3253,2.3254,2.3235,2.2027,2.1206,2.0813,2.0861,2.0985,2.117,2.1626,2.1024,1.9753,2.0439,2.0699,2.0752,2.1235,2.0951,2.0203,1.9901,1.9243,1.8478,0.0,0.0,0.0,0.0,0.0,0.0,0.0,0.0,0.0,0.0,0.0,0.0,0.0,0.0,0.0,0.0,0.0,0.0,0.0,0.0,2.3922,2.522,2.6706,2.7576,2.7698,2.771,2.5983,2.2473,1.5142,1.1008,0.9739,0.1978,-0.3057,-0.5899,-1.3504,-1.4248,-0.9315,-0.1986,0.585,1.3934,2.0744,2.4437,2.5915,2.6395,0.0,0.0,0.0,0.0,0.0,0.0,0.0,0.0,2.8095,2.7595,2.7271,2.9776,3.0974,3.1764,3.3272,3.3998,3.4483,3.5249,3.6023,0.0,3.4242,3.3906,3.3876,3.3365,0.0,3.2527,3.2661,3.231,3.136,2.932,2.7713,2.668,2.6607,2.6556,2.5987,2.4532,2.4249,2.42,2.42,2.4225,2.4246,2.4246,2.4228,2.4228,2.4228,2.4209,2.4171,2.408,2.274,2.1972,2.1863,2.1861,2.1874,2.1867,2.1273,2.047,1.9528,1.9595,2.0735,2.2594,2.1698,2.1351,2.1495,2.1971,2.2184,2.2184,2.2256,2.1757,2.0904,2.023,1.9319,1.8374,0.0,0.0,0.0,0.0,0.0,0.0,0.0,0.0,0.0,0.0,0.0,0.0,0.0,0.0,0.0,0.0,0.0,0.0,0.0,0.0,2.3851,2.4215,2.5463,2.7108,2.9178,2.7715,2.6893,2.686,2.1484,1.7899,1.6128,1.4505,1.0456,0.464,0.6645,0.4829,0.0676,0.688,1.0848,1.3712,2.1655,2.6661,2.8873,2.484,2.44,0.0,0.0,0.0,0.0,0.0,0.0,0.0,2.8587,2.9613,3.0991,3.02,3.1233,3.263,3.2691,3.3067,0.0,3.4706,3.5375,3.558,3.4866,3.3323,3.1901,3.1538,3.1565,3.1653,3.1712,3.1121,3.0265,2.9172,2.8178,2.7336,2.668,2.6245,2.5844,2.5491,2.4702,2.4207,2.4207,2.4376,2.4501,2.4501,2.4464,2.4445,2.4445,2.4284,2.3914,2.329,2.3529,2.329,2.2447,2.2429,2.2429,2.241,2.186,2.1492,2.1272,2.1917,2.2465,2.2832,2.1349,2.1075,2.177,2.2501,2.281,2.2864,2.3504,2.2865,2.1589,2.1443,2.0404,1.9059,0.0,0.0,0.0,0.0,0.0,0.0,0.0,0.0,0.0,0.0,0.0,0.0,0.0,0.0,0.0,0.0,0.0,0.0,0.0,0.0,0.0,2.3547,2.5132,2.7258,2.9979,2.8222,2.7205,2.7094,2.4868,2.2246,1.9318,1.9085,1.7019,1.3585,1.5634,1.3896,0.9707,1.3947,1.6363,1.784,2.2769,2.6754,2.9085,2.3209,2.2252,2.4275,2.5579,0.0,0.0,0.0,0.0,0.0,0.0,0.0,3.1905,3.1271,3.2125,3.3314,3.3448,3.3901,0.0,3.5318,0.0,3.544,3.5291,3.3346,3.1547,3.1379,3.0742,3.0246,3.0246,2.9586,2.8796,2.7989,2.7181,2.6355,2.5566,2.5219,2.5037,2.5037,2.4539,2.4247,2.4321,2.4464,2.4582,2.4695,2.4561,2.4495,2.4495,2.3934,2.3621,2.3584,2.3235,2.2776,2.2227,2.1806,2.1402,2.1018,2.1143,2.14,2.1821,2.2226,2.2428,2.2373,2.1492,2.1822,2.2905,2.2575,2.2887,2.3584,2.3621,2.2868,2.1803,2.1803,2.0756,1.9274,0.0,0.0,0.0,0.0,0.0,0.0,0.0,0.0,0.0,0.0,0.0,0.0,0.0,0.0,0.0,0.0,0.0,0.0,0.0,0.0,0.0,2.2264,2.4176,2.6695,2.9889,2.8216,2.6964,2.6257,2.6431,2.4851,2.1616,2.0746,2.0175,1.9857,1.8643,1.7294,1.6036,1.7948,1.9517,2.0789,2.1889,2.3816,2.5464,2.0319,1.9738,2.1622,2.1784,2.169,2.1805,2.4296,0.0,0.0,0.0,0.0,3.1558,3.2379,3.3115,3.383,3.4584,3.513,3.5597,3.5965,3.5734,0.0,3.5293,3.345,3.1756,3.1781,3.0313,2.8957,2.8833,2.8136,2.7328,2.6521,2.5713,2.4962,2.4281,2.4228,2.4266,2.4266,2.4284,2.4375,2.4545,2.4575,2.4651,2.4814,2.467,2.4543,2.4543,2.3711,2.3456,2.3988,2.2703,2.1932,2.1803,2.0941,2.017,1.951,2.0042,2.0666,2.138,2.138,2.1454,2.1565,2.1565,2.2318,2.3474,2.2281,2.2666,2.3914,2.3107,2.2391,2.1784,2.162,2.0611,1.9289,0.0,0.0,0.0,0.0,0.0,0.0,0.0,0.0,0.0,0.0,0.0,0.0,0.0,0.0,0.0,0.0,0.0,0.0,0.0,0.0,0.0,1.8648,1.9953,2.3047,2.8111,2.6015,2.5803,2.7721,2.6384,2.5643,0.0,2.4224,2.2463,2.0274,1.8879,1.7293,1.5608,1.5152,1.4654,1.4305,1.4743,1.457,1.4013,1.3879,1.4974,1.6638,1.7682,1.9377,2.1365,2.2783,2.4707,0.0,0.0,0.0,3.1254,3.2624,3.3469,3.4121,3.4922,0.0,3.5467,0.0,3.5119,3.4952,0.0,0.0,3.1518,0.0,3.0313,2.8796,2.8081,2.731,2.6502,2.5676,2.4887,2.4318,2.4208,2.4339,2.4461,2.4461,2.4607,2.4731,2.476,2.4877,2.493,2.4974,2.4836,2.476,2.476,2.4299,2.3768,2.318,2.296,2.2501,2.1821,2.0941,2.0448,2.0319,1.9748,1.951,1.9635,1.9635,2.0005,2.0668,2.0668,2.0796,2.1035,2.1584,2.2336,2.3088,2.2263,2.1894,2.1711,2.096,2.0097,1.9292,0.0,0.0,0.0,0.0,0.0,0.0,0.0,0.0,0.0,0.0,0.0,0.0,0.0,0.0,0.0,0.0,0.0,0.0,0.0,0.0,0.0,1.5873,1.7253,2.0062,2.4333,2.3763,2.4465,2.6666,2.6302,0.0,0.0,2.3807,2.2408,0.0,0.0,1.7428,1.5672,1.4234,1.333,1.2824,1.2506,1.1847,1.1247,0.0,0.0,0.0,0.0,0.0,1.8384,1.9631,2.1565,2.3665,2.5213,0.0,0.0,0.0,3.3402,3.4417,3.5027,3.5258,3.5249,0.0,3.4843,3.4755,3.4539,3.3015,3.1663,3.1778,3.0426,2.8941,2.7996,2.7585,2.6982,2.5625,2.5282,2.5015,2.4448,2.4545,2.467,2.467,2.4746,2.4828,2.4904,2.4962,2.5046,2.5163,2.5005,2.4917,2.4917,2.4126,2.3524,2.3172,2.2609,2.1914,2.1088,2.0686,2.0264,1.9822,1.9932,1.9748,1.9323,1.9767,2.017,2.0466,2.0023,2.0354,2.118,2.0629,2.1161,2.2244,2.14,2.107,2.1033,2.0631,1.9987,1.9289,0.0,0.0,0.0,0.0,0.0,0.0,0.0,0.0,0.0,0.0,0.0,0.0,0.0,0.0,0.0,0.0,0.0,0.0,0.0,0.0,0.0,1.404,1.5507,1.7887,2.1274,2.2094,2.3569,2.5826,0.0,0.0,2.4394,2.3278,2.2136,0.0,1.8862,1.7135,0.0,0.0,1.3212,1.2967,1.2218,1.1575,0.0,0.0,0.0,0.0,0.0,0.0,1.5495,1.6628,1.8471,2.0643,2.2688,2.5411,0.0,0.0,0.0,3.4865,3.5201,0.0,3.5147,3.4812,3.4737,3.4717,0.0,0.0,3.1888,0.0,3.0596,2.9173,2.8174,2.7922,2.7363,2.582,2.5637,2.5423,2.4685,2.4727,2.4855,2.4855,2.4896,2.4975,2.5077,2.5077,2.5141,2.5303,2.5111,2.501,2.501,2.4153,2.3584,2.3363,2.242,2.1509,2.0643,2.0394,1.9942,1.9323,1.9913,1.9877,1.9323,1.9932,2.0207,2.017,1.9565,2.0021,2.1068,1.9819,2.0152,2.1382,2.0537,2.0319,2.0484,2.0264,1.9822,1.9305,0.0,0.0,0.0,0.0,0.0,0.0,0.0,0.0,0.0,0.0,0.0,0.0,0.0,0.0,1.7363,1.6253,1.4666,1.305,1.1492,1.1426,1.2097,1.3582,1.475,0.0,2.0237,2.1539,2.3603,2.6436,0.0,0.0,2.5306,2.4167,2.2463,2.0242,1.7473,1.6011,1.5535,0.0,0.0,0.0,0.0,0.0,0.0,0.0,0.0,0.0,0.0,0.0,1.3879,1.4576,1.6202,1.8395,2.0797,2.3327,2.6269,0.0,0.0,0.0,0.0,3.5385,0.0,3.4878,3.4783,3.4788,0.0,0.0,3.2166,3.2166,3.0846,2.9432,2.8619,2.7792,2.6981,2.6114,2.5355,2.4842,2.479,2.4904,2.4998,2.4998,2.5152,2.5293,2.5274,2.5274,2.5303,2.5303,2.5111,2.501,2.501,2.4812,2.4341,2.3521,2.2693,2.1864,2.0966,2.0092,1.9522,1.9305,1.9326,1.9326,1.9289,1.9326,1.9344,1.9344,1.9323,1.936,1.9433,1.9341,1.9803,2.0484,1.9675,1.9822,2.0411,1.9638,1.9341,1.9305,0.0,0.0,0.0,0.0,0.0,0.0,0.0,0.0,0.0,0.0,0.0,0.0,0.0,1.8016,1.7229,1.5512,1.2837,1.1026,1.058,1.0365,1.0875,1.2109,1.3428,1.5587,1.8714,2.0578,2.3115,0.0,0.0,2.6877,2.6222,2.4947,2.3555,2.2039,1.9353,1.7587,1.6645,1.6512,0.0,0.0,0.0,0.0,0.0,0.0,0.0,0.0,1.1976,1.2148,1.2464,1.2983,0.0,0.0,0.0,0.0,0.0,0.0,0.0,0.0,0.0,0.0,0.0,3.6115,3.5637,3.52,3.5729,3.3954,3.2185,3.2185,3.097,2.9798,2.9509,2.8787,2.7736,2.6235,2.5964,2.5703,2.5032,2.5077,2.5184,2.5184,2.5264,2.5303,2.5303,2.5303,2.5303,2.5303,2.5224,2.5184,2.5184,2.503,2.4544,2.3726,2.3303,2.2425,2.1066,2.0176,1.9688,1.9619,1.9536,1.9499,1.9485,1.935,1.9305,1.9305,1.9305,1.9305,1.9305,1.9305,1.9473,1.9693,1.9399,1.9473,1.9693,1.9399,1.9305,1.9363,0.0,0.0,0.0,0.0,0.0,0.0,0.0,0.0,0.0,0.0,0.0,0.0,0.0,0.0,1.7153,1.4603,1.2174,1.071,1.0555,1.039,1.0511,1.1064,1.2417,1.4533,1.7429,2.0231,2.3194,2.6302,0.0,0.0,0.0,2.6195,2.5176,2.3944,2.2017,2.0112,0.0,0.0,0.0,1.7344,0.0,0.0,1.5292,0.0,0.0,1.2788,1.2836,1.2527,1.2195,1.2702,0.0,0.0,0.0,0.0,0.0,0.0,0.0,0.0,3.419,0.0,0.0,0.0,3.5815,3.5474,3.5635,3.4035,3.2492,3.2393,3.1177,3.0136,3.0136,2.9448,2.8485,2.7233,2.6787,2.6359,2.5639,2.5405,2.5303,2.5303,2.5331,2.5321,2.5293,2.5331,2.5312,2.5313,2.5303,0.0,2.5303,2.5163,2.4728,2.3934,2.3195,2.2429,2.1609,2.0448,1.9998,2.0236,1.9851,1.9656,1.9656,1.9532,1.9476,1.9476,1.9423,1.935,1.9305,1.9305,1.9305,1.9305,1.9305,1.9305,1.9305,1.9305,1.9305,1.9381,0.0,0.0,0.0,0.0,0.0,0.0,0.0,0.0,0.0,2.2405,0.0,0.0,0.0,0.0,0.0,1.3693,1.2991,1.2323,1.1423,1.1374,1.1077,1.0467,1.1908,1.3902,1.6397,2.05,2.3838,2.632,2.7994,2.8437,2.7711,0.0,2.7211,2.5717,2.5125,2.3414,2.0896,0.0,1.9483,1.8914,0.0,1.7606,1.684,0.0,0.0,1.4076,1.5309,1.4514,1.2981,1.3772,1.4021,0.0,0.0,0.0,0.0,0.0,0.0,0.0,0.0,0.0,0.0,0.0,0.0,0.0,3.4369,0.0,3.3055,3.2774,3.1487,3.0441,3.041,2.9709,2.9143,2.9143,2.7747,2.6631,2.6611,2.588,2.5341,2.5322,2.5352,2.5376,2.5313,2.5352,2.5368,2.5303,2.5293,2.5293,2.5303,2.5303,2.4947,2.4168,2.2466,2.1913,2.2609,2.09,2.0391,2.1065,2.021,1.9821,1.9821,1.979,1.979,1.9778,1.9656,1.9499,1.9305,1.9305,1.9305,1.9305,1.9305,1.9305,1.9305,1.9305,1.9305,1.9323,0.0,0.0,0.0,0.0,0.0,0.0,0.0,0.0,0.0,0.0,0.0,0.0,1.9496,1.7412,1.5613,1.403,1.302,1.2088,1.1217,1.0988,1.0931,1.1112,1.0606,1.1956,1.5504,1.8738,2.2539,2.6942,2.8129,2.8556,2.8202,2.8458,2.7935,0.0,2.6447,2.5695,2.4548,2.3322,0.0,2.2077,2.0614,1.9727,0.0,0.0,0.0,0.0,1.3826,1.2899,1.1838,1.2087,1.2748,1.3789,0.0,0.0,0.0,0.0,0.0,0.0,3.1673,0.0,0.0,0.0,0.0,0.0,0.0,0.0,3.3903,3.3142,3.2191,3.1274,3.0598,3.0303,3.0183,3.0183,2.8733,2.7412,2.6825,2.6547,2.6152,2.5525,2.5471,2.5477,2.5453,2.5471,2.5428,0.0,2.5379,2.5337,2.5293,2.5303,2.5187,2.4986,2.3928,2.3188,2.2748,2.1634,2.0907,2.0526,2.0136,1.9934,1.9934,1.9847,1.979,1.9809,1.9762,1.9669,1.9513,1.935,1.9305,1.9305,1.9305,1.9305,1.9305,1.9305,1.9305,1.947,0.0,0.0,0.0,0.0,0.0,0.0,2.3395,2.438,2.5466,0.0,0.0,0.0,1.8833,1.684,1.5217,1.3974,1.305,1.2358,1.2012,1.1753,1.1581,1.1329,1.0803,1.19,1.4658,1.8182,2.2099,2.6385,2.8023,2.8925,2.9134,2.9324,2.9026,2.8329,0.0,0.0,0.0,0.0,0.0,0.0,2.1561,0.0,0.0,1.7106,1.5503,0.0,0.0,0.0,1.2214,1.1922,1.258,0.0,0.0,0.0,0.0,0.0,0.0,0.0,0.0,0.0,0.0,0.0,0.0,0.0,3.5053,3.4476,3.3684,0.0,3.1867,3.1106,3.056,3.0486,3.0531,3.0548,2.9718,2.8774,2.7994,2.7566,2.7157,2.6646,2.6611,2.6615,2.6593,2.6279,2.6052,2.5984,2.5661,2.5421,2.5383,2.5354,2.5348,2.5329,2.4542,2.386,2.336,2.212,2.1254,2.0812,2.0342,2.0124,2.0115,2.0041,2.0011,2.0001,1.9912,1.9836,1.9762,1.9567,1.9434,1.9305,1.9305,1.9305,1.9305,1.9305,1.9305,1.9491,0.0,0.0,0.0,2.3932,2.3837,2.3683,2.353,2.3892,2.4209,0.0,2.43,2.2433,0.0,0.0,0.0,0.0,1.3147,1.2835,1.2844,1.3081,1.2745,1.1582,1.2056,1.2903,1.398,1.8191,2.1941,2.503,2.7784,2.9476,3.0136,3.012,3.0033,2.9844,0.0,0.0,0.0,0.0,0.0,2.3917,2.1776,2.0875,0.0,0.0,1.6331,1.5563,1.4458,1.3709,1.3229,1.2533,1.2924,0.0,0.0,0.0,0.0,0.0,2.1773,0.0,0.0,0.0,0.0,0.0,0.0,0.0,3.2417,3.2609,3.2789,0.0,3.1097,3.0464,3.0389,3.0388,3.0442,3.0635,3.057,3.0247,2.9519,2.8731,2.8209,2.8139,2.8173,2.8181,2.8119,2.7387,2.6883,2.6821,2.6004,2.5493,2.5493,2.5441,2.5413,2.5394,2.4643,2.4138,2.3956,2.2427,2.1543,2.137,2.0639,2.0312,2.0312,2.0312,2.0312,2.0285,2.0115,2.0022,1.9984,1.9869,1.9632,1.9335,1.9335,1.932,1.9305,1.9305,1.9305,1.9418,0.0,0.0,0.0,2.6024,2.577,2.5366,2.4266,2.369,2.3344,2.3397,2.1638,0.0,0.0,0.0,0.0,0.0,1.3649,1.2555,1.0498,1.2638,1.3831,1.3552,1.322,1.3094,1.3336,1.675,2.0323,2.3923,2.7931,2.9815,2.9639,2.9645,2.9621,2.9585,0.0,0.0,0.0,0.0,0.0,2.524,2.2526,2.1406,2.1075,1.7927,1.6141,1.523,1.3776,1.2751,1.2089,1.2217,1.1886,1.156,0.0,0.0,0.0,1.7082,0.0,0.0,0.0,0.0,0.0,0.0,0.0,0.0,3.2771,3.2458,3.1899,0.0,3.1285,3.0881,3.0336,3.0289,3.0607,3.1487,3.1031,3.0325,2.9581,2.9233,2.8862,2.8339,2.8221,2.8218,2.8259,2.7479,2.6948,2.6886,2.6026,2.5493,2.5493,2.5498,2.5459,2.5406,2.5236,2.4474,2.3071,2.2716,2.187,2.0542,2.0389,2.0312,2.0312,2.0312,2.0312,2.0304,2.0269,2.0152,2.0012,1.9964,1.9802,1.9541,1.9541,1.9438,1.9305,1.9305,1.9305,1.9525,0.0,0.0,0.0,2.701,2.6891,2.6285,2.4553,0.0,0.0,0.0,0.0,0.0,0.0,0.0,0.0,0.0,0.0,0.0,0.0,1.2189,1.2876,1.4068,1.3784,1.34,1.2725,1.4601,1.8147,2.334,2.5698,2.7592,2.9,2.944,2.9583,2.9475,2.9927,0.0,0.0,0.0,2.8083,2.7086,2.3179,0.0,2.0857,1.7624,1.5879,1.4961,1.4128,1.2818,1.1458,1.1893,1.154,0.0,1.2088,1.2691,1.3502,0.0,1.7852,1.9516,0.0,0.0,0.0,2.7832,0.0,0.0,0.0,3.1315,3.1451,3.0373,3.0394,3.0343,2.9517,2.9716,3.0177,3.0725,3.0448,3.0166,3.024,3.0086,2.9985,3.0076,3.0061,3.0065,3.0144,2.9365,2.8317,2.7047,2.6509,2.6052,2.562,2.5564,2.5539,2.5508,2.5434,2.4791,2.3501,2.302,2.2158,2.0889,2.0485,2.0312,2.0312,2.0312,2.0312,2.0312,2.0312,2.0241,2.0152,2.0152,2.0002,1.9778,1.9744,1.9638,1.954,1.954,1.954,1.9726,2.8339,0.0,0.0,0.0,2.76,2.6828,0.0,0.0,0.0,0.0,0.0,0.0,0.0,0.0,0.0,0.0,0.0,0.0,0.0,1.2421,1.2044,1.3758,1.402,1.3579,1.2363,1.2729,1.5908,2.1954,2.3332,2.556,2.8555,2.9626,2.9992,2.9809,3.0188,0.0,0.0,0.0,0.0,2.789,0.0,2.1533,2.0714,1.7678,1.5988,1.5219,1.4754,1.3275,1.1501,1.1931,1.1773,1.1424,1.1082,1.18,0.0,0.0,0.0,0.0,0.0,0.0,0.0,0.0,0.0,2.8631,0.0,0.0,0.0,2.9325,2.9535,2.9707,2.8874,2.9393,2.9961,0.0,0.0,0.0,0.0,3.0912,0.0,3.198,3.1914,3.1929,3.2205,3.1445,2.9988,2.7675,2.748,2.7011,2.5996,2.5892,2.5783,2.5601,2.5489,2.5053,2.4225,2.3292,2.2397,2.1528,2.0696,2.0296,2.0296,2.03,2.0312,2.0312,2.0312,2.0312,2.0312,2.0312,2.0205,2.0031,1.989,1.9938,2.0028,1.9866,1.9903,2.013,2.7119,2.8299,0.0,0.0,0.0,0.0,0.0,0.0,0.0,0.0,0.0,0.0,2.0338,1.8411,1.6162,1.3353,0.0,0.0,1.4939,1.4176,0.0,1.2976,1.3883,1.3748,1.2318,1.2052,1.3915,1.7926,2.2947,2.653,2.8746,3.0462,3.1262,3.1214,3.0143,0.0,0.0,0.0,2.6524,0.0,2.3515,2.2484,0.0,1.9005,1.7349,1.6292,1.4781,1.3623,1.2841,0.0,1.2553,1.1855,0.0,1.2203,1.2195,1.3386,0.0,0.0,0.0,0.0,0.0,0.0,2.4503,0.0,0.0,0.0,2.8789,2.9676,0.0,2.9764,2.9597,0.0,0.0,0.0,0.0,0.0,3.1432,3.1418,3.1711,3.2598,3.1959,3.1874,3.296,3.2292,3.1081,2.9433,2.9186,2.8459,2.6933,2.6855,2.6462,2.5622,2.5593,2.5164,2.4302,2.3412,2.2532,2.1662,2.0743,2.0295,2.0295,2.0292,2.0312,2.0312,2.0312,2.0312,2.0312,2.0312,2.0285,2.0241,2.005,2.0378,2.0864,2.0085,2.0292,2.0946,2.8726,2.8926,0.0,0.0,0.0,0.0,0.0,0.0,0.0,0.0,0.0,0.0,2.1218,1.9577,1.7819,1.5726,1.5079,1.4825,1.4952,1.5023,0.0,1.4116,1.4504,1.4668,1.4356,1.3739,1.526,1.8843,2.1346,2.429,2.7527,2.9765,3.1045,3.1486,3.0989,0.0,2.9973,0.0,2.7732,0.0,0.0,0.0,0.0,1.9047,1.6989,1.5858,1.5183,1.4392,1.3692,0.0,1.3247,0.0,0.0,0.0,0.0,1.4107,0.0,0.0,0.0,0.0,0.0,0.0,0.0,0.0,2.6027,0.0,2.8385,0.0,0.0,0.0,0.0,0.0,0.0,0.0,2.971,0.0,0.0,0.0,3.1229,0.0,0.0,0.0,3.3542,3.29,3.1819,3.0353,3.0186,2.945,2.7832,2.7266,2.6816,2.6422,2.5883,2.542,2.5054,2.4187,2.33,2.2386,2.2003,2.1514,2.1008,2.152,2.1466,2.1004,2.1004,2.0735,2.0312,2.0312,2.0312,2.0285,2.0205,2.0364,2.0595,2.0222,2.0318,2.0633,3.0139,0.0,0.0,0.0,0.0,0.0,0.0,0.0,0.0,0.0,0.0,2.3364,2.1806,2.0714,1.9606,1.8482,1.6156,1.4909,1.5418,1.5489,1.5318,1.4836,1.4997,1.5057,1.501,1.4865,1.6078,1.883,2.0161,2.2845,2.6788,2.9532,3.1288,3.2062,0.0,3.1306,3.0804,0.0,2.8338,2.7496,2.6176,2.4165,2.1644,1.8659,1.6677,1.5521,1.5419,1.4849,1.4197,1.4308,1.3744,0.0,1.2949,1.2949,1.3177,0.0,0.0,0.0,1.758,0.0,0.0,0.0,0.0,0.0,0.0,0.0,0.0,0.0,0.0,0.0,0.0,0.0,2.7867,0.0,0.0,2.9062,0.0,3.0472,0.0,0.0,0.0,0.0,0.0,3.3699,3.2919,3.1693,3.1685,3.0938,2.9058,2.8398,2.7734,2.7012,2.6343,2.5867,2.5633,2.4754,2.3977,2.3275,2.304,2.2559,2.1891,2.2521,2.2312,2.1504,2.1504,2.1043,2.0312,2.0312,2.0312,2.0331,2.0542,2.0485,2.0312,2.0312,2.0446,2.06,3.0368,2.9469,0.0,3.0308,3.0038,0.0,0.0,0.0,0.0,2.5581,2.4018,2.2877,2.2347,2.1725,2.1357,2.1236,1.8121,1.6327,1.6676,1.5497,1.463,1.4536,1.5077,1.4644,1.2921,1.4257,1.5367,1.6147,1.9716,2.3372,2.7192,3.0626,3.2714,3.347,3.2175,3.1607,3.1402,2.8571,2.7115,2.65,2.4948,2.2101,1.8609,0.0,1.6984,1.5855,1.5541,0.0,0.0,1.4603,1.396,0.0,0.0,0.0,0.0,0.0,0.0,0.0,0.0,0.0,0.0,1.9321,0.0,0.0,0.0,0.0,2.5293,0.0,0.0,0.0,2.823,2.8159,0.0,0.0,0.0,0.0,0.0,0.0,0.0,0.0,0.0,0.0,0.0,3.4931,3.4706,0.0,3.4187,3.3276,3.0758,3.0718,2.9609,2.707,2.6973,2.6543,2.5703,2.4824,2.4352,2.4249,2.3392,2.2959,2.2849,2.2824,2.2312,2.1504,2.1504,2.1043,2.0312,2.0312,2.0312,2.0389,2.1158,2.0985,2.0312,2.0312,2.0792,2.135,3.0971,0.0,0.0,3.1031,3.1492,3.1309,0.0,2.9241,2.7982,2.5821,2.4949,2.3971,2.2611,2.1771,2.0938,2.0244,1.8508,1.7381,1.7492,1.5835,0.0,1.5834,1.5725,1.5305,1.4546,1.5008,1.6159,1.7938,1.9966,2.2968,2.6914,2.9966,3.1952,3.2878,0.0,3.2174,0.0,0.0,0.0,0.0,0.0,2.1533,1.9227,0.0,1.6901,1.5758,1.5649,1.5212,0.0,1.5395,1.5017,1.443,1.482,1.4673,1.443,1.4925,1.5453,0.0,0.0,0.0,1.7609,1.8883,0.0,0.0,0.0,0.0,0.0,0.0,0.0,0.0,0.0,0.0,0.0,0.0,0.0,0.0,0.0,0.0,3.2082,3.2675,0.0,0.0,0.0,0.0,0.0,0.0,3.3749,0.0,3.2459,3.146,3.0488,2.9609,2.7891,2.6855,2.6562,2.5703,2.4935,2.4296,2.4549,2.4321,2.3711,2.4215,2.4005,2.3225,2.3225,2.2408,2.11,2.11,2.0773,2.0323,2.0603,2.1216,2.191,2.1559,2.1119,2.0765,3.2004,3.1869,3.1704,3.2153,3.2119,3.176,0.0,0.0,2.8436,2.6459,2.6106,2.5284,2.3318,0.0,2.0868,0.0,1.8984,1.8172,1.8345,1.6477,0.0,1.7023,1.6056,1.5562,0.0,0.0,0.0,1.8493,2.0286,2.2959,2.6527,2.9635,3.1579,3.2498,0.0,3.243,3.0445,3.0555,2.8976,0.0,0.0,2.1289,0.0,0.0,1.7115,1.623,0.0,1.5414,1.5053,1.5543,1.54,1.5031,1.5405,1.5269,1.5031,1.5515,1.5773,1.5946,1.6353,1.6872,0.0,1.7885,1.8475,0.0,2.0393,0.0,2.2232,0.0,0.0,0.0,0.0,0.0,0.0,0.0,0.0,0.0,0.0,3.1087,0.0,3.1338,3.254,3.3342,0.0,0.0,3.3524,3.3834,3.3994,3.3971,0.0,3.2783,3.1836,3.0937,2.8965,2.7637,2.7012,2.6133,2.5361,2.4739,2.526,2.5163,2.4543,2.5063,2.487,2.411,2.411,2.3302,2.1966,2.1966,2.1543,2.0946,2.1323,2.1647,2.1872,2.1512,2.0919,2.0438,3.333,3.3574,3.3574,3.3483,3.199,3.0706,0.0,0.0,2.8523,2.7466,2.74,2.6714,2.4527,2.2097,2.1044,2.1779,1.9703,1.8641,1.9363,1.7387,0.0,0.0,1.617,1.5511,1.6189,0.0,0.0,0.0,0.0,2.3478,2.6261,2.9696,3.17,3.255,3.3258,0.0,3.029,3.0513,2.8931,2.6075,2.3612,2.1184,1.8894,1.8198,1.7635,1.7194,1.6332,1.5467,1.4822,1.5224,1.5079,1.4744,1.4789,1.4744,1.4744,1.4744,1.5023,1.5263,1.4993,1.6084,1.7098,1.6437,1.7472,0.0,0.0,0.0,1.9809,0.0,0.0,0.0,0.0,0.0,0.0,0.0,0.0,0.0,0.0,0.0,3.0453,2.9926,3.0968,3.1883,3.2271,3.2913,3.3449,3.383,3.4971,3.5314,0.0,3.4688,3.3613,3.1094,3.0137,2.8828,2.707,2.6191,2.5673,2.5493,2.5493,2.5428,2.5303,2.5303,2.4889,2.4168,2.4168,2.3648,2.2793,2.2793,2.2474,2.2098,2.306,2.2147,2.0304,2.0299,2.0345,2.0485,3.3988,3.4637,3.4624,3.3383,3.2168,3.1543,0.0,0.0,0.0,0.0,2.6721,2.5608,2.3782,2.2611,2.1883,2.1589,2.0202,0.0,0.0,0.0,0.0,1.87,1.7831,1.7392,1.7383,1.675,1.781,2.0559,0.0,0.0,2.9035,3.108,3.2668,3.3866,0.0,3.3311,3.0316,3.0502,2.8218,2.4241,2.2625,2.1063,1.9586,0.0,1.7817,1.7288,1.6516,1.5846,1.5433,1.6034,1.5852,1.5454,1.5876,1.5732,1.5365,1.5365,1.5459,1.5507,1.5439,1.6065,1.6769,1.7165,1.7497,1.7798,0.0,0.0,0.0,0.0,0.0,0.0,0.0,0.0,0.0,0.0,0.0,0.0,0.0,0.0,0.0,2.7731,2.8076,2.9353,3.2095,3.2047,3.264,3.4628,3.4787,3.4977,3.5373,0.0,3.4766,3.2812,3.1328,2.9726,2.7988,2.7109,2.6278,2.5493,2.5493,2.5428,2.5303,2.5303,2.5187,2.4986,2.4986,2.4159,2.2793,2.2793,2.2483,2.1941,2.1361,2.0806,2.0299,2.0296,2.085,2.1589,3.4575,3.5235,3.524,3.4317,0.0,0.0,3.1724,3.0342,0.0,2.7824,2.6736,0.0,2.4357,2.2865,2.2048,2.2125,2.1016,0.0,2.1635,0.0,0.0,1.9908,1.8576,1.7827,1.7746,1.7131,0.0,2.079,0.0,0.0,2.9371,3.1442,0.0,0.0,0.0,3.3354,3.1091,2.9745,2.7391,2.4341,2.2463,2.1161,0.0,1.8998,1.8153,1.7643,1.7229,1.6635,1.6051,1.638,1.6281,1.6051,1.638,1.6281,1.6008,1.6008,1.6008,1.6008,1.6008,1.6238,1.6609,1.7005,1.7068,1.708,1.7418,1.7708,1.8053,0.0,1.9402,2.0273,0.0,0.0,0.0,0.0,0.0,0.0,0.0,0.0,0.0,0.0,2.5746,2.7264,3.0067,3.0611,3.1872,3.4508,3.4923,3.5256,0.0,0.0,3.5762,3.4023,3.2676,3.1172,2.9453,2.8162,2.703,2.6058,2.5651,2.5406,2.5313,2.533,2.5337,2.5318,2.4971,2.4469,2.3871,2.3108,2.2474,2.1886,2.0738,2.0307,2.0307,2.0304,2.0716,2.1358,3.5148,3.5504,3.5504,0.0,0.0,0.0,0.0,3.0251,0.0,2.8239,0.0,2.621,2.5296,2.316,2.2097,2.3024,2.1978,2.17,2.2956,2.1312,2.0613,2.123,1.9087,1.7963,1.8064,1.7278,1.8,0.0,0.0,0.0,2.9102,0.0,0.0,0.0,0.0,0.0,0.0,2.8591,2.6502,2.5135,2.2687,2.1384,2.075,1.9405,1.859,1.8106,1.8106,1.7504,1.671,1.671,1.671,1.671,1.671,1.671,1.671,1.671,1.668,1.6595,1.6595,1.6552,1.6522,1.6522,1.6522,1.6647,1.7149,1.7262,1.7397,1.7887,1.903,1.9984,0.0,0.0,0.0,0.0,0.0,0.0,0.0,0.0,0.0,0.0,0.0,0.0,2.7203,2.9028,3.1245,3.4007,3.5299,3.5872,0.0,0.0,3.6621,3.4766,3.3848,3.2598,3.0918,2.9092,2.7735,2.6783,2.5842,2.5363,2.5293,2.5363,2.5398,2.5355,2.4541,2.4522,2.4941,2.3303,2.2301,2.168,2.0685,2.0308,2.0308,2.0423,2.0404,2.052,3.5148,3.5504,3.5504,0.0,0.0,3.293,3.2008,3.1195,2.9956,2.7996,2.7249,2.6181,2.4416,2.3903,2.3517,2.3146,2.2059,0.0,0.0,0.0,0.0,2.1743,2.1366,2.0762,2.0094,1.9293,2.0262,0.0,0.0,0.0,3.1921,0.0,0.0,0.0,0.0,0.0,2.9941,2.7545,0.0,2.382,2.2323,2.1384,2.075,1.9405,1.859,1.8106,1.8106,1.7987,1.7827,1.7827,1.7827,1.7827,1.7827,1.7827,1.7827,1.7827,1.7504,1.7146,1.7146,1.6837,1.6522,1.6522,1.6522,1.6547,1.6647,1.6672,1.666,1.6789,1.7016,1.7471,1.8422,0.0,0.0,0.0,0.0,0.0,0.0,0.0,0.0,0.0,0.0,2.2584,0.0,2.8374,3.1254,3.4079,3.5846,3.6463,0.0,0.0,3.7246,0.0,3.3848,0.0,0.0,0.0,2.7735,2.6783,2.5842,2.5363,2.5303,2.5313,2.5357,2.534,2.4501,2.383,2.3269,2.223,2.1324,2.0581,2.0372,2.0308,2.0386,2.1121,2.0927,2.0431,3.5294,3.5504,3.5385,0.0,0.0,0.0,0.0,3.1704,3.0495,2.8546,2.7773,2.6961,2.5725,2.5144,2.4505,2.3793,2.3217,2.2884,2.27,2.2411,2.2086,2.1878,2.1889,2.1495,2.0628,2.0186,2.1198,2.3619,0.0,0.0,3.1275,0.0,0.0,3.5425,0.0,3.276,0.0,0.0,0.0,2.4417,2.3,2.1969,2.1186,2.0073,1.9351,1.893,1.893,1.893,1.8855,1.8302,1.8106,1.8106,1.8106,1.8106,1.8106,1.8106,1.7907,1.7706,1.7706,1.7544,1.7353,1.7353,1.7105,1.6993,1.7271,1.7118,1.6993,1.7271,1.7118,1.6964,1.7174,1.762,0.0,0.0,0.0,0.0,0.0,0.0,1.4739,0.0,0.0,0.0,0.0,0.0,0.0,0.0,0.0,0.0,0.0,0.0,3.7597,0.0,0.0,0.0,3.2115,0.0,2.8318,2.7401,2.6014,2.5321,2.5293,2.4896,2.4984,2.5356,2.3603,2.3145,2.3528,2.2169,2.1095,2.0308,2.0301,2.032,2.0395,2.0779,2.0946,2.1146,3.5504,3.5385,0.0,0.0,3.4247,3.3709,3.2677,3.1839,3.069,2.896,2.826,2.7603,2.673,2.5894,2.5175,2.4567,2.4509,2.4279,2.3649,2.3424,2.3053,2.2421,2.2421,2.1916,2.091,2.1026,2.1958,0.0,0.0,0.0,0.0,0.0,0.0,0.0,0.0,0.0,0.0,0.0,2.6881,2.502,2.3655,2.2556,2.1668,2.0794,2.0261,1.998,1.9914,1.9914,1.9823,1.8956,1.8555,1.8458,1.8458,1.8458,1.8458,1.8458,1.838,1.8263,1.8263,1.8185,1.8106,1.8106,1.7787,1.7585,1.7987,1.7787,1.7585,1.8027,1.7774,1.7342,1.6932,1.7447,0.0,0.0,0.0,0.0,0.0,0.0,0.0,0.0,0.0,0.0,2.1974,0.0,0.0,0.0,0.0,0.0,3.492,0.0,0.0,0.0,0.0,3.4213,3.3485,0.0,2.8683,2.797,2.6168,2.5303,2.5274,2.4698,2.4814,2.5351,2.2984,2.2524,2.3348,2.2111,2.1185,2.0559,2.0371,2.0449,2.0687,2.0605,2.1017,2.1868,3.5504,0.0,0.0,0.0,0.0,3.2662,3.2542,3.1435,3.0078,2.8641,2.7937,2.7044,2.5688,2.5467,2.5342,2.5287,2.5287,2.5287,2.5175,2.4567,2.4176,2.4105,2.4047,2.3327,2.1815,2.2421,2.3343,0.0,0.0,2.7829,0.0,0.0,0.0,0.0,0.0,0.0,0.0,2.7623,2.6094,2.4175,2.3403,2.2649,2.1893,2.1197,2.0894,2.0846,2.059,2.067,2.0846,2.0493,1.9986,1.9566,1.9566,1.9566,1.9566,1.9566,1.9207,1.8817,1.8817,1.8458,1.8106,1.8106,1.8066,1.8027,1.8106,1.8066,1.8027,1.8106,1.8111,1.8271,1.8656,1.8025,1.74,0.0,0.0,0.0,0.0,0.0,1.3917,1.431,0.0,0.0,2.135,2.6988,0.0,0.0,3.389,0.0,0.0,0.0,0.0,3.689,3.534,3.4458,3.4374,3.0215,2.8074,2.797,2.6168,2.5303,2.5303,2.5226,2.528,2.5316,2.3553,2.1991,2.0718,2.1278,2.1505,2.139,2.0617,2.0856,2.165,2.154,2.1563,2.1911,0.0,0.0,0.0,0.0,0.0,0.0,0.0,3.1689,3.035,2.9781,2.8815,2.7768,2.6832,2.6707,2.6534,2.6122,2.6068,2.5837,2.5453,2.5119,2.4951,2.4951,2.4951,2.4654,2.3995,2.4271,2.4598,0.0,0.0,0.0,0.0,0.0,0.0,0.0,0.0,2.975,2.8615,2.74,2.5987,2.4476,2.4083,2.3145,2.1967,2.1519,2.1213,2.0975,2.0703,2.0783,2.1007,2.1071,2.0795,2.0431,2.0139,2.0054,2.0,1.9782,1.9717,1.9687,1.9464,1.9398,1.9368,1.9118,1.8817,1.865,1.9006,1.8817,1.865,1.9006,1.8825,1.848,1.8057,1.82,1.7941,1.6597,0.0,0.0,0.0,0.0,0.0,1.5818,0.0,1.9432,2.0829,2.5357,0.0,0.0,0.0,0.0,0.0,0.0,0.0,3.7657,0.0,3.3876,3.4331,3.0066,2.7943,2.7923,2.615,2.5303,2.5284,2.4793,2.4336,2.3888,2.3747,2.2699,2.112,2.1429,2.1578,2.1572,2.1164,2.1634,2.2505,2.2365,2.268,2.3237,3.6789,0.0,3.5767,0.0,3.4249,3.3802,3.3358,3.1747,3.0566,3.0566,2.9373,2.8263,2.7655,2.723,2.6941,2.6849,2.6651,2.6399,2.6094,2.5837,2.5728,2.5728,2.5728,0.0,2.5398,2.5618,2.5671,2.5525,2.7717,0.0,0.0,0.0,0.0,0.0,2.9152,2.8738,2.823,2.6928,2.5715,2.468,2.4317,2.3345,2.2053,2.1873,2.1645,2.1368,2.1176,2.1209,2.1417,2.1609,2.153,2.1291,2.0682,2.0516,2.0449,2.0174,2.0261,2.0449,2.0139,2.0193,2.0212,1.9945,1.95,1.9244,1.9603,1.9406,1.9244,1.9603,1.9281,1.865,1.7907,1.8283,1.8271,1.6816,0.0,0.0,0.0,1.6769,0.0,1.8113,1.902,2.0104,2.1487,2.519,0.0,0.0,0.0,0.0,0.0,0.0,0.0,0.0,0.0,0.0,3.418,3.0006,2.789,2.7871,2.614,2.5303,2.5284,2.4716,2.4011,2.3311,2.4148,2.356,2.1951,2.1951,2.2126,2.2275,2.1467,2.2049,2.332,2.2952,2.3353,2.4138,3.6694,3.5559,3.4601,3.4585,3.3451,3.254,3.2524,3.1326,3.0416,3.0416,2.9201,2.8133,2.7635,2.6408,2.6153,2.7455,2.6976,2.6871,2.753,2.6878,2.651,0.0,0.0,2.6176,2.5398,2.6122,2.641,2.6277,0.0,0.0,2.8132,0.0,2.9386,2.7961,2.8682,2.8129,2.6674,2.593,2.5186,2.4425,2.3697,2.297,2.2299,2.2282,2.2282,2.2282,2.2282,2.2282,2.2282,2.2282,2.2282,2.2135,2.126,2.0991,2.0991,2.1007,2.1007,2.0991,2.1007,2.0649,2.0314,2.028,2.0,1.969,1.969,1.969,1.969,1.969,1.9281,1.8893,1.8893,1.8472,1.8273,1.8769,0.0,0.0,0.0,1.8658,0.0,2.1173,2.2717,2.3659,2.3774,2.7463,0.0,0.0,0.0,0.0,0.0,0.0,0.0,3.6704,3.5064,0.0,3.4199,3.0006,2.789,2.7871,2.614,2.5303,2.5303,2.5284,2.4851,2.4129,2.4947,2.4332,2.2802,2.2802,2.3331,2.3915,2.1321,2.1901,2.4063,2.3145,2.3342,2.4215,3.7635,3.6754,3.5922,3.5407,3.4509,3.386,3.386,3.2286,3.1083,3.1083,2.9496,2.849,2.8779,2.7543,2.6912,0.0,2.7673,2.7688,0.0,2.8106,2.8306,2.7864,2.7864,2.775,2.7535,2.775,2.7576,2.6964,0.0,0.0,0.0,2.8926,2.8544,2.7088,2.7332,2.6877,2.593,2.571,2.4881,2.3714,2.3477,2.297,2.2338,2.25,2.2573,2.2529,2.2365,2.2417,2.2537,2.236,2.231,2.2254,2.1974,2.1675,2.1368,2.1086,2.1181,2.1337,2.1055,2.1086,2.1134,2.0846,2.0665,2.0599,2.0599,2.033,2.0089,2.0089,1.9752,1.9332,1.8968,1.8765,1.8592,1.8394,1.8644,0.0,1.9531,0.0,2.0314,2.1077,2.1679,2.2209,2.2617,2.5648,0.0,0.0,0.0,0.0,0.0,0.0,0.0,0.0,3.4814,0.0,3.418,3.0006,2.789,2.7871,2.614,2.5303,2.5303,2.5303,2.5149,2.4928,2.5187,2.4697,2.3687,2.3687,2.3512,2.316,2.2329,2.2882,2.4096,2.386,2.4281,2.5031,3.799,3.706,3.6197,3.5707,3.4996,3.4489,3.4489,3.2949,3.1724,3.1724,3.0153,2.9279,2.9999,2.8764,0.0,2.821,2.8303,2.8315,2.8227,2.8971,2.9225,2.8873,2.8826,2.8826,2.8826,2.8575,0.0,2.7599,2.8078,2.8027,2.7446,2.7916,2.7469,2.6285,2.6285,2.5944,2.5371,2.5098,2.4474,2.3708,2.346,2.3064,2.266,2.2815,2.2898,2.288,2.2691,2.275,2.2873,2.2695,2.2651,2.2651,2.2651,2.2358,2.1931,2.1598,2.1675,2.1794,2.1554,2.1538,2.1521,2.1275,2.1118,2.0991,2.0991,2.0748,2.0516,2.0348,2.0089,1.9788,1.9281,1.9207,1.9155,1.8962,1.9462,1.9974,2.0302,0.0,2.136,0.0,0.0,0.0,0.0,2.5732,2.7555,0.0,0.0,0.0,0.0,0.0,0.0,3.6584,3.418,3.2852,3.2776,2.9525,2.7736,2.739,2.5986,2.5303,2.5303,2.5303,2.5303,2.5303,2.5303,2.5005,2.4524,2.4225,2.3956,2.3687,2.3075,2.3554,2.4555,2.4329,2.4742,2.5441,3.7838,3.6637,3.5622,0.0,3.4996,0.0,3.4489,3.3271,3.2341,3.233,3.1106,3.0497,3.1123,2.9956,2.9254,2.9516,0.0,0.0,2.9323,2.9464,2.9496,2.9451,2.9451,2.9419,2.9371,2.8714,2.8278,2.8069,2.714,2.6674,2.6623,2.6657,2.625,2.5556,2.5588,2.5364,2.4912,2.4219,2.4043,2.4166,2.349,2.3189,2.3189,2.3212,2.3236,2.3253,2.3271,2.3253,2.3212,2.3212,2.3189,2.3189,2.3189,2.2996,2.2686,2.2415,2.2293,2.231,2.231,2.1974,2.1658,2.1658,2.1385,2.1103,2.1103,2.1071,2.0926,2.0483,2.0348,2.0193,1.9803,1.9747,1.9874,2.0246,2.0366,2.0699,2.1491,2.1401,2.2086,0.0,0.0,0.0,2.6085,2.7365,2.7892,0.0,0.0,0.0,0.0,0.0,3.6332,3.4276,3.3295,3.2045,3.0417,2.8736,2.7428,2.6505,2.5687,2.5303,2.5303,2.5303,2.5303,2.5303,2.5293,2.5293,2.5236,2.4513,2.461,2.5082,2.3584,2.3948,2.5246,2.4564,2.4821,2.5517,0.0,0.0,3.5622,3.5622,3.4996,3.4489,3.4489,3.3728,3.2933,3.2357,3.1985,3.1613,3.1241,3.0886,3.0723,3.0764,3.0112,2.9603,2.9329,3.022,3.0559,3.0123,3.0081,2.9819,2.9246,2.9066,2.8619,2.7864,2.7079,2.6404,2.5862,2.6133,2.5846,2.5136,2.5425,2.5137,2.4462,2.4286,2.394,2.3454,2.3259,2.3189,2.3212,2.337,2.3494,2.3624,2.3884,2.3808,2.3544,2.33,2.3189,2.3189,2.3189,2.3141,2.3021,2.2686,2.2463,2.231,2.231,2.2209,2.2135,2.2135,2.2077,2.1991,2.1991,2.1705,2.143,2.1337,2.0765,2.028,2.0193,2.0158,2.0193,2.028,2.1069,2.1665,2.1612,2.2756,2.3752,0.0,2.5357,2.6276,2.664,2.7664,2.8782,0.0,0.0,0.0,3.3071,3.4298,3.4754,3.4218,3.2756,3.1468,3.0398,2.8736,2.7121,2.561,2.5399,2.5303,2.5303,2.5303,2.5303,2.5293,2.5354,2.5337,2.5284,2.5188,2.4885,2.4443,2.4105,2.4209,2.4545,2.443,2.489,2.559,3.7,3.6146,3.5667,3.5941,3.5643,3.5437,3.5711,3.5077,3.4436,3.406,3.3205,3.2483,3.2128,3.1533,3.119,3.119,3.0835,3.0465,3.0195,3.0836,3.1055,3.0757,3.0382,3.0016,2.9615,2.8932,2.8142,2.73,2.7078,2.6595,2.5846,2.6207,2.5771,2.4671,2.4875,2.4612,2.4034,2.4034,2.3894,2.3671,2.3671,2.3671,2.3671,2.3783,2.3862,2.3955,2.414,2.4065,2.3896,2.3714,2.3671,2.3671,2.3671,2.3544,2.3392,2.3212,2.2958,2.2686,2.2527,2.2473,2.2436,2.2321,2.231,2.231,2.231,2.2106,2.1869,2.1642,2.1228,2.083,2.0649,2.0616,2.0732,2.1069,2.1661,2.2271,2.2822,2.3772,2.4633,2.5217,2.5817,2.634,2.6729,2.7422,2.824,2.9124,3.0268,0.0,3.2241,3.2302,3.2524,3.3045,3.1795,3.0506,2.9275,2.7563,2.6236,2.5303,2.5303,2.5303,2.5303,2.5303,2.5303,2.5293,2.5368,2.5376,2.5354,2.5465,2.5221,2.4805,2.4869,2.4891,2.4895,2.4969,2.5267,2.5657,3.7404,3.6468,3.6002,3.6613,3.6609,3.6684,3.7152,3.6626,3.6147,3.6023,3.4565,3.3522,3.3399,3.2294,3.1598,3.1598,3.1457,3.1329,3.119,3.119,3.119,3.119,3.0497,3.0057,2.9939,2.8469,2.7437,2.6791,2.7057,2.6809,2.6033,2.6282,2.564,2.4222,2.4271,2.4104,2.3774,2.3774,2.3937,2.419,2.419,2.419,2.419,2.419,2.419,2.419,2.419,2.419,2.419,2.419,2.419,2.419,2.419,2.3996,2.3774,2.3774,2.3566,2.3277,2.2873,2.2772,2.2712,2.2508,2.2388,2.236,2.236,2.2321,2.218,2.1794,2.1658,2.1491,2.115,2.1086,2.1354,2.2147,2.2275,2.2762,2.4201,0.0,2.5038,2.6357,2.6043,2.5979,2.6667,2.7121,2.7367,2.7367,2.8579,2.9758,3.0785,3.0221,3.0374,3.1455,3.066,2.941,2.7717,2.612,2.5303,2.5303,2.5303,2.5303,2.5303,2.5303,2.5322,2.5322,2.5387,2.542,2.5421,2.5498,2.5526,2.5511,2.5595,2.5627,2.5611,2.5683,2.5703,2.5703,3.9047,3.7968,3.7193,3.7941,3.7556,3.7097,3.719,3.7066,3.6785,3.6094,3.572,3.5331,3.4695,3.3847,3.3301,3.3301,3.2685,3.1986,3.1269,3.119,3.119,3.119,3.0497,2.9803,2.9161,2.7996,2.733,2.721,2.693,2.6362,2.5606,2.5265,2.4644,2.3808,2.4078,2.4184,2.4113,2.4113,2.4151,2.419,2.419,2.419,2.419,2.419,2.419,2.419,2.419,2.419,2.419,2.419,2.419,2.419,2.419,2.417,2.4113,2.4113,2.4094,2.3917,2.33,2.3117,2.3117,2.3063,2.284,2.2634,2.2634,2.2463,2.2282,2.2209,2.1869,2.1582,2.1521,2.1491,2.1853,2.2936,2.3059,2.3358,2.4275,0.0,2.523,2.5198,2.6069,2.6723,2.6871,2.768,2.8202,2.8202,2.8628,2.9258,3.0106,2.9564,2.9656,3.0571,2.9756,2.8506,2.6813,2.5813,2.5303,2.5303,2.5303,2.5303,2.5303,2.5303,2.533,2.5391,2.5398,2.5428,2.5484,2.5558,2.5573,2.5598,2.566,2.5683,2.5683,2.5703,2.5703,2.5703,3.8368,3.7707,3.741,3.8025,3.7811,3.7649,3.7964,3.8016,3.7871,3.7492,3.6838,3.6288,3.5964,3.4991,3.4179,3.372,3.3365,3.279,3.1949,3.1896,3.1896,3.1896,3.0768,2.9606,2.8427,2.7884,2.7619,2.7619,2.7636,2.6994,2.5779,2.5764,2.5139,2.3976,2.4113,2.419,2.419,2.419,2.419,2.419,2.419,2.419,2.419,2.419,2.419,2.419,2.419,2.419,2.419,2.419,2.419,2.419,2.419,2.419,2.419,2.419,2.4074,2.3858,2.3544,2.3346,2.3189,2.3189,2.3093,2.2972,2.2972,2.2865,2.2773,2.2773,2.2617,2.2451,2.2451,2.2451,2.2686,2.3393,2.349,0.0,2.5375,2.5476,2.5697,2.6523,2.6393,2.6301,2.6405,2.7236,2.7754,2.7754,2.8392,2.8965,2.9327,2.879,2.864,2.9044,2.9083,2.8294,2.6621,2.6197,2.5774,2.5303,2.5303,2.5303,2.5313,2.5339,2.5379,2.5401,2.5482,2.5531,2.5558,2.5631,2.5659,2.566,2.5683,2.5703,2.5703,2.5703,2.5703,2.5703,3.8491,3.7935,3.7793,3.852,3.8497,3.8561,3.9158,3.9111,3.8982,3.8982,3.7963,3.7243,3.7243,3.6204,3.5267,3.4643,3.4217,3.3752,3.3112,3.2916,3.2713,3.2517,3.103,2.9473,2.7933,2.7982,2.8037,2.8037,2.8008,2.7363,2.6126,2.6063,2.5383,2.419,2.419,2.419,2.419,2.419,2.419,2.419,2.419,2.419,2.419,2.419,2.419,2.419,2.419,2.4228,2.4266,2.4266,2.4266,2.4266,2.4266,2.4247,2.419,2.419,2.4016,2.3816,2.3816,2.3628,2.3414,2.3414,2.3369,2.3323,2.3323,2.3277,2.3189,2.3189,2.3189,2.3189,2.3189,2.3189,2.3376,2.3884,0.0,2.4327,0.0,2.5703,2.5726,2.7158,2.6277,2.5609,2.5744,2.6555,2.7058,2.7058,2.7812,2.837,2.858,2.7958,2.7775,2.8159,2.8602,2.8198,2.6909,2.6697,2.6255,2.5591,2.5399,2.5303,2.5313,2.5346,2.5391,2.5428,2.5526,2.557,2.5631,2.5661,2.5683,2.5703,2.5703,2.5703,2.5703,2.5703,2.5703,2.5703,4.1635,4.0115,3.9072,4.0606,4.0272,4.0015,4.0818,4.0286,3.9808,3.9808,3.908,3.8566,3.8566,3.7802,3.7289,3.7234,3.5795,3.4869,3.4814,3.4128,3.3343,3.255,3.103,2.9473,2.7933,2.821,2.835,2.835,2.7273,2.6661,2.6515,2.5051,2.43,2.419,2.419,2.419,2.419,2.419,2.419,2.419,2.419,2.419,2.419,2.419,2.419,2.419,2.419,2.4321,2.4478,2.4478,2.4478,2.4478,2.4478,2.4339,2.419,2.419,2.417,2.417,2.417,2.4151,2.4132,2.4132,2.3896,2.3671,2.3671,2.3414,2.3189,2.3189,2.3189,2.3189,2.3189,2.3189,2.3554,2.464,0.0,0.0,2.5579,2.5075,2.4673,2.5009,2.5061,2.5069,2.5063,2.6033,2.6647,2.6647,2.6715,2.7099,2.7918,2.7149,2.7409,2.8948,2.8352,2.7928,2.7813,2.7005,2.6563,2.6486,2.5687,2.5303,2.5303,2.5313,2.5387,2.5484,2.5441,2.5531,2.5683,2.5633,2.5637,2.5703,2.5703,2.5703,2.5703,2.5703,2.5703,2.5703,4.135,4.001,3.9221,4.0836,4.0029,3.9423,4.023,3.9662,3.9166,3.9166,3.8891,3.8707,3.8707,3.8432,3.8028,3.7533,3.645,3.5587,3.5027,3.4266,3.3195,3.1882,3.1266,3.0196,2.8637,2.87,2.8773,2.8773,2.8306,2.7585,2.6594,2.597,2.5162,2.419,2.419,2.419,2.419,2.419,2.419,2.419,2.419,2.419,2.419,2.419,2.419,2.4209,2.4339,2.4445,2.4528,2.4639,2.4685,2.4685,2.4685,2.4623,2.4559,2.4559,2.4478,2.4393,2.4393,2.4303,2.419,2.419,2.4094,2.4016,2.4016,2.3917,2.3816,2.3816,2.3816,2.3816,2.3816,2.3923,2.4152,2.4579,0.0,2.4735,2.5729,2.5196,2.493,2.5593,2.5266,2.5046,2.5173,2.6032,2.6601,2.6601,2.6601,2.6736,2.7082,2.6274,2.6582,2.8294,2.8063,2.789,2.789,2.7563,2.6851,2.5793,2.5457,2.5331,2.5363,2.5413,2.5463,2.5561,2.557,2.5633,2.5703,2.5662,2.5682,2.5703,2.5703,2.5703,2.5703,2.5703,2.5703,2.5703,4.1368,4.0194,3.9496,4.0873,3.9992,3.935,4.0157,3.9588,3.9074,3.9074,3.8854,3.8707,3.8707,3.8707,3.8487,3.7918,3.7129,3.6321,3.5477,3.4394,3.3073,3.1458,3.1384,3.065,2.903,2.8994,2.8994,2.8994,2.876,2.8062,2.6979,2.6465,2.5621,2.4557,2.43,2.419,2.419,2.419,2.419,2.419,2.419,2.419,2.419,2.419,2.4247,2.4321,2.4444,2.4575,2.4682,2.4828,2.4869,2.4869,2.4869,2.4828,2.4804,2.4804,2.47,2.4591,2.4591,2.4495,2.4375,2.4321,2.4339,2.4393,2.4393,2.4393,2.4393,2.4393,2.4393,2.4393,2.4393,2.4495,2.4591,2.4591,2.4716,2.5007,2.5603,2.5215,2.5132,2.5824,2.5421,2.5152,2.5293,2.5851,2.6313,2.6582,2.6601,2.6717,2.6986,2.6447,2.6774,2.8217,2.8275,2.8275,2.8275,2.8275,2.7544,2.612,2.5851,2.56,2.5398,2.5447,2.5522,2.5603,2.5658,2.5683,2.5703,2.5703,2.5703,2.5703,2.5703,2.5703,2.5703,2.5703,2.5703,2.5703,4.2304,4.1001,4.0157,4.0983,4.0451,4.0175,4.0983,4.0414,3.9882,3.9882,3.9203,3.8707,3.8707,3.8707,3.8707,3.8707,3.7955,3.7147,3.634,3.4724,3.3073,3.1476,3.1384,3.065,2.903,2.8994,2.8994,2.8994,2.8209,2.7805,2.775,2.6174,2.5421,2.5366,2.4557,2.419,2.419,2.419,2.419,2.419,2.419,2.419,2.419,2.419,2.4339,2.4512,2.4512,2.4723,2.501,2.501,2.501,2.501,2.501,2.4917,2.4804,2.4804,2.4804,2.4804,2.4804,2.4804,2.476,2.4543,2.4654,2.4804,2.4804,2.4804,2.4804,2.4804,2.4804,2.4804,2.4804,2.4804,2.4804,2.4804,2.4804,2.4855,2.4986,2.501,2.5088,2.5274,2.5303,2.5303,2.5303,2.5303,2.5668,2.6524,2.6621,2.6986,2.7852,2.789,2.8275,2.9063,2.9102,2.9102,2.9102,2.9102,2.8679,2.7871,2.7005,2.6178,2.5398,2.5398,2.5477,2.5601,2.5601,2.5636,2.5703,2.5703,2.5703,2.5703,2.5703,2.5703,2.5703,2.5703,2.5703,2.5703,4.302,4.1537,4.0716,4.2488,4.073,3.9653,4.1383,4.0189,3.9056,3.9056,3.8854,3.8707,3.8707,3.8707,3.8707,3.8707,3.8474,3.7511,3.5532,3.4394,3.333,3.2302,3.1696,3.0907,2.9861,2.9287,2.8994,2.8994,2.8778,2.8356,2.7769,2.6722,2.5933,2.5366,2.4557,2.419,2.419,2.419,2.4284,2.441,2.441,2.4495,2.4607,2.4461,2.4545,2.4716,2.4716,2.4836,2.5022,2.5163,2.5214,2.5214,2.5214,2.5182,2.5149,2.5149,2.5061,2.4937,2.4937,2.4937,2.4898,2.4741,2.476,2.4804,2.4804,2.4804,2.4804,2.4804,2.4804,2.4804,2.4804,2.4883,2.4937,2.4937,2.5061,2.516,2.5203,2.5214,2.5224,2.5284,2.5303,2.5303,2.5303,2.5851,2.6332,2.6582,2.7178,2.7621,2.789,2.789,2.8275,2.9063,2.9102,2.939,3.0006,2.941,2.839,2.6986,2.6765,2.6258,2.5477,2.5526,2.5595,2.5662,2.5662,2.5683,2.5703,2.5703,2.5703,2.5703,2.5703,2.5703,2.5703,2.5703,2.5703,2.5703,4.3387,4.2197,4.1486,4.28,4.117,4.0075,4.1401,4.0299,3.9276,3.9184,3.8909,3.8707,3.8707,3.8707,3.8707,3.8707,3.8125,3.7095,3.5624,3.4547,3.3739,3.3259,3.2572,3.1607,3.0397,2.9876,2.9518,2.9272,2.9272,2.9013,2.8532,2.7734,2.6916,2.608,2.528,2.4741,2.4445,2.4445,2.4512,2.4607,2.4607,2.4685,2.479,2.467,2.4727,2.4877,2.4877,2.4981,2.5141,2.5264,2.5303,2.5303,2.5303,2.5303,2.5303,2.5303,2.5214,2.5111,2.5111,2.5111,2.5107,2.5012,2.5006,2.5006,2.5006,2.5006,2.5006,2.5006,2.5006,2.5006,2.5006,2.5072,2.5111,2.5111,2.5214,2.5303,2.5303,2.5303,2.5418,2.5764,2.5514,2.5572,2.6255,2.6486,2.6871,2.7544,2.8409,2.889,2.889,2.889,2.9102,2.9602,2.9648,2.9888,3.0398,2.9931,2.8994,2.7634,2.734,2.6981,2.6545,2.5905,2.6007,2.6699,2.5996,2.5898,2.6211,2.6211,2.6211,2.6211,2.6211,2.6426,2.6641,2.5957,2.6133,2.668,4.3497,4.291,4.2415,4.2415,4.1791,4.1313,4.1313,4.074,4.0171,3.9845,3.9148,3.8707,3.8707,3.8707,3.8707,3.875,3.7364,3.6454,3.638,3.5101,3.4321,3.4265,3.378,3.2692,3.091,3.0796,3.043,2.9827,2.9827,2.9789,2.9677,2.8881,2.807,2.728,2.6484,2.5672,2.4917,2.4917,2.4861,2.4832,2.4832,2.4832,2.4847,2.4814,2.4904,2.5022,2.501,2.5141,2.5303,2.5303,2.5303,2.5303,2.5303,2.5303,2.5303,2.5303,2.5303,2.5303,2.5303,2.5303,2.5303,2.5303,2.5303,2.5303,2.5303,2.5303,2.5303,2.5303,2.5303,2.5303,2.5303,2.5303,2.5303,2.5303,2.5303,2.5303,2.5303,2.5303,2.561,2.6505,2.5909,2.6082,2.7736,2.7255,2.7486,2.9102,2.9948,3.0398,3.0398,3.0398,3.041,3.0402,3.0482,3.0472,3.0425,3.0537,3.0095,2.9085,2.8357,2.8034,2.8025,2.6366,2.6555,2.8086,2.6426,2.6152,2.6875,2.6875,2.6875,2.6894,2.6973,2.748,2.7988,2.6406,2.6875,2.8203,4.3497,4.3351,4.3222,4.3222,4.3106,4.2975,4.2975,4.1434,3.9987,3.9072,3.8792,3.8707,3.8707,3.8707,3.8773,3.8999,3.8359,3.7662,3.6986,3.6058,3.5233,3.463,3.4485,3.4017,3.3123,3.2278,3.1487,3.0712,3.0712,3.0355,2.9677,2.8881,2.8407,2.818,2.7384,2.6537,2.5748,2.5748,2.5437,2.4949,2.4949,2.5041,2.5171,2.5018,2.5065,2.5214,2.5065,2.5141,2.5303,2.5303,2.5303,2.5303,2.5303,2.5303,2.5303,2.5303,2.5303,2.5303,2.5303,2.5303,2.5303,2.5303,2.5303,2.5303,2.5303,2.5303,2.5303,2.5303,2.5303,2.5303,2.5303,2.5303,2.5303,2.5303,2.5303,2.5303,2.5303,2.5303,2.561,2.6505,2.6428,2.6736,2.7794,2.8294,2.8986,3.0044,3.0294,3.0398,3.0398,3.0398,3.0417,3.0472,3.049,3.0532,3.0567,3.0587,2.9804,2.8263,2.8193,2.7807,2.7147,2.6147,2.6269,2.7226,2.6152,2.5801,2.5977,2.5977,2.5977,2.6055,2.6738,2.7129,2.7246,2.6855,2.7383,2.8379,4.3497,4.3497,4.3497,4.3497,4.3477,4.3493,4.3493,4.257,4.1535,4.0775,4.0122,3.969,3.9464,3.9256,3.9183,3.9325,3.8765,3.8206,3.7753,3.6707,3.5894,3.5477,3.5226,3.4928,3.4619,3.4063,3.3157,3.1901,3.1901,3.1482,3.0647,3.0223,2.9589,2.8755,2.8349,2.7681,2.6867,2.6467,2.6078,2.5726,2.5305,2.5214,2.5303,2.5173,2.5214,2.5293,2.5173,2.5214,2.5303,2.5303,2.5303,2.5303,2.5303,2.5303,2.5303,2.5303,2.5303,2.5303,2.5303,2.5303,2.5303,2.5303,2.5303,2.5303,2.5303,2.5303,2.5303,2.5303,2.5303,2.5303,2.5303,2.5303,2.5303,2.5303,2.5303,2.5303,2.5303,2.5649,2.6236,2.7121,2.7217,2.7544,2.839,2.9236,2.991,3.0359,3.0398,3.0414,3.0451,3.0451,3.0482,3.0552,3.0581,3.0606,3.0606,3.0708,3.0061,2.8713,2.8798,2.8594,2.8159,2.7324,2.7422,2.8164,2.6875,2.6562,2.6914,2.6484,2.6328,2.6367,2.6816,2.7519,2.8144,2.7305,2.7812,2.9043,4.3497,4.3548,4.3597,4.3597,4.3664,4.3646,4.3597,4.3513,4.3317,4.2861,4.181,4.0979,4.0644,4.0169,3.9859,3.9692,3.9119,3.8698,3.8565,3.7471,3.6757,3.6604,3.6017,3.5776,3.593,3.5661,3.4718,3.3122,3.3122,3.2622,3.1698,3.1698,3.0852,2.9313,2.9313,2.8871,2.8063,2.7332,2.6851,2.6544,2.5813,2.5418,2.5303,2.5303,2.5303,2.5303,2.5303,2.5303,2.5303,2.5303,2.5303,2.5303,2.5303,2.5303,2.5303,2.5303,2.5303,2.5303,2.5303,2.5303,2.5303,2.5303,2.5303,2.5341,2.5495,2.5399,2.5303,2.5303,2.5303,2.5303,2.5303,2.5303,2.5341,2.5495,2.5514,2.5572,2.5707,2.637,2.714,2.8005,2.8236,2.8582,2.9256,2.9987,3.039,3.0425,3.0425,3.0451,3.0505,3.0532,3.0559,3.0603,3.0677,3.068,3.0643,3.0811,3.0506,2.9745,2.9745,2.9698,2.957,2.8691,2.8789,2.9512,2.791,2.7637,2.8242,2.7519,2.7226,2.7246,2.7383,2.832,2.9434,2.8144,2.8496,2.9726,4.3497,4.3726,4.3924,4.3924,4.4223,4.4337,4.3986,4.3596,4.32,4.2845,4.2291,4.1914,4.1876,4.1393,4.0784,4.01,4.0133,3.9909,3.9218,3.9,3.8574,3.779,3.6974,3.6892,3.7642,3.6238,3.5026,3.4007,3.4007,3.3218,3.1698,3.1698,3.1179,3.0217,3.0217,2.9756,2.8929,2.8813,2.7928,2.6582,2.6467,2.5967,2.5303,2.5303,2.5303,2.5303,2.5303,2.5303,2.5303,2.5303,2.5303,2.5303,2.5303,2.5303,2.5303,2.5303,2.5303,2.5303,2.5303,2.5303,2.5303,2.5303,2.5303,2.5495,2.6255,2.5851,2.5303,2.5303,2.5303,2.5303,2.5303,2.5303,2.5553,2.6294,2.6428,2.6697,2.7448,2.764,2.8025,2.8832,2.9602,3.0102,3.0217,3.0321,3.0417,3.0482,3.0491,3.0524,3.0581,3.0587,3.0623,3.0684,3.0693,3.0745,3.0857,3.0898,3.084,3.0702,3.0702,3.0312,2.957,2.8691,2.8789,2.9531,2.8555,2.8184,2.8281,2.8164,2.8125,2.8203,2.8945,2.9394,2.9668,3.0176,3.0039,2.9707,4.3497,4.3772,4.4016,4.4016,4.4318,4.4527,4.4346,4.4162,4.4039,4.409,4.3474,4.3244,4.3719,4.2707,4.1724,4.1089,4.071,4.0335,3.9988,3.9546,3.9123,3.8738,3.7892,3.7603,3.7988,3.6796,3.5988,3.5603,3.5141,3.4295,3.3103,3.3103,3.2391,3.1141,3.1141,3.0641,2.9794,2.9313,2.8659,2.7967,2.7505,2.7101,2.6755,2.6755,2.6447,2.5967,2.5476,2.5303,2.5303,2.5303,2.5303,2.5303,2.5303,2.5303,2.5303,2.5303,2.5303,2.5303,2.5303,2.5649,2.6024,2.6024,2.6429,2.6908,2.7294,2.7102,2.6842,2.6829,2.6417,2.6223,2.6715,2.6766,2.689,2.7255,2.7332,2.7467,2.7852,2.8294,2.8871,2.9737,3.0179,3.059,3.1083,3.0709,3.0675,3.1196,3.0808,3.0587,3.0661,3.0661,3.0707,3.0814,3.0814,3.0837,3.0898,3.0898,3.0898,3.0898,3.0898,3.0449,2.9609,2.9707,2.9707,2.957,2.9199,2.9023,2.8984,2.8496,2.8301,2.834,2.8711,2.918,2.9707,3.0586,3.0664,3.0371]}]]